<?xml version="1.0" encoding="UTF-8" standalone="no" ?>
<gpx xmlns="http://www.topografix.com/GPX/1/1" xmlns:xsi="http://www.w3.org/2001/XMLSchema-instance" xsi:schemaLocation="http://www.topografix.com/GPX/1/1 http://www.topografix.com/GPX/1/1/gpx.xsd" version="1.1" creator="VisuGPX - https://www.visugpx.com">
  <metadata>
    <name>150610ROBBenjamins</name>
    <desc><![CDATA[super et excellent]]></desc>
  </metadata>
  <trk>
    <name><![CDATA[150610ROBBenjamins]]></name>
    <trkseg>
      <trkpt lat="43.41582" lon="6.07037">
        <ele>206.60000610352</ele>
        <time>2015-06-10T11:48:56Z</time>
      </trkpt>
      <trkpt lat="43.41582" lon="6.07037">
        <ele>206.60000610352</ele>
        <time>2015-06-10T11:49:08Z</time>
      </trkpt>
      <trkpt lat="43.41582" lon="6.07044">
        <ele>206.60000610352</ele>
        <time>2015-06-10T11:49:15Z</time>
      </trkpt>
      <trkpt lat="43.41584" lon="6.07066">
        <ele>206.19999694824</ele>
        <time>2015-06-10T11:49:21Z</time>
      </trkpt>
      <trkpt lat="43.41584" lon="6.07099">
        <ele>206.39999389648</ele>
        <time>2015-06-10T11:49:28Z</time>
      </trkpt>
      <trkpt lat="43.41582" lon="6.07104">
        <ele>206.39999389648</ele>
        <time>2015-06-10T11:49:30Z</time>
      </trkpt>
      <trkpt lat="43.41578" lon="6.07109">
        <ele>206.39999389648</ele>
        <time>2015-06-10T11:49:32Z</time>
      </trkpt>
      <trkpt lat="43.41568" lon="6.07114">
        <ele>206.60000610352</ele>
        <time>2015-06-10T11:49:36Z</time>
      </trkpt>
      <trkpt lat="43.41555" lon="6.07113">
        <ele>206.39999389648</ele>
        <time>2015-06-10T11:49:40Z</time>
      </trkpt>
      <trkpt lat="43.41552" lon="6.0711">
        <ele>206.19999694824</ele>
        <time>2015-06-10T11:49:41Z</time>
      </trkpt>
      <trkpt lat="43.41549" lon="6.07097">
        <ele>206.19999694824</ele>
        <time>2015-06-10T11:49:44Z</time>
      </trkpt>
      <trkpt lat="43.41541" lon="6.07077">
        <ele>206.60000610352</ele>
        <time>2015-06-10T11:49:49Z</time>
      </trkpt>
      <trkpt lat="43.41532" lon="6.07078">
        <ele>205.80000305176</ele>
        <time>2015-06-10T11:49:51Z</time>
      </trkpt>
      <trkpt lat="43.41527" lon="6.07079">
        <ele>205.60000610352</ele>
        <time>2015-06-10T11:49:52Z</time>
      </trkpt>
      <trkpt lat="43.41522" lon="6.0708">
        <ele>205.39999389648</ele>
        <time>2015-06-10T11:49:53Z</time>
      </trkpt>
      <trkpt lat="43.41512" lon="6.07081">
        <ele>204.80000305176</ele>
        <time>2015-06-10T11:49:55Z</time>
      </trkpt>
      <trkpt lat="43.41495" lon="6.07079">
        <ele>205.19999694824</ele>
        <time>2015-06-10T11:49:59Z</time>
      </trkpt>
      <trkpt lat="43.41478" lon="6.07076">
        <ele>205.19999694824</ele>
        <time>2015-06-10T11:50:04Z</time>
      </trkpt>
      <trkpt lat="43.41472" lon="6.07076">
        <ele>204.60000610352</ele>
        <time>2015-06-10T11:50:08Z</time>
      </trkpt>
      <trkpt lat="43.41472" lon="6.07076">
        <ele>204.60000610352</ele>
        <time>2015-06-10T11:50:09Z</time>
      </trkpt>
      <trkpt lat="43.41471" lon="6.07076">
        <ele>204.39999389648</ele>
        <time>2015-06-10T11:50:16Z</time>
      </trkpt>
      <trkpt lat="43.41471" lon="6.07077">
        <ele>204.19999694824</ele>
        <time>2015-06-10T11:50:21Z</time>
      </trkpt>
      <trkpt lat="43.41471" lon="6.07077">
        <ele>204.60000610352</ele>
        <time>2015-06-10T11:50:34Z</time>
      </trkpt>
      <trkpt lat="43.41463" lon="6.07078">
        <ele>203.80000305176</ele>
        <time>2015-06-10T11:50:51Z</time>
      </trkpt>
      <trkpt lat="43.41461" lon="6.0708">
        <ele>203.80000305176</ele>
        <time>2015-06-10T11:50:52Z</time>
      </trkpt>
      <trkpt lat="43.41459" lon="6.07083">
        <ele>204</ele>
        <time>2015-06-10T11:50:53Z</time>
      </trkpt>
      <trkpt lat="43.41454" lon="6.07095">
        <ele>204</ele>
        <time>2015-06-10T11:50:56Z</time>
      </trkpt>
      <trkpt lat="43.41453" lon="6.07098">
        <ele>204</ele>
        <time>2015-06-10T11:50:57Z</time>
      </trkpt>
      <trkpt lat="43.41442" lon="6.07128">
        <ele>203.80000305176</ele>
        <time>2015-06-10T11:51:04Z</time>
      </trkpt>
      <trkpt lat="43.41434" lon="6.07151">
        <ele>203.60000610352</ele>
        <time>2015-06-10T11:51:08Z</time>
      </trkpt>
      <trkpt lat="43.4143" lon="6.07163">
        <ele>203.80000305176</ele>
        <time>2015-06-10T11:51:10Z</time>
      </trkpt>
      <trkpt lat="43.41423" lon="6.07185">
        <ele>203.80000305176</ele>
        <time>2015-06-10T11:51:13Z</time>
      </trkpt>
      <trkpt lat="43.41416" lon="6.07208">
        <ele>204</ele>
        <time>2015-06-10T11:51:16Z</time>
      </trkpt>
      <trkpt lat="43.41413" lon="6.07216">
        <ele>203.80000305176</ele>
        <time>2015-06-10T11:51:17Z</time>
      </trkpt>
      <trkpt lat="43.41406" lon="6.0724">
        <ele>203.39999389648</ele>
        <time>2015-06-10T11:51:20Z</time>
      </trkpt>
      <trkpt lat="43.41392" lon="6.07284">
        <ele>203.19999694824</ele>
        <time>2015-06-10T11:51:26Z</time>
      </trkpt>
      <trkpt lat="43.41381" lon="6.0732">
        <ele>203</ele>
        <time>2015-06-10T11:51:31Z</time>
      </trkpt>
      <trkpt lat="43.41376" lon="6.07343">
        <ele>202.80000305176</ele>
        <time>2015-06-10T11:51:34Z</time>
      </trkpt>
      <trkpt lat="43.41365" lon="6.0739">
        <ele>201.80000305176</ele>
        <time>2015-06-10T11:51:40Z</time>
      </trkpt>
      <trkpt lat="43.41362" lon="6.07404">
        <ele>201.39999389648</ele>
        <time>2015-06-10T11:51:42Z</time>
      </trkpt>
      <trkpt lat="43.4135" lon="6.07466">
        <ele>200.60000610352</ele>
        <time>2015-06-10T11:51:50Z</time>
      </trkpt>
      <trkpt lat="43.4134" lon="6.07515">
        <ele>200.60000610352</ele>
        <time>2015-06-10T11:51:57Z</time>
      </trkpt>
      <trkpt lat="43.41338" lon="6.07522">
        <ele>200.60000610352</ele>
        <time>2015-06-10T11:51:58Z</time>
      </trkpt>
      <trkpt lat="43.41327" lon="6.07573">
        <ele>200.19999694824</ele>
        <time>2015-06-10T11:52:05Z</time>
      </trkpt>
      <trkpt lat="43.41316" lon="6.07611">
        <ele>200</ele>
        <time>2015-06-10T11:52:11Z</time>
      </trkpt>
      <trkpt lat="43.41312" lon="6.07623">
        <ele>200.19999694824</ele>
        <time>2015-06-10T11:52:13Z</time>
      </trkpt>
      <trkpt lat="43.41298" lon="6.07669">
        <ele>199.60000610352</ele>
        <time>2015-06-10T11:52:20Z</time>
      </trkpt>
      <trkpt lat="43.41289" lon="6.07719">
        <ele>199.19999694824</ele>
        <time>2015-06-10T11:52:27Z</time>
      </trkpt>
      <trkpt lat="43.4129" lon="6.07734">
        <ele>198.80000305176</ele>
        <time>2015-06-10T11:52:29Z</time>
      </trkpt>
      <trkpt lat="43.4129" lon="6.07742">
        <ele>198.80000305176</ele>
        <time>2015-06-10T11:52:30Z</time>
      </trkpt>
      <trkpt lat="43.41295" lon="6.07772">
        <ele>198.60000610352</ele>
        <time>2015-06-10T11:52:34Z</time>
      </trkpt>
      <trkpt lat="43.41304" lon="6.07807">
        <ele>197.60000610352</ele>
        <time>2015-06-10T11:52:39Z</time>
      </trkpt>
      <trkpt lat="43.41306" lon="6.07814">
        <ele>197.60000610352</ele>
        <time>2015-06-10T11:52:40Z</time>
      </trkpt>
      <trkpt lat="43.41322" lon="6.07871">
        <ele>198</ele>
        <time>2015-06-10T11:52:49Z</time>
      </trkpt>
      <trkpt lat="43.41328" lon="6.07894">
        <ele>198.80000305176</ele>
        <time>2015-06-10T11:52:53Z</time>
      </trkpt>
      <trkpt lat="43.41328" lon="6.07899">
        <ele>199</ele>
        <time>2015-06-10T11:52:54Z</time>
      </trkpt>
      <trkpt lat="43.41327" lon="6.07908">
        <ele>199.60000610352</ele>
        <time>2015-06-10T11:52:56Z</time>
      </trkpt>
      <trkpt lat="43.41327" lon="6.07912">
        <ele>199.80000305176</ele>
        <time>2015-06-10T11:52:57Z</time>
      </trkpt>
      <trkpt lat="43.41329" lon="6.07921">
        <ele>199.80000305176</ele>
        <time>2015-06-10T11:52:59Z</time>
      </trkpt>
      <trkpt lat="43.41336" lon="6.07929">
        <ele>199.60000610352</ele>
        <time>2015-06-10T11:53:01Z</time>
      </trkpt>
      <trkpt lat="43.41345" lon="6.07936">
        <ele>199.60000610352</ele>
        <time>2015-06-10T11:53:03Z</time>
      </trkpt>
      <trkpt lat="43.4136" lon="6.07949">
        <ele>199</ele>
        <time>2015-06-10T11:53:06Z</time>
      </trkpt>
      <trkpt lat="43.41378" lon="6.0797">
        <ele>198.39999389648</ele>
        <time>2015-06-10T11:53:10Z</time>
      </trkpt>
      <trkpt lat="43.41383" lon="6.07976">
        <ele>198.19999694824</ele>
        <time>2015-06-10T11:53:11Z</time>
      </trkpt>
      <trkpt lat="43.41393" lon="6.07993">
        <ele>198</ele>
        <time>2015-06-10T11:53:14Z</time>
      </trkpt>
      <trkpt lat="43.41396" lon="6.07998">
        <ele>198</ele>
        <time>2015-06-10T11:53:15Z</time>
      </trkpt>
      <trkpt lat="43.41403" lon="6.08009">
        <ele>198</ele>
        <time>2015-06-10T11:53:17Z</time>
      </trkpt>
      <trkpt lat="43.41425" lon="6.08044">
        <ele>197</ele>
        <time>2015-06-10T11:53:23Z</time>
      </trkpt>
      <trkpt lat="43.41432" lon="6.08056">
        <ele>197.60000610352</ele>
        <time>2015-06-10T11:53:25Z</time>
      </trkpt>
      <trkpt lat="43.41457" lon="6.08097">
        <ele>197.19999694824</ele>
        <time>2015-06-10T11:53:32Z</time>
      </trkpt>
      <trkpt lat="43.41478" lon="6.08129">
        <ele>197.19999694824</ele>
        <time>2015-06-10T11:53:38Z</time>
      </trkpt>
      <trkpt lat="43.41502" lon="6.08166">
        <ele>197.80000305176</ele>
        <time>2015-06-10T11:53:45Z</time>
      </trkpt>
      <trkpt lat="43.41515" lon="6.08189">
        <ele>198.19999694824</ele>
        <time>2015-06-10T11:53:49Z</time>
      </trkpt>
      <trkpt lat="43.41527" lon="6.08216">
        <ele>197.60000610352</ele>
        <time>2015-06-10T11:53:53Z</time>
      </trkpt>
      <trkpt lat="43.41534" lon="6.0823">
        <ele>197.39999389648</ele>
        <time>2015-06-10T11:53:55Z</time>
      </trkpt>
      <trkpt lat="43.41538" lon="6.08238">
        <ele>197.19999694824</ele>
        <time>2015-06-10T11:53:56Z</time>
      </trkpt>
      <trkpt lat="43.41549" lon="6.08268">
        <ele>196.60000610352</ele>
        <time>2015-06-10T11:54:00Z</time>
      </trkpt>
      <trkpt lat="43.41551" lon="6.08275">
        <ele>196.60000610352</ele>
        <time>2015-06-10T11:54:01Z</time>
      </trkpt>
      <trkpt lat="43.41552" lon="6.08283">
        <ele>196.60000610352</ele>
        <time>2015-06-10T11:54:02Z</time>
      </trkpt>
      <trkpt lat="43.41562" lon="6.08333">
        <ele>196.80000305176</ele>
        <time>2015-06-10T11:54:09Z</time>
      </trkpt>
      <trkpt lat="43.41568" lon="6.08361">
        <ele>197.19999694824</ele>
        <time>2015-06-10T11:54:13Z</time>
      </trkpt>
      <trkpt lat="43.41578" lon="6.0841">
        <ele>197.39999389648</ele>
        <time>2015-06-10T11:54:20Z</time>
      </trkpt>
      <trkpt lat="43.41587" lon="6.08467">
        <ele>197.19999694824</ele>
        <time>2015-06-10T11:54:28Z</time>
      </trkpt>
      <trkpt lat="43.41594" lon="6.08516">
        <ele>197</ele>
        <time>2015-06-10T11:54:35Z</time>
      </trkpt>
      <trkpt lat="43.41601" lon="6.08564">
        <ele>197.80000305176</ele>
        <time>2015-06-10T11:54:42Z</time>
      </trkpt>
      <trkpt lat="43.41602" lon="6.08571">
        <ele>198</ele>
        <time>2015-06-10T11:54:43Z</time>
      </trkpt>
      <trkpt lat="43.41608" lon="6.08608">
        <ele>198</ele>
        <time>2015-06-10T11:54:48Z</time>
      </trkpt>
      <trkpt lat="43.41619" lon="6.0866">
        <ele>197.39999389648</ele>
        <time>2015-06-10T11:54:55Z</time>
      </trkpt>
      <trkpt lat="43.41623" lon="6.08667">
        <ele>197.39999389648</ele>
        <time>2015-06-10T11:54:56Z</time>
      </trkpt>
      <trkpt lat="43.41637" lon="6.08693">
        <ele>197.60000610352</ele>
        <time>2015-06-10T11:55:00Z</time>
      </trkpt>
      <trkpt lat="43.41662" lon="6.08737">
        <ele>197.19999694824</ele>
        <time>2015-06-10T11:55:07Z</time>
      </trkpt>
      <trkpt lat="43.41685" lon="6.08782">
        <ele>196.80000305176</ele>
        <time>2015-06-10T11:55:14Z</time>
      </trkpt>
      <trkpt lat="43.41702" lon="6.08813">
        <ele>196.19999694824</ele>
        <time>2015-06-10T11:55:19Z</time>
      </trkpt>
      <trkpt lat="43.41708" lon="6.08826">
        <ele>196.19999694824</ele>
        <time>2015-06-10T11:55:21Z</time>
      </trkpt>
      <trkpt lat="43.41735" lon="6.08884">
        <ele>196.80000305176</ele>
        <time>2015-06-10T11:55:30Z</time>
      </trkpt>
      <trkpt lat="43.4174" lon="6.08913">
        <ele>196.19999694824</ele>
        <time>2015-06-10T11:55:34Z</time>
      </trkpt>
      <trkpt lat="43.4174" lon="6.08937">
        <ele>196.19999694824</ele>
        <time>2015-06-10T11:55:37Z</time>
      </trkpt>
      <trkpt lat="43.41737" lon="6.0896">
        <ele>196.19999694824</ele>
        <time>2015-06-10T11:55:40Z</time>
      </trkpt>
      <trkpt lat="43.41724" lon="6.09041">
        <ele>195.80000305176</ele>
        <time>2015-06-10T11:55:51Z</time>
      </trkpt>
      <trkpt lat="43.41722" lon="6.09064">
        <ele>196</ele>
        <time>2015-06-10T11:55:54Z</time>
      </trkpt>
      <trkpt lat="43.4172" lon="6.09135">
        <ele>196</ele>
        <time>2015-06-10T11:56:03Z</time>
      </trkpt>
      <trkpt lat="43.4172" lon="6.09152">
        <ele>196.19999694824</ele>
        <time>2015-06-10T11:56:05Z</time>
      </trkpt>
      <trkpt lat="43.4172" lon="6.09198">
        <ele>196.19999694824</ele>
        <time>2015-06-10T11:56:11Z</time>
      </trkpt>
      <trkpt lat="43.41721" lon="6.09276">
        <ele>196</ele>
        <time>2015-06-10T11:56:21Z</time>
      </trkpt>
      <trkpt lat="43.41724" lon="6.09343">
        <ele>195.39999389648</ele>
        <time>2015-06-10T11:56:30Z</time>
      </trkpt>
      <trkpt lat="43.41733" lon="6.09386">
        <ele>195.80000305176</ele>
        <time>2015-06-10T11:56:36Z</time>
      </trkpt>
      <trkpt lat="43.41746" lon="6.09442">
        <ele>195.80000305176</ele>
        <time>2015-06-10T11:56:44Z</time>
      </trkpt>
      <trkpt lat="43.41759" lon="6.09497">
        <ele>195.80000305176</ele>
        <time>2015-06-10T11:56:52Z</time>
      </trkpt>
      <trkpt lat="43.41776" lon="6.09546">
        <ele>196</ele>
        <time>2015-06-10T11:56:59Z</time>
      </trkpt>
      <trkpt lat="43.41799" lon="6.09598">
        <ele>195.80000305176</ele>
        <time>2015-06-10T11:57:07Z</time>
      </trkpt>
      <trkpt lat="43.41822" lon="6.09638">
        <ele>196.39999389648</ele>
        <time>2015-06-10T11:57:14Z</time>
      </trkpt>
      <trkpt lat="43.41841" lon="6.0965">
        <ele>196</ele>
        <time>2015-06-10T11:57:18Z</time>
      </trkpt>
      <trkpt lat="43.41873" lon="6.09656">
        <ele>196</ele>
        <time>2015-06-10T11:57:24Z</time>
      </trkpt>
      <trkpt lat="43.41919" lon="6.09661">
        <ele>196</ele>
        <time>2015-06-10T11:57:32Z</time>
      </trkpt>
      <trkpt lat="43.41954" lon="6.09664">
        <ele>195.39999389648</ele>
        <time>2015-06-10T11:57:38Z</time>
      </trkpt>
      <trkpt lat="43.4197" lon="6.09667">
        <ele>195.39999389648</ele>
        <time>2015-06-10T11:57:41Z</time>
      </trkpt>
      <trkpt lat="43.41986" lon="6.09668">
        <ele>195</ele>
        <time>2015-06-10T11:57:44Z</time>
      </trkpt>
      <trkpt lat="43.41996" lon="6.09672">
        <ele>195.19999694824</ele>
        <time>2015-06-10T11:57:46Z</time>
      </trkpt>
      <trkpt lat="43.42002" lon="6.09673">
        <ele>195.39999389648</ele>
        <time>2015-06-10T11:57:47Z</time>
      </trkpt>
      <trkpt lat="43.42019" lon="6.09678">
        <ele>195.60000610352</ele>
        <time>2015-06-10T11:57:50Z</time>
      </trkpt>
      <trkpt lat="43.42034" lon="6.09687">
        <ele>195.60000610352</ele>
        <time>2015-06-10T11:57:53Z</time>
      </trkpt>
      <trkpt lat="43.42043" lon="6.09694">
        <ele>195.39999389648</ele>
        <time>2015-06-10T11:57:55Z</time>
      </trkpt>
      <trkpt lat="43.4206" lon="6.09714">
        <ele>195.80000305176</ele>
        <time>2015-06-10T11:57:59Z</time>
      </trkpt>
      <trkpt lat="43.42072" lon="6.09731">
        <ele>195.80000305176</ele>
        <time>2015-06-10T11:58:02Z</time>
      </trkpt>
      <trkpt lat="43.42078" lon="6.09746">
        <ele>196.19999694824</ele>
        <time>2015-06-10T11:58:04Z</time>
      </trkpt>
      <trkpt lat="43.42081" lon="6.09753">
        <ele>196.19999694824</ele>
        <time>2015-06-10T11:58:05Z</time>
      </trkpt>
      <trkpt lat="43.42085" lon="6.09768">
        <ele>196</ele>
        <time>2015-06-10T11:58:07Z</time>
      </trkpt>
      <trkpt lat="43.4209" lon="6.09799">
        <ele>196</ele>
        <time>2015-06-10T11:58:11Z</time>
      </trkpt>
      <trkpt lat="43.42091" lon="6.09846">
        <ele>196.60000610352</ele>
        <time>2015-06-10T11:58:17Z</time>
      </trkpt>
      <trkpt lat="43.42088" lon="6.09876">
        <ele>196.60000610352</ele>
        <time>2015-06-10T11:58:21Z</time>
      </trkpt>
      <trkpt lat="43.42079" lon="6.09906">
        <ele>197.60000610352</ele>
        <time>2015-06-10T11:58:25Z</time>
      </trkpt>
      <trkpt lat="43.42073" lon="6.09921">
        <ele>198.19999694824</ele>
        <time>2015-06-10T11:58:27Z</time>
      </trkpt>
      <trkpt lat="43.42071" lon="6.09928">
        <ele>198.39999389648</ele>
        <time>2015-06-10T11:58:28Z</time>
      </trkpt>
      <trkpt lat="43.42063" lon="6.09958">
        <ele>198.60000610352</ele>
        <time>2015-06-10T11:58:32Z</time>
      </trkpt>
      <trkpt lat="43.42058" lon="6.09982">
        <ele>198.60000610352</ele>
        <time>2015-06-10T11:58:35Z</time>
      </trkpt>
      <trkpt lat="43.42049" lon="6.10025">
        <ele>198.19999694824</ele>
        <time>2015-06-10T11:58:41Z</time>
      </trkpt>
      <trkpt lat="43.42039" lon="6.10089">
        <ele>198</ele>
        <time>2015-06-10T11:58:49Z</time>
      </trkpt>
      <trkpt lat="43.42031" lon="6.10137">
        <ele>197.60000610352</ele>
        <time>2015-06-10T11:58:55Z</time>
      </trkpt>
      <trkpt lat="43.42023" lon="6.10203">
        <ele>197.19999694824</ele>
        <time>2015-06-10T11:59:03Z</time>
      </trkpt>
      <trkpt lat="43.42015" lon="6.1027">
        <ele>196.60000610352</ele>
        <time>2015-06-10T11:59:11Z</time>
      </trkpt>
      <trkpt lat="43.42014" lon="6.10279">
        <ele>196.19999694824</ele>
        <time>2015-06-10T11:59:12Z</time>
      </trkpt>
      <trkpt lat="43.42007" lon="6.10329">
        <ele>195.39999389648</ele>
        <time>2015-06-10T11:59:18Z</time>
      </trkpt>
      <trkpt lat="43.42002" lon="6.10361">
        <ele>195.19999694824</ele>
        <time>2015-06-10T11:59:22Z</time>
      </trkpt>
      <trkpt lat="43.41998" lon="6.10385">
        <ele>195.39999389648</ele>
        <time>2015-06-10T11:59:25Z</time>
      </trkpt>
      <trkpt lat="43.4199" lon="6.10452">
        <ele>195</ele>
        <time>2015-06-10T11:59:33Z</time>
      </trkpt>
      <trkpt lat="43.41988" lon="6.1051">
        <ele>195</ele>
        <time>2015-06-10T11:59:40Z</time>
      </trkpt>
      <trkpt lat="43.41983" lon="6.10541">
        <ele>194.39999389648</ele>
        <time>2015-06-10T11:59:44Z</time>
      </trkpt>
      <trkpt lat="43.4198" lon="6.10557">
        <ele>194.39999389648</ele>
        <time>2015-06-10T11:59:46Z</time>
      </trkpt>
      <trkpt lat="43.41977" lon="6.10565">
        <ele>194.39999389648</ele>
        <time>2015-06-10T11:59:47Z</time>
      </trkpt>
      <trkpt lat="43.41967" lon="6.10597">
        <ele>193.39999389648</ele>
        <time>2015-06-10T11:59:51Z</time>
      </trkpt>
      <trkpt lat="43.4195" lon="6.10642">
        <ele>193.39999389648</ele>
        <time>2015-06-10T11:59:57Z</time>
      </trkpt>
      <trkpt lat="43.41948" lon="6.10649">
        <ele>193.39999389648</ele>
        <time>2015-06-10T11:59:58Z</time>
      </trkpt>
      <trkpt lat="43.41922" lon="6.10726">
        <ele>193.39999389648</ele>
        <time>2015-06-10T12:00:08Z</time>
      </trkpt>
      <trkpt lat="43.4192" lon="6.10734">
        <ele>193.39999389648</ele>
        <time>2015-06-10T12:00:09Z</time>
      </trkpt>
      <trkpt lat="43.41915" lon="6.10757">
        <ele>193.19999694824</ele>
        <time>2015-06-10T12:00:12Z</time>
      </trkpt>
      <trkpt lat="43.41914" lon="6.10764">
        <ele>193</ele>
        <time>2015-06-10T12:00:13Z</time>
      </trkpt>
      <trkpt lat="43.41908" lon="6.10814">
        <ele>192.80000305176</ele>
        <time>2015-06-10T12:00:19Z</time>
      </trkpt>
      <trkpt lat="43.41904" lon="6.10846">
        <ele>192.39999389648</ele>
        <time>2015-06-10T12:00:23Z</time>
      </trkpt>
      <trkpt lat="43.41903" lon="6.1087">
        <ele>192.39999389648</ele>
        <time>2015-06-10T12:00:26Z</time>
      </trkpt>
      <trkpt lat="43.41904" lon="6.10894">
        <ele>192.80000305176</ele>
        <time>2015-06-10T12:00:29Z</time>
      </trkpt>
      <trkpt lat="43.41908" lon="6.10916">
        <ele>193.39999389648</ele>
        <time>2015-06-10T12:00:32Z</time>
      </trkpt>
      <trkpt lat="43.41921" lon="6.1098">
        <ele>193.19999694824</ele>
        <time>2015-06-10T12:00:41Z</time>
      </trkpt>
      <trkpt lat="43.41922" lon="6.11025">
        <ele>192.39999389648</ele>
        <time>2015-06-10T12:00:46Z</time>
      </trkpt>
      <trkpt lat="43.41917" lon="6.11072">
        <ele>191.60000610352</ele>
        <time>2015-06-10T12:00:51Z</time>
      </trkpt>
      <trkpt lat="43.41917" lon="6.1108">
        <ele>191.39999389648</ele>
        <time>2015-06-10T12:00:52Z</time>
      </trkpt>
      <trkpt lat="43.41917" lon="6.11124">
        <ele>191.39999389648</ele>
        <time>2015-06-10T12:00:57Z</time>
      </trkpt>
      <trkpt lat="43.41918" lon="6.11132">
        <ele>191.39999389648</ele>
        <time>2015-06-10T12:00:58Z</time>
      </trkpt>
      <trkpt lat="43.41932" lon="6.11171">
        <ele>190.80000305176</ele>
        <time>2015-06-10T12:01:03Z</time>
      </trkpt>
      <trkpt lat="43.41951" lon="6.11213">
        <ele>190.80000305176</ele>
        <time>2015-06-10T12:01:09Z</time>
      </trkpt>
      <trkpt lat="43.41963" lon="6.1123">
        <ele>190.60000610352</ele>
        <time>2015-06-10T12:01:12Z</time>
      </trkpt>
      <trkpt lat="43.41975" lon="6.11246">
        <ele>190.39999389648</ele>
        <time>2015-06-10T12:01:15Z</time>
      </trkpt>
      <trkpt lat="43.42007" lon="6.1129">
        <ele>190.19999694824</ele>
        <time>2015-06-10T12:01:23Z</time>
      </trkpt>
      <trkpt lat="43.42036" lon="6.11337">
        <ele>190.39999389648</ele>
        <time>2015-06-10T12:01:31Z</time>
      </trkpt>
      <trkpt lat="43.42056" lon="6.11373">
        <ele>190.60000610352</ele>
        <time>2015-06-10T12:01:37Z</time>
      </trkpt>
      <trkpt lat="43.42077" lon="6.11408">
        <ele>190.39999389648</ele>
        <time>2015-06-10T12:01:44Z</time>
      </trkpt>
      <trkpt lat="43.42075" lon="6.11424">
        <ele>190.39999389648</ele>
        <time>2015-06-10T12:01:47Z</time>
      </trkpt>
      <trkpt lat="43.42069" lon="6.11446">
        <ele>189.80000305176</ele>
        <time>2015-06-10T12:01:50Z</time>
      </trkpt>
      <trkpt lat="43.42067" lon="6.11453">
        <ele>189.39999389648</ele>
        <time>2015-06-10T12:01:51Z</time>
      </trkpt>
      <trkpt lat="43.42064" lon="6.11459">
        <ele>189.19999694824</ele>
        <time>2015-06-10T12:01:52Z</time>
      </trkpt>
      <trkpt lat="43.42054" lon="6.11472">
        <ele>188.39999389648</ele>
        <time>2015-06-10T12:01:55Z</time>
      </trkpt>
      <trkpt lat="43.42048" lon="6.11479">
        <ele>188.39999389648</ele>
        <time>2015-06-10T12:01:57Z</time>
      </trkpt>
      <trkpt lat="43.42036" lon="6.11489">
        <ele>189.19999694824</ele>
        <time>2015-06-10T12:02:00Z</time>
      </trkpt>
      <trkpt lat="43.42016" lon="6.11504">
        <ele>189</ele>
        <time>2015-06-10T12:02:05Z</time>
      </trkpt>
      <trkpt lat="43.42008" lon="6.1151">
        <ele>189.80000305176</ele>
        <time>2015-06-10T12:02:07Z</time>
      </trkpt>
      <trkpt lat="43.42" lon="6.1153">
        <ele>190</ele>
        <time>2015-06-10T12:02:11Z</time>
      </trkpt>
      <trkpt lat="43.42001" lon="6.11541">
        <ele>190</ele>
        <time>2015-06-10T12:02:13Z</time>
      </trkpt>
      <trkpt lat="43.42001" lon="6.11555">
        <ele>190</ele>
        <time>2015-06-10T12:02:15Z</time>
      </trkpt>
      <trkpt lat="43.42002" lon="6.11562">
        <ele>190</ele>
        <time>2015-06-10T12:02:16Z</time>
      </trkpt>
      <trkpt lat="43.42004" lon="6.11585">
        <ele>189.80000305176</ele>
        <time>2015-06-10T12:02:19Z</time>
      </trkpt>
      <trkpt lat="43.42006" lon="6.11593">
        <ele>190</ele>
        <time>2015-06-10T12:02:20Z</time>
      </trkpt>
      <trkpt lat="43.42009" lon="6.11617">
        <ele>189.80000305176</ele>
        <time>2015-06-10T12:02:23Z</time>
      </trkpt>
      <trkpt lat="43.42011" lon="6.11641">
        <ele>190</ele>
        <time>2015-06-10T12:02:26Z</time>
      </trkpt>
      <trkpt lat="43.42013" lon="6.11656">
        <ele>189.80000305176</ele>
        <time>2015-06-10T12:02:28Z</time>
      </trkpt>
      <trkpt lat="43.42015" lon="6.117">
        <ele>190.19999694824</ele>
        <time>2015-06-10T12:02:34Z</time>
      </trkpt>
      <trkpt lat="43.42016" lon="6.11733">
        <ele>190.60000610352</ele>
        <time>2015-06-10T12:02:39Z</time>
      </trkpt>
      <trkpt lat="43.42017" lon="6.11774">
        <ele>190.80000305176</ele>
        <time>2015-06-10T12:02:45Z</time>
      </trkpt>
      <trkpt lat="43.42013" lon="6.11829">
        <ele>191.39999389648</ele>
        <time>2015-06-10T12:02:53Z</time>
      </trkpt>
      <trkpt lat="43.42012" lon="6.11879">
        <ele>191.80000305176</ele>
        <time>2015-06-10T12:03:00Z</time>
      </trkpt>
      <trkpt lat="43.42007" lon="6.11933">
        <ele>192</ele>
        <time>2015-06-10T12:03:08Z</time>
      </trkpt>
      <trkpt lat="43.42002" lon="6.11972">
        <ele>192.39999389648</ele>
        <time>2015-06-10T12:03:14Z</time>
      </trkpt>
      <trkpt lat="43.42" lon="6.11978">
        <ele>192.19999694824</ele>
        <time>2015-06-10T12:03:15Z</time>
      </trkpt>
      <trkpt lat="43.42002" lon="6.11996">
        <ele>192.60000610352</ele>
        <time>2015-06-10T12:03:18Z</time>
      </trkpt>
      <trkpt lat="43.42012" lon="6.12017">
        <ele>192.60000610352</ele>
        <time>2015-06-10T12:03:22Z</time>
      </trkpt>
      <trkpt lat="43.42015" lon="6.12022">
        <ele>192.39999389648</ele>
        <time>2015-06-10T12:03:23Z</time>
      </trkpt>
      <trkpt lat="43.42025" lon="6.12038">
        <ele>192</ele>
        <time>2015-06-10T12:03:27Z</time>
      </trkpt>
      <trkpt lat="43.42026" lon="6.12041">
        <ele>192.19999694824</ele>
        <time>2015-06-10T12:03:28Z</time>
      </trkpt>
      <trkpt lat="43.42031" lon="6.12048">
        <ele>192.19999694824</ele>
        <time>2015-06-10T12:03:32Z</time>
      </trkpt>
      <trkpt lat="43.42033" lon="6.12053">
        <ele>192.19999694824</ele>
        <time>2015-06-10T12:03:34Z</time>
      </trkpt>
      <trkpt lat="43.42037" lon="6.12065">
        <ele>193.19999694824</ele>
        <time>2015-06-10T12:03:40Z</time>
      </trkpt>
      <trkpt lat="43.42039" lon="6.12078">
        <ele>193.19999694824</ele>
        <time>2015-06-10T12:03:47Z</time>
      </trkpt>
      <trkpt lat="43.42041" lon="6.1209">
        <ele>193.60000610352</ele>
        <time>2015-06-10T12:03:53Z</time>
      </trkpt>
      <trkpt lat="43.42042" lon="6.12094">
        <ele>193.80000305176</ele>
        <time>2015-06-10T12:03:55Z</time>
      </trkpt>
      <trkpt lat="43.42042" lon="6.12098">
        <ele>193.80000305176</ele>
        <time>2015-06-10T12:03:57Z</time>
      </trkpt>
      <trkpt lat="43.42043" lon="6.12112">
        <ele>194.19999694824</ele>
        <time>2015-06-10T12:04:04Z</time>
      </trkpt>
      <trkpt lat="43.42045" lon="6.12122">
        <ele>193.60000610352</ele>
        <time>2015-06-10T12:04:10Z</time>
      </trkpt>
      <trkpt lat="43.42045" lon="6.12127">
        <ele>193</ele>
        <time>2015-06-10T12:04:12Z</time>
      </trkpt>
      <trkpt lat="43.42048" lon="6.12146">
        <ele>192.80000305176</ele>
        <time>2015-06-10T12:04:18Z</time>
      </trkpt>
      <trkpt lat="43.42048" lon="6.12149">
        <ele>192.80000305176</ele>
        <time>2015-06-10T12:04:19Z</time>
      </trkpt>
      <trkpt lat="43.42046" lon="6.1217">
        <ele>193</ele>
        <time>2015-06-10T12:04:25Z</time>
      </trkpt>
      <trkpt lat="43.42043" lon="6.1219">
        <ele>193.80000305176</ele>
        <time>2015-06-10T12:04:31Z</time>
      </trkpt>
      <trkpt lat="43.42042" lon="6.12197">
        <ele>194.39999389648</ele>
        <time>2015-06-10T12:04:33Z</time>
      </trkpt>
      <trkpt lat="43.42036" lon="6.12227">
        <ele>194.39999389648</ele>
        <time>2015-06-10T12:04:41Z</time>
      </trkpt>
      <trkpt lat="43.42038" lon="6.12259">
        <ele>194.80000305176</ele>
        <time>2015-06-10T12:04:49Z</time>
      </trkpt>
      <trkpt lat="43.42046" lon="6.12289">
        <ele>194</ele>
        <time>2015-06-10T12:04:57Z</time>
      </trkpt>
      <trkpt lat="43.42057" lon="6.12307">
        <ele>193.39999389648</ele>
        <time>2015-06-10T12:05:03Z</time>
      </trkpt>
      <trkpt lat="43.42074" lon="6.12317">
        <ele>193.19999694824</ele>
        <time>2015-06-10T12:05:09Z</time>
      </trkpt>
      <trkpt lat="43.42078" lon="6.12327">
        <ele>193.19999694824</ele>
        <time>2015-06-10T12:05:13Z</time>
      </trkpt>
      <trkpt lat="43.42074" lon="6.1234">
        <ele>193</ele>
        <time>2015-06-10T12:05:17Z</time>
      </trkpt>
      <trkpt lat="43.42073" lon="6.12342">
        <ele>193</ele>
        <time>2015-06-10T12:05:18Z</time>
      </trkpt>
      <trkpt lat="43.42065" lon="6.12356">
        <ele>193.19999694824</ele>
        <time>2015-06-10T12:05:23Z</time>
      </trkpt>
      <trkpt lat="43.42056" lon="6.12367">
        <ele>193.19999694824</ele>
        <time>2015-06-10T12:05:28Z</time>
      </trkpt>
      <trkpt lat="43.42048" lon="6.12378">
        <ele>193.60000610352</ele>
        <time>2015-06-10T12:05:33Z</time>
      </trkpt>
      <trkpt lat="43.4204" lon="6.12393">
        <ele>193.39999389648</ele>
        <time>2015-06-10T12:05:38Z</time>
      </trkpt>
      <trkpt lat="43.42034" lon="6.12409">
        <ele>194.19999694824</ele>
        <time>2015-06-10T12:05:43Z</time>
      </trkpt>
      <trkpt lat="43.42034" lon="6.12413">
        <ele>194.39999389648</ele>
        <time>2015-06-10T12:05:44Z</time>
      </trkpt>
      <trkpt lat="43.4203" lon="6.12424">
        <ele>194.60000610352</ele>
        <time>2015-06-10T12:05:47Z</time>
      </trkpt>
      <trkpt lat="43.42024" lon="6.1244">
        <ele>194.60000610352</ele>
        <time>2015-06-10T12:05:52Z</time>
      </trkpt>
      <trkpt lat="43.42019" lon="6.12456">
        <ele>195.60000610352</ele>
        <time>2015-06-10T12:05:58Z</time>
      </trkpt>
      <trkpt lat="43.42019" lon="6.12459">
        <ele>195.80000305176</ele>
        <time>2015-06-10T12:05:59Z</time>
      </trkpt>
      <trkpt lat="43.42015" lon="6.12485">
        <ele>196.60000610352</ele>
        <time>2015-06-10T12:06:08Z</time>
      </trkpt>
      <trkpt lat="43.42015" lon="6.12487">
        <ele>196.80000305176</ele>
        <time>2015-06-10T12:06:09Z</time>
      </trkpt>
      <trkpt lat="43.42008" lon="6.12503">
        <ele>197.80000305176</ele>
        <time>2015-06-10T12:06:16Z</time>
      </trkpt>
      <trkpt lat="43.41999" lon="6.12518">
        <ele>198</ele>
        <time>2015-06-10T12:06:22Z</time>
      </trkpt>
      <trkpt lat="43.41988" lon="6.12536">
        <ele>197.80000305176</ele>
        <time>2015-06-10T12:06:28Z</time>
      </trkpt>
      <trkpt lat="43.41977" lon="6.12556">
        <ele>197</ele>
        <time>2015-06-10T12:06:34Z</time>
      </trkpt>
      <trkpt lat="43.41975" lon="6.12581">
        <ele>198</ele>
        <time>2015-06-10T12:06:39Z</time>
      </trkpt>
      <trkpt lat="43.41972" lon="6.12596">
        <ele>199</ele>
        <time>2015-06-10T12:06:42Z</time>
      </trkpt>
      <trkpt lat="43.41965" lon="6.1261">
        <ele>199.19999694824</ele>
        <time>2015-06-10T12:06:45Z</time>
      </trkpt>
      <trkpt lat="43.41959" lon="6.12624">
        <ele>198.39999389648</ele>
        <time>2015-06-10T12:06:48Z</time>
      </trkpt>
      <trkpt lat="43.41955" lon="6.12636">
        <ele>198</ele>
        <time>2015-06-10T12:06:50Z</time>
      </trkpt>
      <trkpt lat="43.41949" lon="6.12652">
        <ele>199.39999389648</ele>
        <time>2015-06-10T12:06:53Z</time>
      </trkpt>
      <trkpt lat="43.41938" lon="6.1268">
        <ele>199.19999694824</ele>
        <time>2015-06-10T12:06:58Z</time>
      </trkpt>
      <trkpt lat="43.41932" lon="6.12703">
        <ele>199.80000305176</ele>
        <time>2015-06-10T12:07:02Z</time>
      </trkpt>
      <trkpt lat="43.41924" lon="6.12718">
        <ele>199.19999694824</ele>
        <time>2015-06-10T12:07:05Z</time>
      </trkpt>
      <trkpt lat="43.4192" lon="6.12743">
        <ele>198.19999694824</ele>
        <time>2015-06-10T12:07:09Z</time>
      </trkpt>
      <trkpt lat="43.4192" lon="6.12749">
        <ele>198.19999694824</ele>
        <time>2015-06-10T12:07:10Z</time>
      </trkpt>
      <trkpt lat="43.4192" lon="6.12767">
        <ele>200.60000610352</ele>
        <time>2015-06-10T12:07:13Z</time>
      </trkpt>
      <trkpt lat="43.4192" lon="6.12783">
        <ele>199.80000305176</ele>
        <time>2015-06-10T12:07:16Z</time>
      </trkpt>
      <trkpt lat="43.41919" lon="6.12813">
        <ele>199.80000305176</ele>
        <time>2015-06-10T12:07:21Z</time>
      </trkpt>
      <trkpt lat="43.4192" lon="6.12824">
        <ele>199.80000305176</ele>
        <time>2015-06-10T12:07:23Z</time>
      </trkpt>
      <trkpt lat="43.41918" lon="6.12856">
        <ele>201.39999389648</ele>
        <time>2015-06-10T12:07:29Z</time>
      </trkpt>
      <trkpt lat="43.41917" lon="6.12876">
        <ele>201.60000610352</ele>
        <time>2015-06-10T12:07:33Z</time>
      </trkpt>
      <trkpt lat="43.41917" lon="6.12882">
        <ele>201.19999694824</ele>
        <time>2015-06-10T12:07:35Z</time>
      </trkpt>
      <trkpt lat="43.41917" lon="6.12888">
        <ele>201.60000610352</ele>
        <time>2015-06-10T12:07:38Z</time>
      </trkpt>
      <trkpt lat="43.41917" lon="6.12893">
        <ele>201.60000610352</ele>
        <time>2015-06-10T12:07:40Z</time>
      </trkpt>
      <trkpt lat="43.41917" lon="6.12903">
        <ele>201.19999694824</ele>
        <time>2015-06-10T12:07:44Z</time>
      </trkpt>
      <trkpt lat="43.41917" lon="6.12907">
        <ele>201.19999694824</ele>
        <time>2015-06-10T12:07:46Z</time>
      </trkpt>
      <trkpt lat="43.41917" lon="6.12918">
        <ele>202</ele>
        <time>2015-06-10T12:07:53Z</time>
      </trkpt>
      <trkpt lat="43.41916" lon="6.12917">
        <ele>201.80000305176</ele>
        <time>2015-06-10T12:07:57Z</time>
      </trkpt>
      <trkpt lat="43.41916" lon="6.12917">
        <ele>201.80000305176</ele>
        <time>2015-06-10T12:07:58Z</time>
      </trkpt>
      <trkpt lat="43.41916" lon="6.12918">
        <ele>202.60000610352</ele>
        <time>2015-06-10T12:08:02Z</time>
      </trkpt>
      <trkpt lat="43.41916" lon="6.12924">
        <ele>202.39999389648</ele>
        <time>2015-06-10T12:08:05Z</time>
      </trkpt>
      <trkpt lat="43.41915" lon="6.12933">
        <ele>202.60000610352</ele>
        <time>2015-06-10T12:08:08Z</time>
      </trkpt>
      <trkpt lat="43.41915" lon="6.12944">
        <ele>203</ele>
        <time>2015-06-10T12:08:12Z</time>
      </trkpt>
      <trkpt lat="43.4191" lon="6.12963">
        <ele>203</ele>
        <time>2015-06-10T12:08:17Z</time>
      </trkpt>
      <trkpt lat="43.41904" lon="6.12979">
        <ele>202.19999694824</ele>
        <time>2015-06-10T12:08:20Z</time>
      </trkpt>
      <trkpt lat="43.41903" lon="6.12987">
        <ele>202.39999389648</ele>
        <time>2015-06-10T12:08:22Z</time>
      </trkpt>
      <trkpt lat="43.41904" lon="6.13006">
        <ele>203.39999389648</ele>
        <time>2015-06-10T12:08:27Z</time>
      </trkpt>
      <trkpt lat="43.41899" lon="6.13024">
        <ele>204.19999694824</ele>
        <time>2015-06-10T12:08:32Z</time>
      </trkpt>
      <trkpt lat="43.41898" lon="6.1303">
        <ele>204.39999389648</ele>
        <time>2015-06-10T12:08:34Z</time>
      </trkpt>
      <trkpt lat="43.4189" lon="6.13056">
        <ele>205.60000610352</ele>
        <time>2015-06-10T12:08:41Z</time>
      </trkpt>
      <trkpt lat="43.41889" lon="6.13063">
        <ele>205.60000610352</ele>
        <time>2015-06-10T12:08:43Z</time>
      </trkpt>
      <trkpt lat="43.41887" lon="6.1309">
        <ele>206.39999389648</ele>
        <time>2015-06-10T12:08:50Z</time>
      </trkpt>
      <trkpt lat="43.41887" lon="6.13105">
        <ele>207</ele>
        <time>2015-06-10T12:08:53Z</time>
      </trkpt>
      <trkpt lat="43.41888" lon="6.13124">
        <ele>206</ele>
        <time>2015-06-10T12:08:57Z</time>
      </trkpt>
      <trkpt lat="43.41888" lon="6.13153">
        <ele>207.19999694824</ele>
        <time>2015-06-10T12:09:03Z</time>
      </trkpt>
      <trkpt lat="43.41888" lon="6.13193">
        <ele>208.19999694824</ele>
        <time>2015-06-10T12:09:11Z</time>
      </trkpt>
      <trkpt lat="43.41884" lon="6.13229">
        <ele>208.39999389648</ele>
        <time>2015-06-10T12:09:18Z</time>
      </trkpt>
      <trkpt lat="43.41882" lon="6.13241">
        <ele>208</ele>
        <time>2015-06-10T12:09:20Z</time>
      </trkpt>
      <trkpt lat="43.41876" lon="6.13263">
        <ele>208.39999389648</ele>
        <time>2015-06-10T12:09:24Z</time>
      </trkpt>
      <trkpt lat="43.41876" lon="6.13276">
        <ele>209</ele>
        <time>2015-06-10T12:09:27Z</time>
      </trkpt>
      <trkpt lat="43.41877" lon="6.13281">
        <ele>209.39999389648</ele>
        <time>2015-06-10T12:09:28Z</time>
      </trkpt>
      <trkpt lat="43.41878" lon="6.13284">
        <ele>208.19999694824</ele>
        <time>2015-06-10T12:09:29Z</time>
      </trkpt>
      <trkpt lat="43.41881" lon="6.13293">
        <ele>208</ele>
        <time>2015-06-10T12:09:32Z</time>
      </trkpt>
      <trkpt lat="43.4188" lon="6.13313">
        <ele>208.19999694824</ele>
        <time>2015-06-10T12:09:37Z</time>
      </trkpt>
      <trkpt lat="43.4188" lon="6.13337">
        <ele>208</ele>
        <time>2015-06-10T12:09:43Z</time>
      </trkpt>
      <trkpt lat="43.41889" lon="6.13357">
        <ele>209.19999694824</ele>
        <time>2015-06-10T12:09:48Z</time>
      </trkpt>
      <trkpt lat="43.41891" lon="6.13378">
        <ele>208.39999389648</ele>
        <time>2015-06-10T12:09:53Z</time>
      </trkpt>
      <trkpt lat="43.41889" lon="6.13396">
        <ele>209.39999389648</ele>
        <time>2015-06-10T12:09:58Z</time>
      </trkpt>
      <trkpt lat="43.41889" lon="6.134">
        <ele>209.80000305176</ele>
        <time>2015-06-10T12:09:59Z</time>
      </trkpt>
      <trkpt lat="43.41887" lon="6.13422">
        <ele>209</ele>
        <time>2015-06-10T12:10:04Z</time>
      </trkpt>
      <trkpt lat="43.41881" lon="6.13453">
        <ele>210</ele>
        <time>2015-06-10T12:10:12Z</time>
      </trkpt>
      <trkpt lat="43.41873" lon="6.13485">
        <ele>210.80000305176</ele>
        <time>2015-06-10T12:10:20Z</time>
      </trkpt>
      <trkpt lat="43.41867" lon="6.13524">
        <ele>211</ele>
        <time>2015-06-10T12:10:28Z</time>
      </trkpt>
      <trkpt lat="43.4186" lon="6.13555">
        <ele>211.39999389648</ele>
        <time>2015-06-10T12:10:35Z</time>
      </trkpt>
      <trkpt lat="43.4185" lon="6.13575">
        <ele>211.19999694824</ele>
        <time>2015-06-10T12:10:41Z</time>
      </trkpt>
      <trkpt lat="43.4184" lon="6.13589">
        <ele>210.60000610352</ele>
        <time>2015-06-10T12:10:45Z</time>
      </trkpt>
      <trkpt lat="43.41839" lon="6.1359">
        <ele>210.60000610352</ele>
        <time>2015-06-10T12:10:48Z</time>
      </trkpt>
      <trkpt lat="43.41835" lon="6.13602">
        <ele>211</ele>
        <time>2015-06-10T12:10:53Z</time>
      </trkpt>
      <trkpt lat="43.41829" lon="6.13619">
        <ele>212</ele>
        <time>2015-06-10T12:11:00Z</time>
      </trkpt>
      <trkpt lat="43.41828" lon="6.13635">
        <ele>212.39999389648</ele>
        <time>2015-06-10T12:11:05Z</time>
      </trkpt>
      <trkpt lat="43.41814" lon="6.13663">
        <ele>212.80000305176</ele>
        <time>2015-06-10T12:11:15Z</time>
      </trkpt>
      <trkpt lat="43.41806" lon="6.13688">
        <ele>212.80000305176</ele>
        <time>2015-06-10T12:11:22Z</time>
      </trkpt>
      <trkpt lat="43.41806" lon="6.13695">
        <ele>213.19999694824</ele>
        <time>2015-06-10T12:11:24Z</time>
      </trkpt>
      <trkpt lat="43.41805" lon="6.13705">
        <ele>213.19999694824</ele>
        <time>2015-06-10T12:11:27Z</time>
      </trkpt>
      <trkpt lat="43.41801" lon="6.13725">
        <ele>213.80000305176</ele>
        <time>2015-06-10T12:11:33Z</time>
      </trkpt>
      <trkpt lat="43.41799" lon="6.13746">
        <ele>214.19999694824</ele>
        <time>2015-06-10T12:11:39Z</time>
      </trkpt>
      <trkpt lat="43.41797" lon="6.13755">
        <ele>214.39999389648</ele>
        <time>2015-06-10T12:11:42Z</time>
      </trkpt>
      <trkpt lat="43.41794" lon="6.13767">
        <ele>215.39999389648</ele>
        <time>2015-06-10T12:11:46Z</time>
      </trkpt>
      <trkpt lat="43.41788" lon="6.13772">
        <ele>216.60000610352</ele>
        <time>2015-06-10T12:11:49Z</time>
      </trkpt>
      <trkpt lat="43.41782" lon="6.13774">
        <ele>217.80000305176</ele>
        <time>2015-06-10T12:11:53Z</time>
      </trkpt>
      <trkpt lat="43.4178" lon="6.13777">
        <ele>217.80000305176</ele>
        <time>2015-06-10T12:11:55Z</time>
      </trkpt>
      <trkpt lat="43.41776" lon="6.13789">
        <ele>218.60000610352</ele>
        <time>2015-06-10T12:12:01Z</time>
      </trkpt>
      <trkpt lat="43.41769" lon="6.13815">
        <ele>218</ele>
        <time>2015-06-10T12:12:10Z</time>
      </trkpt>
      <trkpt lat="43.41767" lon="6.13821">
        <ele>218.80000305176</ele>
        <time>2015-06-10T12:12:12Z</time>
      </trkpt>
      <trkpt lat="43.41764" lon="6.13831">
        <ele>218.60000610352</ele>
        <time>2015-06-10T12:12:16Z</time>
      </trkpt>
      <trkpt lat="43.41764" lon="6.13834">
        <ele>218.60000610352</ele>
        <time>2015-06-10T12:12:17Z</time>
      </trkpt>
      <trkpt lat="43.41759" lon="6.13848">
        <ele>218.19999694824</ele>
        <time>2015-06-10T12:12:22Z</time>
      </trkpt>
      <trkpt lat="43.41757" lon="6.13856">
        <ele>218.39999389648</ele>
        <time>2015-06-10T12:12:24Z</time>
      </trkpt>
      <trkpt lat="43.41754" lon="6.13863">
        <ele>217.60000610352</ele>
        <time>2015-06-10T12:12:26Z</time>
      </trkpt>
      <trkpt lat="43.41751" lon="6.13872">
        <ele>217.60000610352</ele>
        <time>2015-06-10T12:12:28Z</time>
      </trkpt>
      <trkpt lat="43.41748" lon="6.13883">
        <ele>216.60000610352</ele>
        <time>2015-06-10T12:12:30Z</time>
      </trkpt>
      <trkpt lat="43.41745" lon="6.1389">
        <ele>216.39999389648</ele>
        <time>2015-06-10T12:12:31Z</time>
      </trkpt>
      <trkpt lat="43.4174" lon="6.13901">
        <ele>216</ele>
        <time>2015-06-10T12:12:33Z</time>
      </trkpt>
      <trkpt lat="43.41731" lon="6.13911">
        <ele>216.19999694824</ele>
        <time>2015-06-10T12:12:36Z</time>
      </trkpt>
      <trkpt lat="43.41715" lon="6.13928">
        <ele>216.39999389648</ele>
        <time>2015-06-10T12:12:42Z</time>
      </trkpt>
      <trkpt lat="43.41704" lon="6.13949">
        <ele>217.39999389648</ele>
        <time>2015-06-10T12:12:48Z</time>
      </trkpt>
      <trkpt lat="43.41691" lon="6.13964">
        <ele>216.80000305176</ele>
        <time>2015-06-10T12:12:53Z</time>
      </trkpt>
      <trkpt lat="43.41689" lon="6.13966">
        <ele>217</ele>
        <time>2015-06-10T12:12:54Z</time>
      </trkpt>
      <trkpt lat="43.4168" lon="6.1397">
        <ele>217.80000305176</ele>
        <time>2015-06-10T12:12:58Z</time>
      </trkpt>
      <trkpt lat="43.41678" lon="6.13972">
        <ele>217.80000305176</ele>
        <time>2015-06-10T12:12:59Z</time>
      </trkpt>
      <trkpt lat="43.41669" lon="6.13988">
        <ele>218</ele>
        <time>2015-06-10T12:13:05Z</time>
      </trkpt>
      <trkpt lat="43.41662" lon="6.13998">
        <ele>218.80000305176</ele>
        <time>2015-06-10T12:13:11Z</time>
      </trkpt>
      <trkpt lat="43.41659" lon="6.14002">
        <ele>219</ele>
        <time>2015-06-10T12:13:14Z</time>
      </trkpt>
      <trkpt lat="43.41653" lon="6.1401">
        <ele>219</ele>
        <time>2015-06-10T12:13:17Z</time>
      </trkpt>
      <trkpt lat="43.4164" lon="6.14031">
        <ele>218.60000610352</ele>
        <time>2015-06-10T12:13:23Z</time>
      </trkpt>
      <trkpt lat="43.4163" lon="6.14044">
        <ele>219.60000610352</ele>
        <time>2015-06-10T12:13:28Z</time>
      </trkpt>
      <trkpt lat="43.41618" lon="6.14059">
        <ele>220.60000610352</ele>
        <time>2015-06-10T12:13:34Z</time>
      </trkpt>
      <trkpt lat="43.41612" lon="6.14065">
        <ele>221.60000610352</ele>
        <time>2015-06-10T12:13:37Z</time>
      </trkpt>
      <trkpt lat="43.41605" lon="6.1407">
        <ele>223</ele>
        <time>2015-06-10T12:13:41Z</time>
      </trkpt>
      <trkpt lat="43.41599" lon="6.1408">
        <ele>223.60000610352</ele>
        <time>2015-06-10T12:13:46Z</time>
      </trkpt>
      <trkpt lat="43.41598" lon="6.14083">
        <ele>223.39999389648</ele>
        <time>2015-06-10T12:13:47Z</time>
      </trkpt>
      <trkpt lat="43.41594" lon="6.1409">
        <ele>223.60000610352</ele>
        <time>2015-06-10T12:13:50Z</time>
      </trkpt>
      <trkpt lat="43.41588" lon="6.14099">
        <ele>224.39999389648</ele>
        <time>2015-06-10T12:13:55Z</time>
      </trkpt>
      <trkpt lat="43.41587" lon="6.14103">
        <ele>224.60000610352</ele>
        <time>2015-06-10T12:13:57Z</time>
      </trkpt>
      <trkpt lat="43.41586" lon="6.14111">
        <ele>224.80000305176</ele>
        <time>2015-06-10T12:14:01Z</time>
      </trkpt>
      <trkpt lat="43.41586" lon="6.14113">
        <ele>224.60000610352</ele>
        <time>2015-06-10T12:14:07Z</time>
      </trkpt>
      <trkpt lat="43.41586" lon="6.14113">
        <ele>224.60000610352</ele>
        <time>2015-06-10T12:14:13Z</time>
      </trkpt>
      <trkpt lat="43.41586" lon="6.14113">
        <ele>224.39999389648</ele>
        <time>2015-06-10T12:14:18Z</time>
      </trkpt>
      <trkpt lat="43.41585" lon="6.14116">
        <ele>224.39999389648</ele>
        <time>2015-06-10T12:14:23Z</time>
      </trkpt>
      <trkpt lat="43.41583" lon="6.14131">
        <ele>224.39999389648</ele>
        <time>2015-06-10T12:14:27Z</time>
      </trkpt>
      <trkpt lat="43.41584" lon="6.14139">
        <ele>223.60000610352</ele>
        <time>2015-06-10T12:14:29Z</time>
      </trkpt>
      <trkpt lat="43.41583" lon="6.14154">
        <ele>223</ele>
        <time>2015-06-10T12:14:32Z</time>
      </trkpt>
      <trkpt lat="43.41583" lon="6.14177">
        <ele>222.80000305176</ele>
        <time>2015-06-10T12:14:36Z</time>
      </trkpt>
      <trkpt lat="43.41584" lon="6.14189">
        <ele>223</ele>
        <time>2015-06-10T12:14:38Z</time>
      </trkpt>
      <trkpt lat="43.41589" lon="6.14207">
        <ele>222.39999389648</ele>
        <time>2015-06-10T12:14:41Z</time>
      </trkpt>
      <trkpt lat="43.4159" lon="6.1422">
        <ele>221.80000305176</ele>
        <time>2015-06-10T12:14:43Z</time>
      </trkpt>
      <trkpt lat="43.41586" lon="6.1424">
        <ele>221.39999389648</ele>
        <time>2015-06-10T12:14:46Z</time>
      </trkpt>
      <trkpt lat="43.41584" lon="6.14246">
        <ele>221.39999389648</ele>
        <time>2015-06-10T12:14:47Z</time>
      </trkpt>
      <trkpt lat="43.41579" lon="6.14262">
        <ele>222.39999389648</ele>
        <time>2015-06-10T12:14:50Z</time>
      </trkpt>
      <trkpt lat="43.41576" lon="6.14269">
        <ele>222.60000610352</ele>
        <time>2015-06-10T12:14:52Z</time>
      </trkpt>
      <trkpt lat="43.41573" lon="6.14287">
        <ele>222.60000610352</ele>
        <time>2015-06-10T12:14:56Z</time>
      </trkpt>
      <trkpt lat="43.41569" lon="6.14318">
        <ele>222.19999694824</ele>
        <time>2015-06-10T12:15:01Z</time>
      </trkpt>
      <trkpt lat="43.41561" lon="6.14356">
        <ele>222.39999389648</ele>
        <time>2015-06-10T12:15:08Z</time>
      </trkpt>
      <trkpt lat="43.41557" lon="6.14387">
        <ele>223.39999389648</ele>
        <time>2015-06-10T12:15:15Z</time>
      </trkpt>
      <trkpt lat="43.41552" lon="6.14408">
        <ele>224</ele>
        <time>2015-06-10T12:15:21Z</time>
      </trkpt>
      <trkpt lat="43.4155" lon="6.1442">
        <ele>224.60000610352</ele>
        <time>2015-06-10T12:15:25Z</time>
      </trkpt>
      <trkpt lat="43.41547" lon="6.14431">
        <ele>225.39999389648</ele>
        <time>2015-06-10T12:15:28Z</time>
      </trkpt>
      <trkpt lat="43.41544" lon="6.14438">
        <ele>226</ele>
        <time>2015-06-10T12:15:31Z</time>
      </trkpt>
      <trkpt lat="43.41543" lon="6.14443">
        <ele>226.39999389648</ele>
        <time>2015-06-10T12:15:33Z</time>
      </trkpt>
      <trkpt lat="43.41543" lon="6.14448">
        <ele>227</ele>
        <time>2015-06-10T12:15:35Z</time>
      </trkpt>
      <trkpt lat="43.41543" lon="6.14462">
        <ele>227.19999694824</ele>
        <time>2015-06-10T12:15:41Z</time>
      </trkpt>
      <trkpt lat="43.41544" lon="6.14465">
        <ele>227.19999694824</ele>
        <time>2015-06-10T12:15:42Z</time>
      </trkpt>
      <trkpt lat="43.41545" lon="6.14487">
        <ele>227.60000610352</ele>
        <time>2015-06-10T12:15:48Z</time>
      </trkpt>
      <trkpt lat="43.41545" lon="6.14501">
        <ele>227.39999389648</ele>
        <time>2015-06-10T12:15:53Z</time>
      </trkpt>
      <trkpt lat="43.41543" lon="6.1451">
        <ele>228.80000305176</ele>
        <time>2015-06-10T12:15:57Z</time>
      </trkpt>
      <trkpt lat="43.41544" lon="6.14514">
        <ele>229</ele>
        <time>2015-06-10T12:15:59Z</time>
      </trkpt>
      <trkpt lat="43.41544" lon="6.14522">
        <ele>229.80000305176</ele>
        <time>2015-06-10T12:16:02Z</time>
      </trkpt>
      <trkpt lat="43.41543" lon="6.14534">
        <ele>229.60000610352</ele>
        <time>2015-06-10T12:16:07Z</time>
      </trkpt>
      <trkpt lat="43.41542" lon="6.14542">
        <ele>230</ele>
        <time>2015-06-10T12:16:10Z</time>
      </trkpt>
      <trkpt lat="43.41542" lon="6.14547">
        <ele>230.80000305176</ele>
        <time>2015-06-10T12:16:12Z</time>
      </trkpt>
      <trkpt lat="43.41542" lon="6.14553">
        <ele>231.39999389648</ele>
        <time>2015-06-10T12:16:15Z</time>
      </trkpt>
      <trkpt lat="43.41541" lon="6.14562">
        <ele>231.80000305176</ele>
        <time>2015-06-10T12:16:19Z</time>
      </trkpt>
      <trkpt lat="43.41541" lon="6.14566">
        <ele>232.19999694824</ele>
        <time>2015-06-10T12:16:21Z</time>
      </trkpt>
      <trkpt lat="43.41541" lon="6.14571">
        <ele>233</ele>
        <time>2015-06-10T12:16:24Z</time>
      </trkpt>
      <trkpt lat="43.41539" lon="6.14578">
        <ele>233.39999389648</ele>
        <time>2015-06-10T12:16:28Z</time>
      </trkpt>
      <trkpt lat="43.4154" lon="6.14579">
        <ele>233.60000610352</ele>
        <time>2015-06-10T12:16:29Z</time>
      </trkpt>
      <trkpt lat="43.4154" lon="6.14586">
        <ele>234.19999694824</ele>
        <time>2015-06-10T12:16:33Z</time>
      </trkpt>
      <trkpt lat="43.4154" lon="6.14587">
        <ele>234.19999694824</ele>
        <time>2015-06-10T12:16:34Z</time>
      </trkpt>
      <trkpt lat="43.4154" lon="6.14596">
        <ele>233.80000305176</ele>
        <time>2015-06-10T12:16:39Z</time>
      </trkpt>
      <trkpt lat="43.41539" lon="6.14599">
        <ele>233.60000610352</ele>
        <time>2015-06-10T12:16:41Z</time>
      </trkpt>
      <trkpt lat="43.4154" lon="6.14605">
        <ele>234.80000305176</ele>
        <time>2015-06-10T12:16:45Z</time>
      </trkpt>
      <trkpt lat="43.4154" lon="6.14608">
        <ele>234.80000305176</ele>
        <time>2015-06-10T12:16:47Z</time>
      </trkpt>
      <trkpt lat="43.4154" lon="6.14616">
        <ele>235</ele>
        <time>2015-06-10T12:16:52Z</time>
      </trkpt>
      <trkpt lat="43.4154" lon="6.14621">
        <ele>235.19999694824</ele>
        <time>2015-06-10T12:16:55Z</time>
      </trkpt>
      <trkpt lat="43.41541" lon="6.14627">
        <ele>235.39999389648</ele>
        <time>2015-06-10T12:16:59Z</time>
      </trkpt>
      <trkpt lat="43.41541" lon="6.14629">
        <ele>235.39999389648</ele>
        <time>2015-06-10T12:17:02Z</time>
      </trkpt>
      <trkpt lat="43.41541" lon="6.14629">
        <ele>235.19999694824</ele>
        <time>2015-06-10T12:17:05Z</time>
      </trkpt>
      <trkpt lat="43.41541" lon="6.14629">
        <ele>235</ele>
        <time>2015-06-10T12:17:15Z</time>
      </trkpt>
      <trkpt lat="43.41541" lon="6.14629">
        <ele>235.19999694824</ele>
        <time>2015-06-10T12:17:21Z</time>
      </trkpt>
      <trkpt lat="43.41543" lon="6.14635">
        <ele>235</ele>
        <time>2015-06-10T12:17:32Z</time>
      </trkpt>
      <trkpt lat="43.41548" lon="6.14652">
        <ele>235.39999389648</ele>
        <time>2015-06-10T12:17:39Z</time>
      </trkpt>
      <trkpt lat="43.41557" lon="6.14671">
        <ele>234.80000305176</ele>
        <time>2015-06-10T12:17:46Z</time>
      </trkpt>
      <trkpt lat="43.41559" lon="6.14676">
        <ele>234.39999389648</ele>
        <time>2015-06-10T12:17:47Z</time>
      </trkpt>
      <trkpt lat="43.41561" lon="6.14679">
        <ele>234.19999694824</ele>
        <time>2015-06-10T12:17:48Z</time>
      </trkpt>
      <trkpt lat="43.41567" lon="6.14699">
        <ele>234</ele>
        <time>2015-06-10T12:17:52Z</time>
      </trkpt>
      <trkpt lat="43.41569" lon="6.14722">
        <ele>235</ele>
        <time>2015-06-10T12:17:58Z</time>
      </trkpt>
      <trkpt lat="43.41569" lon="6.14732">
        <ele>235.39999389648</ele>
        <time>2015-06-10T12:18:01Z</time>
      </trkpt>
      <trkpt lat="43.4157" lon="6.14745">
        <ele>236</ele>
        <time>2015-06-10T12:18:05Z</time>
      </trkpt>
      <trkpt lat="43.41566" lon="6.14762">
        <ele>236.19999694824</ele>
        <time>2015-06-10T12:18:10Z</time>
      </trkpt>
      <trkpt lat="43.41564" lon="6.14765">
        <ele>236.39999389648</ele>
        <time>2015-06-10T12:18:11Z</time>
      </trkpt>
      <trkpt lat="43.41557" lon="6.14778">
        <ele>236.80000305176</ele>
        <time>2015-06-10T12:18:17Z</time>
      </trkpt>
      <trkpt lat="43.41554" lon="6.14785">
        <ele>237.60000610352</ele>
        <time>2015-06-10T12:18:21Z</time>
      </trkpt>
      <trkpt lat="43.41552" lon="6.1479">
        <ele>238.60000610352</ele>
        <time>2015-06-10T12:18:24Z</time>
      </trkpt>
      <trkpt lat="43.41549" lon="6.14796">
        <ele>239.19999694824</ele>
        <time>2015-06-10T12:18:28Z</time>
      </trkpt>
      <trkpt lat="43.41544" lon="6.14806">
        <ele>240.19999694824</ele>
        <time>2015-06-10T12:18:35Z</time>
      </trkpt>
      <trkpt lat="43.41542" lon="6.14809">
        <ele>241</ele>
        <time>2015-06-10T12:18:37Z</time>
      </trkpt>
      <trkpt lat="43.41536" lon="6.14821">
        <ele>241.80000305176</ele>
        <time>2015-06-10T12:18:44Z</time>
      </trkpt>
      <trkpt lat="43.41535" lon="6.14822">
        <ele>242</ele>
        <time>2015-06-10T12:18:45Z</time>
      </trkpt>
      <trkpt lat="43.41535" lon="6.14823">
        <ele>242</ele>
        <time>2015-06-10T12:18:46Z</time>
      </trkpt>
      <trkpt lat="43.41533" lon="6.14828">
        <ele>242.60000610352</ele>
        <time>2015-06-10T12:18:49Z</time>
      </trkpt>
      <trkpt lat="43.4153" lon="6.1484">
        <ele>242.80000305176</ele>
        <time>2015-06-10T12:18:55Z</time>
      </trkpt>
      <trkpt lat="43.41529" lon="6.14848">
        <ele>242.80000305176</ele>
        <time>2015-06-10T12:18:58Z</time>
      </trkpt>
      <trkpt lat="43.41527" lon="6.14859">
        <ele>242.19999694824</ele>
        <time>2015-06-10T12:19:01Z</time>
      </trkpt>
      <trkpt lat="43.41526" lon="6.14879">
        <ele>240.80000305176</ele>
        <time>2015-06-10T12:19:05Z</time>
      </trkpt>
      <trkpt lat="43.41525" lon="6.1489">
        <ele>240.80000305176</ele>
        <time>2015-06-10T12:19:07Z</time>
      </trkpt>
      <trkpt lat="43.41526" lon="6.14903">
        <ele>240</ele>
        <time>2015-06-10T12:19:09Z</time>
      </trkpt>
      <trkpt lat="43.41527" lon="6.1491">
        <ele>239.60000610352</ele>
        <time>2015-06-10T12:19:10Z</time>
      </trkpt>
      <trkpt lat="43.41528" lon="6.14925">
        <ele>238.39999389648</ele>
        <time>2015-06-10T12:19:12Z</time>
      </trkpt>
      <trkpt lat="43.41527" lon="6.14939">
        <ele>238</ele>
        <time>2015-06-10T12:19:14Z</time>
      </trkpt>
      <trkpt lat="43.41527" lon="6.14956">
        <ele>238.19999694824</ele>
        <time>2015-06-10T12:19:17Z</time>
      </trkpt>
      <trkpt lat="43.41529" lon="6.1496">
        <ele>238.19999694824</ele>
        <time>2015-06-10T12:19:18Z</time>
      </trkpt>
      <trkpt lat="43.41536" lon="6.14969">
        <ele>236.80000305176</ele>
        <time>2015-06-10T12:19:20Z</time>
      </trkpt>
      <trkpt lat="43.41538" lon="6.14983">
        <ele>235.60000610352</ele>
        <time>2015-06-10T12:19:22Z</time>
      </trkpt>
      <trkpt lat="43.41538" lon="6.1499">
        <ele>235.19999694824</ele>
        <time>2015-06-10T12:19:23Z</time>
      </trkpt>
      <trkpt lat="43.41542" lon="6.15003">
        <ele>234</ele>
        <time>2015-06-10T12:19:25Z</time>
      </trkpt>
      <trkpt lat="43.41548" lon="6.15014">
        <ele>232.60000610352</ele>
        <time>2015-06-10T12:19:27Z</time>
      </trkpt>
      <trkpt lat="43.41556" lon="6.15022">
        <ele>232</ele>
        <time>2015-06-10T12:19:29Z</time>
      </trkpt>
      <trkpt lat="43.41559" lon="6.15027">
        <ele>231.80000305176</ele>
        <time>2015-06-10T12:19:30Z</time>
      </trkpt>
      <trkpt lat="43.41566" lon="6.15035">
        <ele>232.19999694824</ele>
        <time>2015-06-10T12:19:32Z</time>
      </trkpt>
      <trkpt lat="43.41577" lon="6.1504">
        <ele>232.39999389648</ele>
        <time>2015-06-10T12:19:35Z</time>
      </trkpt>
      <trkpt lat="43.41588" lon="6.15053">
        <ele>232.39999389648</ele>
        <time>2015-06-10T12:19:39Z</time>
      </trkpt>
      <trkpt lat="43.4159" lon="6.15055">
        <ele>232.60000610352</ele>
        <time>2015-06-10T12:19:40Z</time>
      </trkpt>
      <trkpt lat="43.41597" lon="6.15076">
        <ele>232.19999694824</ele>
        <time>2015-06-10T12:19:45Z</time>
      </trkpt>
      <trkpt lat="43.416" lon="6.15101">
        <ele>233.19999694824</ele>
        <time>2015-06-10T12:19:51Z</time>
      </trkpt>
      <trkpt lat="43.41605" lon="6.15121">
        <ele>233.19999694824</ele>
        <time>2015-06-10T12:19:57Z</time>
      </trkpt>
      <trkpt lat="43.41604" lon="6.1513">
        <ele>233.60000610352</ele>
        <time>2015-06-10T12:20:00Z</time>
      </trkpt>
      <trkpt lat="43.41605" lon="6.15146">
        <ele>234</ele>
        <time>2015-06-10T12:20:05Z</time>
      </trkpt>
      <trkpt lat="43.41603" lon="6.15163">
        <ele>234.60000610352</ele>
        <time>2015-06-10T12:20:11Z</time>
      </trkpt>
      <trkpt lat="43.41602" lon="6.15165">
        <ele>234.80000305176</ele>
        <time>2015-06-10T12:20:12Z</time>
      </trkpt>
      <trkpt lat="43.41592" lon="6.15181">
        <ele>235.19999694824</ele>
        <time>2015-06-10T12:20:20Z</time>
      </trkpt>
      <trkpt lat="43.41584" lon="6.15202">
        <ele>235.60000610352</ele>
        <time>2015-06-10T12:20:28Z</time>
      </trkpt>
      <trkpt lat="43.41586" lon="6.15214">
        <ele>235.60000610352</ele>
        <time>2015-06-10T12:20:32Z</time>
      </trkpt>
      <trkpt lat="43.41587" lon="6.15216">
        <ele>235.80000305176</ele>
        <time>2015-06-10T12:20:33Z</time>
      </trkpt>
      <trkpt lat="43.41589" lon="6.15232">
        <ele>236</ele>
        <time>2015-06-10T12:20:39Z</time>
      </trkpt>
      <trkpt lat="43.41591" lon="6.15253">
        <ele>236.80000305176</ele>
        <time>2015-06-10T12:20:46Z</time>
      </trkpt>
      <trkpt lat="43.41592" lon="6.15274">
        <ele>237</ele>
        <time>2015-06-10T12:20:53Z</time>
      </trkpt>
      <trkpt lat="43.41593" lon="6.1529">
        <ele>237.39999389648</ele>
        <time>2015-06-10T12:21:00Z</time>
      </trkpt>
      <trkpt lat="43.41595" lon="6.15302">
        <ele>236.80000305176</ele>
        <time>2015-06-10T12:21:05Z</time>
      </trkpt>
      <trkpt lat="43.41596" lon="6.15321">
        <ele>238</ele>
        <time>2015-06-10T12:21:10Z</time>
      </trkpt>
      <trkpt lat="43.41597" lon="6.15328">
        <ele>237.80000305176</ele>
        <time>2015-06-10T12:21:12Z</time>
      </trkpt>
      <trkpt lat="43.41597" lon="6.15344">
        <ele>239.19999694824</ele>
        <time>2015-06-10T12:21:17Z</time>
      </trkpt>
      <trkpt lat="43.41596" lon="6.1535">
        <ele>239.60000610352</ele>
        <time>2015-06-10T12:21:19Z</time>
      </trkpt>
      <trkpt lat="43.41598" lon="6.15356">
        <ele>239.80000305176</ele>
        <time>2015-06-10T12:21:21Z</time>
      </trkpt>
      <trkpt lat="43.41606" lon="6.15368">
        <ele>239.39999389648</ele>
        <time>2015-06-10T12:21:25Z</time>
      </trkpt>
      <trkpt lat="43.41613" lon="6.15378">
        <ele>238.80000305176</ele>
        <time>2015-06-10T12:21:27Z</time>
      </trkpt>
      <trkpt lat="43.41619" lon="6.15387">
        <ele>238.39999389648</ele>
        <time>2015-06-10T12:21:29Z</time>
      </trkpt>
      <trkpt lat="43.41625" lon="6.15393">
        <ele>238</ele>
        <time>2015-06-10T12:21:31Z</time>
      </trkpt>
      <trkpt lat="43.41632" lon="6.15405">
        <ele>237.60000610352</ele>
        <time>2015-06-10T12:21:34Z</time>
      </trkpt>
      <trkpt lat="43.41641" lon="6.15418">
        <ele>238.80000305176</ele>
        <time>2015-06-10T12:21:39Z</time>
      </trkpt>
      <trkpt lat="43.41643" lon="6.1542">
        <ele>238.60000610352</ele>
        <time>2015-06-10T12:21:40Z</time>
      </trkpt>
      <trkpt lat="43.41653" lon="6.15431">
        <ele>239.19999694824</ele>
        <time>2015-06-10T12:21:45Z</time>
      </trkpt>
      <trkpt lat="43.41656" lon="6.15438">
        <ele>240.19999694824</ele>
        <time>2015-06-10T12:21:48Z</time>
      </trkpt>
      <trkpt lat="43.41658" lon="6.15443">
        <ele>240.39999389648</ele>
        <time>2015-06-10T12:21:50Z</time>
      </trkpt>
      <trkpt lat="43.41668" lon="6.15475">
        <ele>241</ele>
        <time>2015-06-10T12:22:02Z</time>
      </trkpt>
      <trkpt lat="43.41673" lon="6.15494">
        <ele>240.19999694824</ele>
        <time>2015-06-10T12:22:07Z</time>
      </trkpt>
      <trkpt lat="43.41673" lon="6.15499">
        <ele>240</ele>
        <time>2015-06-10T12:22:08Z</time>
      </trkpt>
      <trkpt lat="43.41674" lon="6.15512">
        <ele>239.19999694824</ele>
        <time>2015-06-10T12:22:10Z</time>
      </trkpt>
      <trkpt lat="43.41673" lon="6.15521">
        <ele>239.60000610352</ele>
        <time>2015-06-10T12:22:12Z</time>
      </trkpt>
      <trkpt lat="43.41677" lon="6.1553">
        <ele>240.39999389648</ele>
        <time>2015-06-10T12:22:15Z</time>
      </trkpt>
      <trkpt lat="43.41678" lon="6.15531">
        <ele>240.60000610352</ele>
        <time>2015-06-10T12:22:16Z</time>
      </trkpt>
      <trkpt lat="43.41693" lon="6.15538">
        <ele>241</ele>
        <time>2015-06-10T12:22:23Z</time>
      </trkpt>
      <trkpt lat="43.41707" lon="6.15539">
        <ele>240.39999389648</ele>
        <time>2015-06-10T12:22:27Z</time>
      </trkpt>
      <trkpt lat="43.41711" lon="6.15541">
        <ele>241.19999694824</ele>
        <time>2015-06-10T12:22:30Z</time>
      </trkpt>
      <trkpt lat="43.41712" lon="6.15543">
        <ele>241.39999389648</ele>
        <time>2015-06-10T12:22:31Z</time>
      </trkpt>
      <trkpt lat="43.41713" lon="6.15545">
        <ele>241.39999389648</ele>
        <time>2015-06-10T12:22:35Z</time>
      </trkpt>
      <trkpt lat="43.41713" lon="6.15545">
        <ele>241.60000610352</ele>
        <time>2015-06-10T12:22:39Z</time>
      </trkpt>
      <trkpt lat="43.41713" lon="6.15545">
        <ele>241.39999389648</ele>
        <time>2015-06-10T12:22:43Z</time>
      </trkpt>
      <trkpt lat="43.41713" lon="6.15545">
        <ele>241.19999694824</ele>
        <time>2015-06-10T12:22:46Z</time>
      </trkpt>
      <trkpt lat="43.41714" lon="6.15547">
        <ele>241.19999694824</ele>
        <time>2015-06-10T12:22:49Z</time>
      </trkpt>
      <trkpt lat="43.4172" lon="6.1556">
        <ele>241</ele>
        <time>2015-06-10T12:22:54Z</time>
      </trkpt>
      <trkpt lat="43.41729" lon="6.15575">
        <ele>242.39999389648</ele>
        <time>2015-06-10T12:23:00Z</time>
      </trkpt>
      <trkpt lat="43.4173" lon="6.15578">
        <ele>242.39999389648</ele>
        <time>2015-06-10T12:23:01Z</time>
      </trkpt>
      <trkpt lat="43.4173" lon="6.15595">
        <ele>242.80000305176</ele>
        <time>2015-06-10T12:23:06Z</time>
      </trkpt>
      <trkpt lat="43.41729" lon="6.15615">
        <ele>243.19999694824</ele>
        <time>2015-06-10T12:23:11Z</time>
      </trkpt>
      <trkpt lat="43.41732" lon="6.15634">
        <ele>243</ele>
        <time>2015-06-10T12:23:17Z</time>
      </trkpt>
      <trkpt lat="43.41733" lon="6.15647">
        <ele>243.19999694824</ele>
        <time>2015-06-10T12:23:22Z</time>
      </trkpt>
      <trkpt lat="43.41734" lon="6.15652">
        <ele>243.60000610352</ele>
        <time>2015-06-10T12:23:24Z</time>
      </trkpt>
      <trkpt lat="43.41739" lon="6.15666">
        <ele>244.19999694824</ele>
        <time>2015-06-10T12:23:30Z</time>
      </trkpt>
      <trkpt lat="43.41745" lon="6.15681">
        <ele>244.80000305176</ele>
        <time>2015-06-10T12:23:35Z</time>
      </trkpt>
      <trkpt lat="43.41747" lon="6.15685">
        <ele>244.80000305176</ele>
        <time>2015-06-10T12:23:36Z</time>
      </trkpt>
      <trkpt lat="43.41747" lon="6.15699">
        <ele>244.80000305176</ele>
        <time>2015-06-10T12:23:40Z</time>
      </trkpt>
      <trkpt lat="43.41749" lon="6.15707">
        <ele>245.19999694824</ele>
        <time>2015-06-10T12:23:43Z</time>
      </trkpt>
      <trkpt lat="43.41751" lon="6.15719">
        <ele>246</ele>
        <time>2015-06-10T12:23:47Z</time>
      </trkpt>
      <trkpt lat="43.41753" lon="6.1573">
        <ele>247.19999694824</ele>
        <time>2015-06-10T12:23:51Z</time>
      </trkpt>
      <trkpt lat="43.41751" lon="6.15753">
        <ele>247.19999694824</ele>
        <time>2015-06-10T12:23:58Z</time>
      </trkpt>
      <trkpt lat="43.41751" lon="6.15764">
        <ele>247.80000305176</ele>
        <time>2015-06-10T12:24:03Z</time>
      </trkpt>
      <trkpt lat="43.4175" lon="6.15774">
        <ele>248.80000305176</ele>
        <time>2015-06-10T12:24:06Z</time>
      </trkpt>
      <trkpt lat="43.41751" lon="6.15781">
        <ele>249</ele>
        <time>2015-06-10T12:24:09Z</time>
      </trkpt>
      <trkpt lat="43.41753" lon="6.15792">
        <ele>249.80000305176</ele>
        <time>2015-06-10T12:24:14Z</time>
      </trkpt>
      <trkpt lat="43.41755" lon="6.15797">
        <ele>251</ele>
        <time>2015-06-10T12:24:17Z</time>
      </trkpt>
      <trkpt lat="43.41756" lon="6.15805">
        <ele>251.80000305176</ele>
        <time>2015-06-10T12:24:21Z</time>
      </trkpt>
      <trkpt lat="43.41756" lon="6.15807">
        <ele>252.19999694824</ele>
        <time>2015-06-10T12:24:22Z</time>
      </trkpt>
      <trkpt lat="43.41757" lon="6.15819">
        <ele>253.19999694824</ele>
        <time>2015-06-10T12:24:27Z</time>
      </trkpt>
      <trkpt lat="43.41758" lon="6.15822">
        <ele>253.39999389648</ele>
        <time>2015-06-10T12:24:29Z</time>
      </trkpt>
      <trkpt lat="43.41757" lon="6.1583">
        <ele>254.19999694824</ele>
        <time>2015-06-10T12:24:33Z</time>
      </trkpt>
      <trkpt lat="43.41758" lon="6.15836">
        <ele>254.60000610352</ele>
        <time>2015-06-10T12:24:36Z</time>
      </trkpt>
      <trkpt lat="43.41759" lon="6.15847">
        <ele>255.19999694824</ele>
        <time>2015-06-10T12:24:41Z</time>
      </trkpt>
      <trkpt lat="43.41761" lon="6.15855">
        <ele>255.39999389648</ele>
        <time>2015-06-10T12:24:45Z</time>
      </trkpt>
      <trkpt lat="43.41763" lon="6.1587">
        <ele>256.20001220703</ele>
        <time>2015-06-10T12:24:53Z</time>
      </trkpt>
      <trkpt lat="43.41763" lon="6.15875">
        <ele>256.20001220703</ele>
        <time>2015-06-10T12:24:59Z</time>
      </trkpt>
      <trkpt lat="43.41763" lon="6.15875">
        <ele>256.39999389648</ele>
        <time>2015-06-10T12:25:02Z</time>
      </trkpt>
      <trkpt lat="43.41763" lon="6.1588">
        <ele>256.39999389648</ele>
        <time>2015-06-10T12:25:07Z</time>
      </trkpt>
      <trkpt lat="43.41764" lon="6.15884">
        <ele>256.39999389648</ele>
        <time>2015-06-10T12:25:10Z</time>
      </trkpt>
      <trkpt lat="43.41766" lon="6.1589">
        <ele>256.39999389648</ele>
        <time>2015-06-10T12:25:13Z</time>
      </trkpt>
      <trkpt lat="43.41767" lon="6.15895">
        <ele>256.20001220703</ele>
        <time>2015-06-10T12:25:16Z</time>
      </trkpt>
      <trkpt lat="43.41769" lon="6.15907">
        <ele>256</ele>
        <time>2015-06-10T12:25:22Z</time>
      </trkpt>
      <trkpt lat="43.41771" lon="6.15914">
        <ele>256</ele>
        <time>2015-06-10T12:25:25Z</time>
      </trkpt>
      <trkpt lat="43.41774" lon="6.15925">
        <ele>255.60000610352</ele>
        <time>2015-06-10T12:25:30Z</time>
      </trkpt>
      <trkpt lat="43.41776" lon="6.1593">
        <ele>255</ele>
        <time>2015-06-10T12:25:32Z</time>
      </trkpt>
      <trkpt lat="43.41781" lon="6.15942">
        <ele>254.19999694824</ele>
        <time>2015-06-10T12:25:36Z</time>
      </trkpt>
      <trkpt lat="43.41783" lon="6.15947">
        <ele>253.80000305176</ele>
        <time>2015-06-10T12:25:37Z</time>
      </trkpt>
      <trkpt lat="43.4179" lon="6.15964">
        <ele>251.80000305176</ele>
        <time>2015-06-10T12:25:40Z</time>
      </trkpt>
      <trkpt lat="43.41791" lon="6.15971">
        <ele>250.80000305176</ele>
        <time>2015-06-10T12:25:41Z</time>
      </trkpt>
      <trkpt lat="43.41788" lon="6.15979">
        <ele>250.80000305176</ele>
        <time>2015-06-10T12:25:44Z</time>
      </trkpt>
      <trkpt lat="43.41787" lon="6.15981">
        <ele>251.19999694824</ele>
        <time>2015-06-10T12:25:45Z</time>
      </trkpt>
      <trkpt lat="43.41787" lon="6.15985">
        <ele>252.39999389648</ele>
        <time>2015-06-10T12:25:47Z</time>
      </trkpt>
      <trkpt lat="43.41787" lon="6.15987">
        <ele>253.19999694824</ele>
        <time>2015-06-10T12:25:49Z</time>
      </trkpt>
      <trkpt lat="43.41787" lon="6.15987">
        <ele>253.39999389648</ele>
        <time>2015-06-10T12:25:50Z</time>
      </trkpt>
      <trkpt lat="43.41787" lon="6.15987">
        <ele>253.39999389648</ele>
        <time>2015-06-10T12:25:51Z</time>
      </trkpt>
      <trkpt lat="43.41787" lon="6.15987">
        <ele>253.60000610352</ele>
        <time>2015-06-10T12:26:03Z</time>
      </trkpt>
      <trkpt lat="43.41786" lon="6.15987">
        <ele>253.80000305176</ele>
        <time>2015-06-10T12:26:18Z</time>
      </trkpt>
      <trkpt lat="43.41787" lon="6.15987">
        <ele>253.60000610352</ele>
        <time>2015-06-10T12:26:22Z</time>
      </trkpt>
      <trkpt lat="43.41787" lon="6.15987">
        <ele>254</ele>
        <time>2015-06-10T12:26:33Z</time>
      </trkpt>
      <trkpt lat="43.41787" lon="6.15987">
        <ele>254</ele>
        <time>2015-06-10T12:26:56Z</time>
      </trkpt>
      <trkpt lat="43.41787" lon="6.15988">
        <ele>254.19999694824</ele>
        <time>2015-06-10T12:27:10Z</time>
      </trkpt>
      <trkpt lat="43.41787" lon="6.15991">
        <ele>254.80000305176</ele>
        <time>2015-06-10T12:27:13Z</time>
      </trkpt>
      <trkpt lat="43.41787" lon="6.15993">
        <ele>254.80000305176</ele>
        <time>2015-06-10T12:27:15Z</time>
      </trkpt>
      <trkpt lat="43.41787" lon="6.16001">
        <ele>256</ele>
        <time>2015-06-10T12:27:22Z</time>
      </trkpt>
      <trkpt lat="43.41787" lon="6.16004">
        <ele>256.60000610352</ele>
        <time>2015-06-10T12:27:24Z</time>
      </trkpt>
      <trkpt lat="43.41787" lon="6.16009">
        <ele>257</ele>
        <time>2015-06-10T12:27:28Z</time>
      </trkpt>
      <trkpt lat="43.41787" lon="6.16015">
        <ele>257.79998779297</ele>
        <time>2015-06-10T12:27:33Z</time>
      </trkpt>
      <trkpt lat="43.41786" lon="6.16018">
        <ele>258.20001220703</ele>
        <time>2015-06-10T12:27:36Z</time>
      </trkpt>
      <trkpt lat="43.41787" lon="6.16022">
        <ele>258.20001220703</ele>
        <time>2015-06-10T12:27:39Z</time>
      </trkpt>
      <trkpt lat="43.41787" lon="6.16023">
        <ele>258</ele>
        <time>2015-06-10T12:27:42Z</time>
      </trkpt>
      <trkpt lat="43.41787" lon="6.16028">
        <ele>258.39999389648</ele>
        <time>2015-06-10T12:27:48Z</time>
      </trkpt>
      <trkpt lat="43.41789" lon="6.16049">
        <ele>258.39999389648</ele>
        <time>2015-06-10T12:27:56Z</time>
      </trkpt>
      <trkpt lat="43.41786" lon="6.16079">
        <ele>256.60000610352</ele>
        <time>2015-06-10T12:28:04Z</time>
      </trkpt>
      <trkpt lat="43.41789" lon="6.16093">
        <ele>255.19999694824</ele>
        <time>2015-06-10T12:28:07Z</time>
      </trkpt>
      <trkpt lat="43.41791" lon="6.16099">
        <ele>253.80000305176</ele>
        <time>2015-06-10T12:28:08Z</time>
      </trkpt>
      <trkpt lat="43.41798" lon="6.16131">
        <ele>252.80000305176</ele>
        <time>2015-06-10T12:28:12Z</time>
      </trkpt>
      <trkpt lat="43.41803" lon="6.16142">
        <ele>253.19999694824</ele>
        <time>2015-06-10T12:28:14Z</time>
      </trkpt>
      <trkpt lat="43.41803" lon="6.16146">
        <ele>253.19999694824</ele>
        <time>2015-06-10T12:28:15Z</time>
      </trkpt>
      <trkpt lat="43.41803" lon="6.1615">
        <ele>253.19999694824</ele>
        <time>2015-06-10T12:28:16Z</time>
      </trkpt>
      <trkpt lat="43.41801" lon="6.16165">
        <ele>253.39999389648</ele>
        <time>2015-06-10T12:28:19Z</time>
      </trkpt>
      <trkpt lat="43.41801" lon="6.16171">
        <ele>253.80000305176</ele>
        <time>2015-06-10T12:28:20Z</time>
      </trkpt>
      <trkpt lat="43.41805" lon="6.16193">
        <ele>253.80000305176</ele>
        <time>2015-06-10T12:28:24Z</time>
      </trkpt>
      <trkpt lat="43.41806" lon="6.16219">
        <ele>255.19999694824</ele>
        <time>2015-06-10T12:28:29Z</time>
      </trkpt>
      <trkpt lat="43.41803" lon="6.1623">
        <ele>255.19999694824</ele>
        <time>2015-06-10T12:28:31Z</time>
      </trkpt>
      <trkpt lat="43.41803" lon="6.16243">
        <ele>254.60000610352</ele>
        <time>2015-06-10T12:28:33Z</time>
      </trkpt>
      <trkpt lat="43.418" lon="6.16252">
        <ele>254.19999694824</ele>
        <time>2015-06-10T12:28:35Z</time>
      </trkpt>
      <trkpt lat="43.41794" lon="6.16257">
        <ele>255.60000610352</ele>
        <time>2015-06-10T12:28:37Z</time>
      </trkpt>
      <trkpt lat="43.41788" lon="6.16262">
        <ele>256</ele>
        <time>2015-06-10T12:28:39Z</time>
      </trkpt>
      <trkpt lat="43.41785" lon="6.16271">
        <ele>255.80000305176</ele>
        <time>2015-06-10T12:28:41Z</time>
      </trkpt>
      <trkpt lat="43.41785" lon="6.16276">
        <ele>255.80000305176</ele>
        <time>2015-06-10T12:28:42Z</time>
      </trkpt>
      <trkpt lat="43.41785" lon="6.16285">
        <ele>256.20001220703</ele>
        <time>2015-06-10T12:28:44Z</time>
      </trkpt>
      <trkpt lat="43.41784" lon="6.16292">
        <ele>256.39999389648</ele>
        <time>2015-06-10T12:28:46Z</time>
      </trkpt>
      <trkpt lat="43.41784" lon="6.16296">
        <ele>256.60000610352</ele>
        <time>2015-06-10T12:28:47Z</time>
      </trkpt>
      <trkpt lat="43.41783" lon="6.16306">
        <ele>257.39999389648</ele>
        <time>2015-06-10T12:28:50Z</time>
      </trkpt>
      <trkpt lat="43.41782" lon="6.16319">
        <ele>258</ele>
        <time>2015-06-10T12:28:55Z</time>
      </trkpt>
      <trkpt lat="43.41781" lon="6.16323">
        <ele>258.60000610352</ele>
        <time>2015-06-10T12:28:57Z</time>
      </trkpt>
      <trkpt lat="43.41779" lon="6.1633">
        <ele>259.60000610352</ele>
        <time>2015-06-10T12:29:01Z</time>
      </trkpt>
      <trkpt lat="43.41779" lon="6.16332">
        <ele>259.60000610352</ele>
        <time>2015-06-10T12:29:02Z</time>
      </trkpt>
      <trkpt lat="43.41778" lon="6.16334">
        <ele>259.79998779297</ele>
        <time>2015-06-10T12:29:03Z</time>
      </trkpt>
      <trkpt lat="43.41778" lon="6.16342">
        <ele>261</ele>
        <time>2015-06-10T12:29:07Z</time>
      </trkpt>
      <trkpt lat="43.41777" lon="6.16348">
        <ele>261.60000610352</ele>
        <time>2015-06-10T12:29:10Z</time>
      </trkpt>
      <trkpt lat="43.41777" lon="6.16353">
        <ele>262.20001220703</ele>
        <time>2015-06-10T12:29:13Z</time>
      </trkpt>
      <trkpt lat="43.41776" lon="6.16357">
        <ele>263.20001220703</ele>
        <time>2015-06-10T12:29:16Z</time>
      </trkpt>
      <trkpt lat="43.41774" lon="6.16365">
        <ele>264.39999389648</ele>
        <time>2015-06-10T12:29:21Z</time>
      </trkpt>
      <trkpt lat="43.41772" lon="6.16372">
        <ele>265.39999389648</ele>
        <time>2015-06-10T12:29:25Z</time>
      </trkpt>
      <trkpt lat="43.41769" lon="6.16387">
        <ele>266.20001220703</ele>
        <time>2015-06-10T12:29:33Z</time>
      </trkpt>
      <trkpt lat="43.41765" lon="6.16407">
        <ele>266.39999389648</ele>
        <time>2015-06-10T12:29:41Z</time>
      </trkpt>
      <trkpt lat="43.41769" lon="6.16421">
        <ele>266.20001220703</ele>
        <time>2015-06-10T12:29:47Z</time>
      </trkpt>
      <trkpt lat="43.41769" lon="6.16426">
        <ele>266.20001220703</ele>
        <time>2015-06-10T12:29:49Z</time>
      </trkpt>
      <trkpt lat="43.41768" lon="6.16435">
        <ele>265.39999389648</ele>
        <time>2015-06-10T12:29:51Z</time>
      </trkpt>
      <trkpt lat="43.41769" lon="6.16443">
        <ele>264.79998779297</ele>
        <time>2015-06-10T12:29:53Z</time>
      </trkpt>
      <trkpt lat="43.41769" lon="6.16451">
        <ele>263.79998779297</ele>
        <time>2015-06-10T12:29:55Z</time>
      </trkpt>
      <trkpt lat="43.4177" lon="6.16455">
        <ele>263.20001220703</ele>
        <time>2015-06-10T12:29:56Z</time>
      </trkpt>
      <trkpt lat="43.41774" lon="6.16462">
        <ele>261.60000610352</ele>
        <time>2015-06-10T12:29:58Z</time>
      </trkpt>
      <trkpt lat="43.41778" lon="6.16465">
        <ele>260.60000610352</ele>
        <time>2015-06-10T12:29:59Z</time>
      </trkpt>
      <trkpt lat="43.41781" lon="6.16468">
        <ele>259.79998779297</ele>
        <time>2015-06-10T12:30:00Z</time>
      </trkpt>
      <trkpt lat="43.41784" lon="6.16473">
        <ele>258.79998779297</ele>
        <time>2015-06-10T12:30:01Z</time>
      </trkpt>
      <trkpt lat="43.41786" lon="6.16487">
        <ele>258.60000610352</ele>
        <time>2015-06-10T12:30:03Z</time>
      </trkpt>
      <trkpt lat="43.41782" lon="6.16499">
        <ele>259.79998779297</ele>
        <time>2015-06-10T12:30:06Z</time>
      </trkpt>
      <trkpt lat="43.4178" lon="6.16507">
        <ele>261.20001220703</ele>
        <time>2015-06-10T12:30:09Z</time>
      </trkpt>
      <trkpt lat="43.4178" lon="6.16514">
        <ele>261</ele>
        <time>2015-06-10T12:30:11Z</time>
      </trkpt>
      <trkpt lat="43.4178" lon="6.16531">
        <ele>261.60000610352</ele>
        <time>2015-06-10T12:30:17Z</time>
      </trkpt>
      <trkpt lat="43.4178" lon="6.16547">
        <ele>262.20001220703</ele>
        <time>2015-06-10T12:30:22Z</time>
      </trkpt>
      <trkpt lat="43.41781" lon="6.1656">
        <ele>262.60000610352</ele>
        <time>2015-06-10T12:30:26Z</time>
      </trkpt>
      <trkpt lat="43.41782" lon="6.16573">
        <ele>263.20001220703</ele>
        <time>2015-06-10T12:30:31Z</time>
      </trkpt>
      <trkpt lat="43.41786" lon="6.16584">
        <ele>264.39999389648</ele>
        <time>2015-06-10T12:30:35Z</time>
      </trkpt>
      <trkpt lat="43.41789" lon="6.16601">
        <ele>265</ele>
        <time>2015-06-10T12:30:41Z</time>
      </trkpt>
      <trkpt lat="43.41789" lon="6.16609">
        <ele>265.39999389648</ele>
        <time>2015-06-10T12:30:43Z</time>
      </trkpt>
      <trkpt lat="43.4179" lon="6.16625">
        <ele>265.20001220703</ele>
        <time>2015-06-10T12:30:47Z</time>
      </trkpt>
      <trkpt lat="43.41791" lon="6.16656">
        <ele>266.79998779297</ele>
        <time>2015-06-10T12:30:55Z</time>
      </trkpt>
      <trkpt lat="43.41793" lon="6.16685">
        <ele>267.60000610352</ele>
        <time>2015-06-10T12:31:03Z</time>
      </trkpt>
      <trkpt lat="43.41793" lon="6.16688">
        <ele>267.79998779297</ele>
        <time>2015-06-10T12:31:04Z</time>
      </trkpt>
      <trkpt lat="43.41792" lon="6.16705">
        <ele>268</ele>
        <time>2015-06-10T12:31:09Z</time>
      </trkpt>
      <trkpt lat="43.41792" lon="6.16719">
        <ele>268.79998779297</ele>
        <time>2015-06-10T12:31:13Z</time>
      </trkpt>
      <trkpt lat="43.41792" lon="6.16725">
        <ele>269.20001220703</ele>
        <time>2015-06-10T12:31:15Z</time>
      </trkpt>
      <trkpt lat="43.41789" lon="6.16745">
        <ele>269.39999389648</ele>
        <time>2015-06-10T12:31:21Z</time>
      </trkpt>
      <trkpt lat="43.41789" lon="6.16767">
        <ele>270.20001220703</ele>
        <time>2015-06-10T12:31:27Z</time>
      </trkpt>
      <trkpt lat="43.41792" lon="6.16797">
        <ele>270.79998779297</ele>
        <time>2015-06-10T12:31:35Z</time>
      </trkpt>
      <trkpt lat="43.41793" lon="6.16807">
        <ele>271.39999389648</ele>
        <time>2015-06-10T12:31:38Z</time>
      </trkpt>
      <trkpt lat="43.41792" lon="6.16823">
        <ele>271.79998779297</ele>
        <time>2015-06-10T12:31:42Z</time>
      </trkpt>
      <trkpt lat="43.41793" lon="6.16856">
        <ele>272.39999389648</ele>
        <time>2015-06-10T12:31:51Z</time>
      </trkpt>
      <trkpt lat="43.41793" lon="6.16877">
        <ele>273.39999389648</ele>
        <time>2015-06-10T12:31:57Z</time>
      </trkpt>
      <trkpt lat="43.41793" lon="6.16905">
        <ele>272.20001220703</ele>
        <time>2015-06-10T12:32:03Z</time>
      </trkpt>
      <trkpt lat="43.41791" lon="6.16926">
        <ele>272.39999389648</ele>
        <time>2015-06-10T12:32:07Z</time>
      </trkpt>
      <trkpt lat="43.41792" lon="6.16949">
        <ele>272.79998779297</ele>
        <time>2015-06-10T12:32:12Z</time>
      </trkpt>
      <trkpt lat="43.41795" lon="6.16968">
        <ele>273.39999389648</ele>
        <time>2015-06-10T12:32:17Z</time>
      </trkpt>
      <trkpt lat="43.41794" lon="6.16972">
        <ele>273.79998779297</ele>
        <time>2015-06-10T12:32:18Z</time>
      </trkpt>
      <trkpt lat="43.41794" lon="6.16984">
        <ele>274.60000610352</ele>
        <time>2015-06-10T12:32:21Z</time>
      </trkpt>
      <trkpt lat="43.41793" lon="6.16993">
        <ele>274.79998779297</ele>
        <time>2015-06-10T12:32:23Z</time>
      </trkpt>
      <trkpt lat="43.4179" lon="6.17021">
        <ele>275.79998779297</ele>
        <time>2015-06-10T12:32:30Z</time>
      </trkpt>
      <trkpt lat="43.41787" lon="6.1705">
        <ele>274.79998779297</ele>
        <time>2015-06-10T12:32:36Z</time>
      </trkpt>
      <trkpt lat="43.41787" lon="6.17055">
        <ele>274.60000610352</ele>
        <time>2015-06-10T12:32:37Z</time>
      </trkpt>
      <trkpt lat="43.41788" lon="6.17108">
        <ele>276.60000610352</ele>
        <time>2015-06-10T12:32:49Z</time>
      </trkpt>
      <trkpt lat="43.41788" lon="6.17135">
        <ele>276.79998779297</ele>
        <time>2015-06-10T12:32:55Z</time>
      </trkpt>
      <trkpt lat="43.4179" lon="6.17148">
        <ele>277.20001220703</ele>
        <time>2015-06-10T12:32:58Z</time>
      </trkpt>
      <trkpt lat="43.41798" lon="6.17189">
        <ele>277.79998779297</ele>
        <time>2015-06-10T12:33:08Z</time>
      </trkpt>
      <trkpt lat="43.41798" lon="6.17208">
        <ele>278.20001220703</ele>
        <time>2015-06-10T12:33:12Z</time>
      </trkpt>
      <trkpt lat="43.418" lon="6.17217">
        <ele>278.79998779297</ele>
        <time>2015-06-10T12:33:14Z</time>
      </trkpt>
      <trkpt lat="43.41802" lon="6.17247">
        <ele>280</ele>
        <time>2015-06-10T12:33:22Z</time>
      </trkpt>
      <trkpt lat="43.41803" lon="6.17251">
        <ele>280.20001220703</ele>
        <time>2015-06-10T12:33:23Z</time>
      </trkpt>
      <trkpt lat="43.41804" lon="6.17276">
        <ele>281.20001220703</ele>
        <time>2015-06-10T12:33:30Z</time>
      </trkpt>
      <trkpt lat="43.41806" lon="6.173">
        <ele>281.79998779297</ele>
        <time>2015-06-10T12:33:36Z</time>
      </trkpt>
      <trkpt lat="43.41806" lon="6.17335">
        <ele>281.20001220703</ele>
        <time>2015-06-10T12:33:43Z</time>
      </trkpt>
      <trkpt lat="43.41811" lon="6.17359">
        <ele>281.79998779297</ele>
        <time>2015-06-10T12:33:48Z</time>
      </trkpt>
      <trkpt lat="43.41813" lon="6.17382">
        <ele>282</ele>
        <time>2015-06-10T12:33:53Z</time>
      </trkpt>
      <trkpt lat="43.41816" lon="6.17398">
        <ele>282.60000610352</ele>
        <time>2015-06-10T12:33:57Z</time>
      </trkpt>
      <trkpt lat="43.4182" lon="6.17409">
        <ele>283.20001220703</ele>
        <time>2015-06-10T12:34:00Z</time>
      </trkpt>
      <trkpt lat="43.41822" lon="6.17423">
        <ele>283.60000610352</ele>
        <time>2015-06-10T12:34:04Z</time>
      </trkpt>
      <trkpt lat="43.41821" lon="6.1743">
        <ele>283.60000610352</ele>
        <time>2015-06-10T12:34:06Z</time>
      </trkpt>
      <trkpt lat="43.41819" lon="6.17456">
        <ele>283.79998779297</ele>
        <time>2015-06-10T12:34:13Z</time>
      </trkpt>
      <trkpt lat="43.41819" lon="6.17478">
        <ele>284.60000610352</ele>
        <time>2015-06-10T12:34:20Z</time>
      </trkpt>
      <trkpt lat="43.41818" lon="6.1748">
        <ele>284.79998779297</ele>
        <time>2015-06-10T12:34:21Z</time>
      </trkpt>
      <trkpt lat="43.41817" lon="6.17494">
        <ele>285.39999389648</ele>
        <time>2015-06-10T12:34:26Z</time>
      </trkpt>
      <trkpt lat="43.41816" lon="6.17499">
        <ele>285.20001220703</ele>
        <time>2015-06-10T12:34:29Z</time>
      </trkpt>
      <trkpt lat="43.41816" lon="6.17507">
        <ele>286</ele>
        <time>2015-06-10T12:34:34Z</time>
      </trkpt>
      <trkpt lat="43.41816" lon="6.17508">
        <ele>286.20001220703</ele>
        <time>2015-06-10T12:34:35Z</time>
      </trkpt>
      <trkpt lat="43.41817" lon="6.17509">
        <ele>286.20001220703</ele>
        <time>2015-06-10T12:34:36Z</time>
      </trkpt>
      <trkpt lat="43.41816" lon="6.17508">
        <ele>285.79998779297</ele>
        <time>2015-06-10T12:34:40Z</time>
      </trkpt>
      <trkpt lat="43.41816" lon="6.17508">
        <ele>285.60000610352</ele>
        <time>2015-06-10T12:34:46Z</time>
      </trkpt>
      <trkpt lat="43.41816" lon="6.17508">
        <ele>285.60000610352</ele>
        <time>2015-06-10T12:34:51Z</time>
      </trkpt>
      <trkpt lat="43.41816" lon="6.17508">
        <ele>285.60000610352</ele>
        <time>2015-06-10T12:35:31Z</time>
      </trkpt>
      <trkpt lat="43.41816" lon="6.17508">
        <ele>286.20001220703</ele>
        <time>2015-06-10T12:36:55Z</time>
      </trkpt>
      <trkpt lat="43.41816" lon="6.17508">
        <ele>285.60000610352</ele>
        <time>2015-06-10T12:37:25Z</time>
      </trkpt>
      <trkpt lat="43.41816" lon="6.17508">
        <ele>285.60000610352</ele>
        <time>2015-06-10T12:38:01Z</time>
      </trkpt>
      <trkpt lat="43.41816" lon="6.17507">
        <ele>285.79998779297</ele>
        <time>2015-06-10T12:38:19Z</time>
      </trkpt>
      <trkpt lat="43.41816" lon="6.17507">
        <ele>286.20001220703</ele>
        <time>2015-06-10T12:40:19Z</time>
      </trkpt>
      <trkpt lat="43.41816" lon="6.17508">
        <ele>286.79998779297</ele>
        <time>2015-06-10T12:40:53Z</time>
      </trkpt>
      <trkpt lat="43.41817" lon="6.17512">
        <ele>287.20001220703</ele>
        <time>2015-06-10T12:40:56Z</time>
      </trkpt>
      <trkpt lat="43.41817" lon="6.17513">
        <ele>287.20001220703</ele>
        <time>2015-06-10T12:40:57Z</time>
      </trkpt>
      <trkpt lat="43.41817" lon="6.17517">
        <ele>287.20001220703</ele>
        <time>2015-06-10T12:40:59Z</time>
      </trkpt>
      <trkpt lat="43.41821" lon="6.17524">
        <ele>287.60000610352</ele>
        <time>2015-06-10T12:41:04Z</time>
      </trkpt>
      <trkpt lat="43.41822" lon="6.17526">
        <ele>287.60000610352</ele>
        <time>2015-06-10T12:41:05Z</time>
      </trkpt>
      <trkpt lat="43.41824" lon="6.17527">
        <ele>287.60000610352</ele>
        <time>2015-06-10T12:41:06Z</time>
      </trkpt>
      <trkpt lat="43.4183" lon="6.17529">
        <ele>288.20001220703</ele>
        <time>2015-06-10T12:41:10Z</time>
      </trkpt>
      <trkpt lat="43.41833" lon="6.1753">
        <ele>288.39999389648</ele>
        <time>2015-06-10T12:41:12Z</time>
      </trkpt>
      <trkpt lat="43.41843" lon="6.17533">
        <ele>289.60000610352</ele>
        <time>2015-06-10T12:41:19Z</time>
      </trkpt>
      <trkpt lat="43.41846" lon="6.17533">
        <ele>290</ele>
        <time>2015-06-10T12:41:21Z</time>
      </trkpt>
      <trkpt lat="43.41849" lon="6.17534">
        <ele>290.60000610352</ele>
        <time>2015-06-10T12:41:23Z</time>
      </trkpt>
      <trkpt lat="43.41855" lon="6.17534">
        <ele>291.39999389648</ele>
        <time>2015-06-10T12:41:27Z</time>
      </trkpt>
      <trkpt lat="43.41856" lon="6.17534">
        <ele>292</ele>
        <time>2015-06-10T12:41:28Z</time>
      </trkpt>
      <trkpt lat="43.41858" lon="6.17533">
        <ele>292.20001220703</ele>
        <time>2015-06-10T12:41:29Z</time>
      </trkpt>
      <trkpt lat="43.41862" lon="6.17533">
        <ele>292.60000610352</ele>
        <time>2015-06-10T12:41:32Z</time>
      </trkpt>
      <trkpt lat="43.41863" lon="6.17533">
        <ele>293</ele>
        <time>2015-06-10T12:41:33Z</time>
      </trkpt>
      <trkpt lat="43.41865" lon="6.17532">
        <ele>293.20001220703</ele>
        <time>2015-06-10T12:41:35Z</time>
      </trkpt>
      <trkpt lat="43.41869" lon="6.17531">
        <ele>294.20001220703</ele>
        <time>2015-06-10T12:41:39Z</time>
      </trkpt>
      <trkpt lat="43.41874" lon="6.1753">
        <ele>294.39999389648</ele>
        <time>2015-06-10T12:41:43Z</time>
      </trkpt>
      <trkpt lat="43.41879" lon="6.17529">
        <ele>294.79998779297</ele>
        <time>2015-06-10T12:41:51Z</time>
      </trkpt>
      <trkpt lat="43.4188" lon="6.17529">
        <ele>295.39999389648</ele>
        <time>2015-06-10T12:41:54Z</time>
      </trkpt>
      <trkpt lat="43.41882" lon="6.1753">
        <ele>296</ele>
        <time>2015-06-10T12:41:58Z</time>
      </trkpt>
      <trkpt lat="43.41885" lon="6.17529">
        <ele>296.39999389648</ele>
        <time>2015-06-10T12:42:05Z</time>
      </trkpt>
      <trkpt lat="43.41888" lon="6.17529">
        <ele>297</ele>
        <time>2015-06-10T12:42:12Z</time>
      </trkpt>
      <trkpt lat="43.4189" lon="6.17529">
        <ele>297.39999389648</ele>
        <time>2015-06-10T12:42:16Z</time>
      </trkpt>
      <trkpt lat="43.41892" lon="6.1753">
        <ele>298.60000610352</ele>
        <time>2015-06-10T12:42:21Z</time>
      </trkpt>
      <trkpt lat="43.41893" lon="6.1753">
        <ele>298.60000610352</ele>
        <time>2015-06-10T12:42:24Z</time>
      </trkpt>
      <trkpt lat="43.41893" lon="6.1753">
        <ele>298.20001220703</ele>
        <time>2015-06-10T12:42:29Z</time>
      </trkpt>
      <trkpt lat="43.41893" lon="6.1753">
        <ele>298.39999389648</ele>
        <time>2015-06-10T12:42:33Z</time>
      </trkpt>
      <trkpt lat="43.41894" lon="6.1753">
        <ele>298.60000610352</ele>
        <time>2015-06-10T12:42:42Z</time>
      </trkpt>
      <trkpt lat="43.41895" lon="6.1753">
        <ele>298.60000610352</ele>
        <time>2015-06-10T12:42:49Z</time>
      </trkpt>
      <trkpt lat="43.41895" lon="6.1753">
        <ele>298.39999389648</ele>
        <time>2015-06-10T12:42:53Z</time>
      </trkpt>
      <trkpt lat="43.41895" lon="6.17531">
        <ele>298.39999389648</ele>
        <time>2015-06-10T12:43:00Z</time>
      </trkpt>
      <trkpt lat="43.41898" lon="6.17531">
        <ele>298.60000610352</ele>
        <time>2015-06-10T12:43:03Z</time>
      </trkpt>
      <trkpt lat="43.41899" lon="6.17532">
        <ele>298.60000610352</ele>
        <time>2015-06-10T12:43:07Z</time>
      </trkpt>
      <trkpt lat="43.41899" lon="6.17532">
        <ele>298.39999389648</ele>
        <time>2015-06-10T12:43:10Z</time>
      </trkpt>
      <trkpt lat="43.41899" lon="6.17532">
        <ele>298.79998779297</ele>
        <time>2015-06-10T12:43:20Z</time>
      </trkpt>
      <trkpt lat="43.41899" lon="6.17532">
        <ele>299</ele>
        <time>2015-06-10T12:43:26Z</time>
      </trkpt>
      <trkpt lat="43.41899" lon="6.17532">
        <ele>298.79998779297</ele>
        <time>2015-06-10T12:43:33Z</time>
      </trkpt>
      <trkpt lat="43.41904" lon="6.17533">
        <ele>298.79998779297</ele>
        <time>2015-06-10T12:43:37Z</time>
      </trkpt>
      <trkpt lat="43.41905" lon="6.17534">
        <ele>298.60000610352</ele>
        <time>2015-06-10T12:43:38Z</time>
      </trkpt>
      <trkpt lat="43.41912" lon="6.17534">
        <ele>298.39999389648</ele>
        <time>2015-06-10T12:43:41Z</time>
      </trkpt>
      <trkpt lat="43.41924" lon="6.17535">
        <ele>297.79998779297</ele>
        <time>2015-06-10T12:43:48Z</time>
      </trkpt>
      <trkpt lat="43.4193" lon="6.17535">
        <ele>298.20001220703</ele>
        <time>2015-06-10T12:43:51Z</time>
      </trkpt>
      <trkpt lat="43.41944" lon="6.17532">
        <ele>299</ele>
        <time>2015-06-10T12:43:58Z</time>
      </trkpt>
      <trkpt lat="43.41956" lon="6.17529">
        <ele>299.79998779297</ele>
        <time>2015-06-10T12:44:04Z</time>
      </trkpt>
      <trkpt lat="43.41962" lon="6.17528">
        <ele>300.60000610352</ele>
        <time>2015-06-10T12:44:07Z</time>
      </trkpt>
      <trkpt lat="43.41965" lon="6.17527">
        <ele>300.79998779297</ele>
        <time>2015-06-10T12:44:09Z</time>
      </trkpt>
      <trkpt lat="43.41969" lon="6.17527">
        <ele>301.20001220703</ele>
        <time>2015-06-10T12:44:11Z</time>
      </trkpt>
      <trkpt lat="43.41975" lon="6.17528">
        <ele>302</ele>
        <time>2015-06-10T12:44:14Z</time>
      </trkpt>
      <trkpt lat="43.41978" lon="6.17529">
        <ele>303</ele>
        <time>2015-06-10T12:44:16Z</time>
      </trkpt>
      <trkpt lat="43.4198" lon="6.17529">
        <ele>303.39999389648</ele>
        <time>2015-06-10T12:44:18Z</time>
      </trkpt>
      <trkpt lat="43.41986" lon="6.17529">
        <ele>303.39999389648</ele>
        <time>2015-06-10T12:44:21Z</time>
      </trkpt>
      <trkpt lat="43.41989" lon="6.17528">
        <ele>303.79998779297</ele>
        <time>2015-06-10T12:44:23Z</time>
      </trkpt>
      <trkpt lat="43.41994" lon="6.17527">
        <ele>304.20001220703</ele>
        <time>2015-06-10T12:44:26Z</time>
      </trkpt>
      <trkpt lat="43.41999" lon="6.17525">
        <ele>305.20001220703</ele>
        <time>2015-06-10T12:44:30Z</time>
      </trkpt>
      <trkpt lat="43.42009" lon="6.17524">
        <ele>306.60000610352</ele>
        <time>2015-06-10T12:44:37Z</time>
      </trkpt>
      <trkpt lat="43.42012" lon="6.17524">
        <ele>307.79998779297</ele>
        <time>2015-06-10T12:44:39Z</time>
      </trkpt>
      <trkpt lat="43.42016" lon="6.17523">
        <ele>309</ele>
        <time>2015-06-10T12:44:43Z</time>
      </trkpt>
      <trkpt lat="43.42018" lon="6.17524">
        <ele>309.79998779297</ele>
        <time>2015-06-10T12:44:45Z</time>
      </trkpt>
      <trkpt lat="43.42016" lon="6.17524">
        <ele>309.60000610352</ele>
        <time>2015-06-10T12:44:47Z</time>
      </trkpt>
      <trkpt lat="43.42019" lon="6.17521">
        <ele>309.39999389648</ele>
        <time>2015-06-10T12:44:53Z</time>
      </trkpt>
      <trkpt lat="43.42021" lon="6.17518">
        <ele>310</ele>
        <time>2015-06-10T12:44:57Z</time>
      </trkpt>
      <trkpt lat="43.42021" lon="6.17518">
        <ele>310.20001220703</ele>
        <time>2015-06-10T12:44:59Z</time>
      </trkpt>
      <trkpt lat="43.4202" lon="6.17518">
        <ele>310.20001220703</ele>
        <time>2015-06-10T12:45:00Z</time>
      </trkpt>
      <trkpt lat="43.42024" lon="6.1751">
        <ele>310.20001220703</ele>
        <time>2015-06-10T12:45:06Z</time>
      </trkpt>
      <trkpt lat="43.42027" lon="6.17503">
        <ele>310</ele>
        <time>2015-06-10T12:45:10Z</time>
      </trkpt>
      <trkpt lat="43.4203" lon="6.17493">
        <ele>310.79998779297</ele>
        <time>2015-06-10T12:45:16Z</time>
      </trkpt>
      <trkpt lat="43.42035" lon="6.17482">
        <ele>311.79998779297</ele>
        <time>2015-06-10T12:45:23Z</time>
      </trkpt>
      <trkpt lat="43.42041" lon="6.17468">
        <ele>313</ele>
        <time>2015-06-10T12:45:31Z</time>
      </trkpt>
      <trkpt lat="43.42046" lon="6.17456">
        <ele>313.79998779297</ele>
        <time>2015-06-10T12:45:38Z</time>
      </trkpt>
      <trkpt lat="43.42047" lon="6.1745">
        <ele>314.20001220703</ele>
        <time>2015-06-10T12:45:41Z</time>
      </trkpt>
      <trkpt lat="43.42049" lon="6.17444">
        <ele>314.60000610352</ele>
        <time>2015-06-10T12:45:44Z</time>
      </trkpt>
      <trkpt lat="43.42053" lon="6.17432">
        <ele>315.39999389648</ele>
        <time>2015-06-10T12:45:49Z</time>
      </trkpt>
      <trkpt lat="43.42059" lon="6.17412">
        <ele>316.20001220703</ele>
        <time>2015-06-10T12:45:57Z</time>
      </trkpt>
      <trkpt lat="43.42065" lon="6.17392">
        <ele>316.60000610352</ele>
        <time>2015-06-10T12:46:04Z</time>
      </trkpt>
      <trkpt lat="43.42071" lon="6.17372">
        <ele>317.39999389648</ele>
        <time>2015-06-10T12:46:11Z</time>
      </trkpt>
      <trkpt lat="43.42072" lon="6.17364">
        <ele>317.39999389648</ele>
        <time>2015-06-10T12:46:13Z</time>
      </trkpt>
      <trkpt lat="43.42075" lon="6.17345">
        <ele>318</ele>
        <time>2015-06-10T12:46:18Z</time>
      </trkpt>
      <trkpt lat="43.42078" lon="6.17322">
        <ele>318.39999389648</ele>
        <time>2015-06-10T12:46:24Z</time>
      </trkpt>
      <trkpt lat="43.42079" lon="6.17318">
        <ele>318.39999389648</ele>
        <time>2015-06-10T12:46:25Z</time>
      </trkpt>
      <trkpt lat="43.42081" lon="6.17298">
        <ele>318.60000610352</ele>
        <time>2015-06-10T12:46:30Z</time>
      </trkpt>
      <trkpt lat="43.42081" lon="6.17282">
        <ele>318.39999389648</ele>
        <time>2015-06-10T12:46:34Z</time>
      </trkpt>
      <trkpt lat="43.42083" lon="6.17251">
        <ele>318.20001220703</ele>
        <time>2015-06-10T12:46:43Z</time>
      </trkpt>
      <trkpt lat="43.42088" lon="6.17223">
        <ele>318.20001220703</ele>
        <time>2015-06-10T12:46:50Z</time>
      </trkpt>
      <trkpt lat="43.42094" lon="6.17184">
        <ele>318</ele>
        <time>2015-06-10T12:46:58Z</time>
      </trkpt>
      <trkpt lat="43.42099" lon="6.17149">
        <ele>318.39999389648</ele>
        <time>2015-06-10T12:47:05Z</time>
      </trkpt>
      <trkpt lat="43.42105" lon="6.17113">
        <ele>319</ele>
        <time>2015-06-10T12:47:12Z</time>
      </trkpt>
      <trkpt lat="43.42113" lon="6.17064">
        <ele>318.60000610352</ele>
        <time>2015-06-10T12:47:21Z</time>
      </trkpt>
      <trkpt lat="43.42117" lon="6.1704">
        <ele>319</ele>
        <time>2015-06-10T12:47:25Z</time>
      </trkpt>
      <trkpt lat="43.42121" lon="6.17016">
        <ele>319</ele>
        <time>2015-06-10T12:47:29Z</time>
      </trkpt>
      <trkpt lat="43.42127" lon="6.16972">
        <ele>319</ele>
        <time>2015-06-10T12:47:36Z</time>
      </trkpt>
      <trkpt lat="43.42135" lon="6.16914">
        <ele>318.79998779297</ele>
        <time>2015-06-10T12:47:45Z</time>
      </trkpt>
      <trkpt lat="43.42138" lon="6.16886">
        <ele>317.20001220703</ele>
        <time>2015-06-10T12:47:49Z</time>
      </trkpt>
      <trkpt lat="43.42141" lon="6.16872">
        <ele>317.20001220703</ele>
        <time>2015-06-10T12:47:51Z</time>
      </trkpt>
      <trkpt lat="43.42142" lon="6.16856">
        <ele>316</ele>
        <time>2015-06-10T12:47:53Z</time>
      </trkpt>
      <trkpt lat="43.42144" lon="6.16839">
        <ele>314.39999389648</ele>
        <time>2015-06-10T12:47:55Z</time>
      </trkpt>
      <trkpt lat="43.42144" lon="6.16821">
        <ele>314.20001220703</ele>
        <time>2015-06-10T12:47:57Z</time>
      </trkpt>
      <trkpt lat="43.42146" lon="6.16793">
        <ele>313</ele>
        <time>2015-06-10T12:48:00Z</time>
      </trkpt>
      <trkpt lat="43.42146" lon="6.16783">
        <ele>311.79998779297</ele>
        <time>2015-06-10T12:48:01Z</time>
      </trkpt>
      <trkpt lat="43.42146" lon="6.16762">
        <ele>310.60000610352</ele>
        <time>2015-06-10T12:48:03Z</time>
      </trkpt>
      <trkpt lat="43.42147" lon="6.16739">
        <ele>309</ele>
        <time>2015-06-10T12:48:05Z</time>
      </trkpt>
      <trkpt lat="43.42151" lon="6.16703">
        <ele>307.60000610352</ele>
        <time>2015-06-10T12:48:08Z</time>
      </trkpt>
      <trkpt lat="43.42154" lon="6.1668">
        <ele>307.20001220703</ele>
        <time>2015-06-10T12:48:10Z</time>
      </trkpt>
      <trkpt lat="43.42156" lon="6.16659">
        <ele>306.79998779297</ele>
        <time>2015-06-10T12:48:12Z</time>
      </trkpt>
      <trkpt lat="43.42157" lon="6.16622">
        <ele>307</ele>
        <time>2015-06-10T12:48:16Z</time>
      </trkpt>
      <trkpt lat="43.42158" lon="6.16552">
        <ele>306.79998779297</ele>
        <time>2015-06-10T12:48:25Z</time>
      </trkpt>
      <trkpt lat="43.42159" lon="6.16533">
        <ele>305.79998779297</ele>
        <time>2015-06-10T12:48:27Z</time>
      </trkpt>
      <trkpt lat="43.4216" lon="6.16513">
        <ele>303.79998779297</ele>
        <time>2015-06-10T12:48:29Z</time>
      </trkpt>
      <trkpt lat="43.42162" lon="6.16491">
        <ele>303</ele>
        <time>2015-06-10T12:48:31Z</time>
      </trkpt>
      <trkpt lat="43.42165" lon="6.16433">
        <ele>305.20001220703</ele>
        <time>2015-06-10T12:48:37Z</time>
      </trkpt>
      <trkpt lat="43.42166" lon="6.16413">
        <ele>305.39999389648</ele>
        <time>2015-06-10T12:48:40Z</time>
      </trkpt>
      <trkpt lat="43.42165" lon="6.16393">
        <ele>305.20001220703</ele>
        <time>2015-06-10T12:48:43Z</time>
      </trkpt>
      <trkpt lat="43.42163" lon="6.1638">
        <ele>305.60000610352</ele>
        <time>2015-06-10T12:48:45Z</time>
      </trkpt>
      <trkpt lat="43.42158" lon="6.16361">
        <ele>305</ele>
        <time>2015-06-10T12:48:48Z</time>
      </trkpt>
      <trkpt lat="43.42156" lon="6.16355">
        <ele>305</ele>
        <time>2015-06-10T12:48:49Z</time>
      </trkpt>
      <trkpt lat="43.42152" lon="6.1634">
        <ele>306.39999389648</ele>
        <time>2015-06-10T12:48:52Z</time>
      </trkpt>
      <trkpt lat="43.42149" lon="6.16328">
        <ele>307.20001220703</ele>
        <time>2015-06-10T12:48:55Z</time>
      </trkpt>
      <trkpt lat="43.42148" lon="6.16324">
        <ele>307.39999389648</ele>
        <time>2015-06-10T12:48:56Z</time>
      </trkpt>
      <trkpt lat="43.42146" lon="6.16313">
        <ele>308.60000610352</ele>
        <time>2015-06-10T12:48:59Z</time>
      </trkpt>
      <trkpt lat="43.42145" lon="6.16302">
        <ele>309.20001220703</ele>
        <time>2015-06-10T12:49:02Z</time>
      </trkpt>
      <trkpt lat="43.42144" lon="6.16273">
        <ele>309.79998779297</ele>
        <time>2015-06-10T12:49:09Z</time>
      </trkpt>
      <trkpt lat="43.42144" lon="6.16269">
        <ele>310.39999389648</ele>
        <time>2015-06-10T12:49:10Z</time>
      </trkpt>
      <trkpt lat="43.42144" lon="6.16265">
        <ele>311</ele>
        <time>2015-06-10T12:49:11Z</time>
      </trkpt>
      <trkpt lat="43.42144" lon="6.16233">
        <ele>311.79998779297</ele>
        <time>2015-06-10T12:49:19Z</time>
      </trkpt>
      <trkpt lat="43.42144" lon="6.16208">
        <ele>311.79998779297</ele>
        <time>2015-06-10T12:49:25Z</time>
      </trkpt>
      <trkpt lat="43.42146" lon="6.16195">
        <ele>311.60000610352</ele>
        <time>2015-06-10T12:49:28Z</time>
      </trkpt>
      <trkpt lat="43.42149" lon="6.16151">
        <ele>310.60000610352</ele>
        <time>2015-06-10T12:49:36Z</time>
      </trkpt>
      <trkpt lat="43.42152" lon="6.1611">
        <ele>309.79998779297</ele>
        <time>2015-06-10T12:49:42Z</time>
      </trkpt>
      <trkpt lat="43.42152" lon="6.16103">
        <ele>309.79998779297</ele>
        <time>2015-06-10T12:49:43Z</time>
      </trkpt>
      <trkpt lat="43.42155" lon="6.16059">
        <ele>310.39999389648</ele>
        <time>2015-06-10T12:49:50Z</time>
      </trkpt>
      <trkpt lat="43.4216" lon="6.1602">
        <ele>311</ele>
        <time>2015-06-10T12:49:58Z</time>
      </trkpt>
      <trkpt lat="43.42161" lon="6.16015">
        <ele>311</ele>
        <time>2015-06-10T12:49:59Z</time>
      </trkpt>
      <trkpt lat="43.42169" lon="6.15978">
        <ele>310.20001220703</ele>
        <time>2015-06-10T12:50:06Z</time>
      </trkpt>
      <trkpt lat="43.42175" lon="6.15954">
        <ele>310.79998779297</ele>
        <time>2015-06-10T12:50:10Z</time>
      </trkpt>
      <trkpt lat="43.42179" lon="6.15933">
        <ele>309.60000610352</ele>
        <time>2015-06-10T12:50:13Z</time>
      </trkpt>
      <trkpt lat="43.42189" lon="6.15881">
        <ele>309.39999389648</ele>
        <time>2015-06-10T12:50:21Z</time>
      </trkpt>
      <trkpt lat="43.4219" lon="6.15875">
        <ele>309.20001220703</ele>
        <time>2015-06-10T12:50:22Z</time>
      </trkpt>
      <trkpt lat="43.42194" lon="6.15857">
        <ele>308.60000610352</ele>
        <time>2015-06-10T12:50:25Z</time>
      </trkpt>
      <trkpt lat="43.42197" lon="6.1584">
        <ele>309.39999389648</ele>
        <time>2015-06-10T12:50:28Z</time>
      </trkpt>
      <trkpt lat="43.42206" lon="6.15795">
        <ele>308.39999389648</ele>
        <time>2015-06-10T12:50:35Z</time>
      </trkpt>
      <trkpt lat="43.42209" lon="6.1579">
        <ele>308.60000610352</ele>
        <time>2015-06-10T12:50:36Z</time>
      </trkpt>
      <trkpt lat="43.42216" lon="6.15783">
        <ele>308.60000610352</ele>
        <time>2015-06-10T12:50:38Z</time>
      </trkpt>
      <trkpt lat="43.42225" lon="6.15782">
        <ele>309.20001220703</ele>
        <time>2015-06-10T12:50:40Z</time>
      </trkpt>
      <trkpt lat="43.42234" lon="6.15784">
        <ele>309.39999389648</ele>
        <time>2015-06-10T12:50:42Z</time>
      </trkpt>
      <trkpt lat="43.42242" lon="6.15788">
        <ele>309.60000610352</ele>
        <time>2015-06-10T12:50:44Z</time>
      </trkpt>
      <trkpt lat="43.42262" lon="6.15798">
        <ele>310</ele>
        <time>2015-06-10T12:50:49Z</time>
      </trkpt>
      <trkpt lat="43.4228" lon="6.15807">
        <ele>309.20001220703</ele>
        <time>2015-06-10T12:50:53Z</time>
      </trkpt>
      <trkpt lat="43.42307" lon="6.15822">
        <ele>309.79998779297</ele>
        <time>2015-06-10T12:50:59Z</time>
      </trkpt>
      <trkpt lat="43.42343" lon="6.15842">
        <ele>309.39999389648</ele>
        <time>2015-06-10T12:51:06Z</time>
      </trkpt>
      <trkpt lat="43.42369" lon="6.15855">
        <ele>309.20001220703</ele>
        <time>2015-06-10T12:51:12Z</time>
      </trkpt>
      <trkpt lat="43.42382" lon="6.15862">
        <ele>310.20001220703</ele>
        <time>2015-06-10T12:51:16Z</time>
      </trkpt>
      <trkpt lat="43.42385" lon="6.15863">
        <ele>310.60000610352</ele>
        <time>2015-06-10T12:51:17Z</time>
      </trkpt>
      <trkpt lat="43.42391" lon="6.15866">
        <ele>311.20001220703</ele>
        <time>2015-06-10T12:51:19Z</time>
      </trkpt>
      <trkpt lat="43.42411" lon="6.15877">
        <ele>311.60000610352</ele>
        <time>2015-06-10T12:51:25Z</time>
      </trkpt>
      <trkpt lat="43.42421" lon="6.15881">
        <ele>310.79998779297</ele>
        <time>2015-06-10T12:51:28Z</time>
      </trkpt>
      <trkpt lat="43.42462" lon="6.15916">
        <ele>310.79998779297</ele>
        <time>2015-06-10T12:51:42Z</time>
      </trkpt>
      <trkpt lat="43.42484" lon="6.15937">
        <ele>312.20001220703</ele>
        <time>2015-06-10T12:51:50Z</time>
      </trkpt>
      <trkpt lat="43.42491" lon="6.15944">
        <ele>312.60000610352</ele>
        <time>2015-06-10T12:51:53Z</time>
      </trkpt>
      <trkpt lat="43.425" lon="6.15951">
        <ele>313.79998779297</ele>
        <time>2015-06-10T12:51:57Z</time>
      </trkpt>
      <trkpt lat="43.42521" lon="6.15971">
        <ele>313.60000610352</ele>
        <time>2015-06-10T12:52:04Z</time>
      </trkpt>
      <trkpt lat="43.42542" lon="6.15988">
        <ele>313.39999389648</ele>
        <time>2015-06-10T12:52:10Z</time>
      </trkpt>
      <trkpt lat="43.42556" lon="6.16014">
        <ele>312.79998779297</ele>
        <time>2015-06-10T12:52:16Z</time>
      </trkpt>
      <trkpt lat="43.4256" lon="6.16025">
        <ele>313</ele>
        <time>2015-06-10T12:52:18Z</time>
      </trkpt>
      <trkpt lat="43.42565" lon="6.16041">
        <ele>312.60000610352</ele>
        <time>2015-06-10T12:52:21Z</time>
      </trkpt>
      <trkpt lat="43.42568" lon="6.16052">
        <ele>312.60000610352</ele>
        <time>2015-06-10T12:52:23Z</time>
      </trkpt>
      <trkpt lat="43.42577" lon="6.16079">
        <ele>313.20001220703</ele>
        <time>2015-06-10T12:52:28Z</time>
      </trkpt>
      <trkpt lat="43.42584" lon="6.16086">
        <ele>313</ele>
        <time>2015-06-10T12:52:30Z</time>
      </trkpt>
      <trkpt lat="43.42592" lon="6.16085">
        <ele>312.39999389648</ele>
        <time>2015-06-10T12:52:32Z</time>
      </trkpt>
      <trkpt lat="43.42603" lon="6.1608">
        <ele>310.79998779297</ele>
        <time>2015-06-10T12:52:34Z</time>
      </trkpt>
      <trkpt lat="43.42609" lon="6.16079">
        <ele>310.39999389648</ele>
        <time>2015-06-10T12:52:35Z</time>
      </trkpt>
      <trkpt lat="43.42617" lon="6.16077">
        <ele>309.39999389648</ele>
        <time>2015-06-10T12:52:36Z</time>
      </trkpt>
      <trkpt lat="43.42625" lon="6.16075">
        <ele>308.20001220703</ele>
        <time>2015-06-10T12:52:37Z</time>
      </trkpt>
      <trkpt lat="43.4264" lon="6.16071">
        <ele>307</ele>
        <time>2015-06-10T12:52:39Z</time>
      </trkpt>
      <trkpt lat="43.42654" lon="6.16067">
        <ele>306</ele>
        <time>2015-06-10T12:52:41Z</time>
      </trkpt>
      <trkpt lat="43.42685" lon="6.16061">
        <ele>306.39999389648</ele>
        <time>2015-06-10T12:52:46Z</time>
      </trkpt>
      <trkpt lat="43.42701" lon="6.16057">
        <ele>306.79998779297</ele>
        <time>2015-06-10T12:52:49Z</time>
      </trkpt>
      <trkpt lat="43.42734" lon="6.16048">
        <ele>307</ele>
        <time>2015-06-10T12:52:55Z</time>
      </trkpt>
      <trkpt lat="43.42755" lon="6.16039">
        <ele>306.60000610352</ele>
        <time>2015-06-10T12:52:59Z</time>
      </trkpt>
      <trkpt lat="43.4276" lon="6.16038">
        <ele>306.60000610352</ele>
        <time>2015-06-10T12:53:00Z</time>
      </trkpt>
      <trkpt lat="43.42766" lon="6.16037">
        <ele>306.39999389648</ele>
        <time>2015-06-10T12:53:01Z</time>
      </trkpt>
      <trkpt lat="43.42797" lon="6.16035">
        <ele>306.20001220703</ele>
        <time>2015-06-10T12:53:07Z</time>
      </trkpt>
      <trkpt lat="43.42803" lon="6.16035">
        <ele>306</ele>
        <time>2015-06-10T12:53:08Z</time>
      </trkpt>
      <trkpt lat="43.42833" lon="6.16033">
        <ele>306.20001220703</ele>
        <time>2015-06-10T12:53:15Z</time>
      </trkpt>
      <trkpt lat="43.42844" lon="6.16022">
        <ele>306.20001220703</ele>
        <time>2015-06-10T12:53:19Z</time>
      </trkpt>
      <trkpt lat="43.42862" lon="6.16011">
        <ele>306.79998779297</ele>
        <time>2015-06-10T12:53:25Z</time>
      </trkpt>
      <trkpt lat="43.4288" lon="6.16015">
        <ele>306.20001220703</ele>
        <time>2015-06-10T12:53:31Z</time>
      </trkpt>
      <trkpt lat="43.42908" lon="6.16029">
        <ele>307</ele>
        <time>2015-06-10T12:53:41Z</time>
      </trkpt>
      <trkpt lat="43.42926" lon="6.16041">
        <ele>307.39999389648</ele>
        <time>2015-06-10T12:53:48Z</time>
      </trkpt>
      <trkpt lat="43.42947" lon="6.1605">
        <ele>307.20001220703</ele>
        <time>2015-06-10T12:53:56Z</time>
      </trkpt>
      <trkpt lat="43.42955" lon="6.16066">
        <ele>307.20001220703</ele>
        <time>2015-06-10T12:54:02Z</time>
      </trkpt>
      <trkpt lat="43.42953" lon="6.16098">
        <ele>306.60000610352</ele>
        <time>2015-06-10T12:54:10Z</time>
      </trkpt>
      <trkpt lat="43.42956" lon="6.16139">
        <ele>306.39999389648</ele>
        <time>2015-06-10T12:54:19Z</time>
      </trkpt>
      <trkpt lat="43.42958" lon="6.1617">
        <ele>306.20001220703</ele>
        <time>2015-06-10T12:54:26Z</time>
      </trkpt>
      <trkpt lat="43.4296" lon="6.16208">
        <ele>306.60000610352</ele>
        <time>2015-06-10T12:54:35Z</time>
      </trkpt>
      <trkpt lat="43.42964" lon="6.16235">
        <ele>306.79998779297</ele>
        <time>2015-06-10T12:54:41Z</time>
      </trkpt>
      <trkpt lat="43.42965" lon="6.16264">
        <ele>307.39999389648</ele>
        <time>2015-06-10T12:54:47Z</time>
      </trkpt>
      <trkpt lat="43.4296" lon="6.16304">
        <ele>306.39999389648</ele>
        <time>2015-06-10T12:54:55Z</time>
      </trkpt>
      <trkpt lat="43.42959" lon="6.16322">
        <ele>306</ele>
        <time>2015-06-10T12:54:59Z</time>
      </trkpt>
      <trkpt lat="43.4296" lon="6.16327">
        <ele>306</ele>
        <time>2015-06-10T12:55:01Z</time>
      </trkpt>
      <trkpt lat="43.4296" lon="6.16328">
        <ele>305.60000610352</ele>
        <time>2015-06-10T12:55:05Z</time>
      </trkpt>
      <trkpt lat="43.4296" lon="6.16328">
        <ele>305.79998779297</ele>
        <time>2015-06-10T12:55:13Z</time>
      </trkpt>
      <trkpt lat="43.4296" lon="6.16328">
        <ele>304.79998779297</ele>
        <time>2015-06-10T12:55:47Z</time>
      </trkpt>
      <trkpt lat="43.42959" lon="6.16327">
        <ele>305.60000610352</ele>
        <time>2015-06-10T12:56:25Z</time>
      </trkpt>
      <trkpt lat="43.42959" lon="6.1632">
        <ele>305.20001220703</ele>
        <time>2015-06-10T12:56:31Z</time>
      </trkpt>
      <trkpt lat="43.42961" lon="6.16297">
        <ele>306</ele>
        <time>2015-06-10T12:56:38Z</time>
      </trkpt>
      <trkpt lat="43.42963" lon="6.16264">
        <ele>306.20001220703</ele>
        <time>2015-06-10T12:56:46Z</time>
      </trkpt>
      <trkpt lat="43.42963" lon="6.16254">
        <ele>306.39999389648</ele>
        <time>2015-06-10T12:56:48Z</time>
      </trkpt>
      <trkpt lat="43.4296" lon="6.16211">
        <ele>307</ele>
        <time>2015-06-10T12:56:56Z</time>
      </trkpt>
      <trkpt lat="43.4296" lon="6.16176">
        <ele>306.39999389648</ele>
        <time>2015-06-10T12:57:02Z</time>
      </trkpt>
      <trkpt lat="43.42958" lon="6.16157">
        <ele>306</ele>
        <time>2015-06-10T12:57:05Z</time>
      </trkpt>
      <trkpt lat="43.42957" lon="6.1613">
        <ele>306.39999389648</ele>
        <time>2015-06-10T12:57:09Z</time>
      </trkpt>
      <trkpt lat="43.42956" lon="6.16095">
        <ele>306.39999389648</ele>
        <time>2015-06-10T12:57:14Z</time>
      </trkpt>
      <trkpt lat="43.42957" lon="6.16077">
        <ele>306.60000610352</ele>
        <time>2015-06-10T12:57:17Z</time>
      </trkpt>
      <trkpt lat="43.42957" lon="6.16068">
        <ele>307</ele>
        <time>2015-06-10T12:57:19Z</time>
      </trkpt>
      <trkpt lat="43.42957" lon="6.16064">
        <ele>307.39999389648</ele>
        <time>2015-06-10T12:57:21Z</time>
      </trkpt>
      <trkpt lat="43.42956" lon="6.16062">
        <ele>307.39999389648</ele>
        <time>2015-06-10T12:57:26Z</time>
      </trkpt>
      <trkpt lat="43.42956" lon="6.16062">
        <ele>307.20001220703</ele>
        <time>2015-06-10T12:57:30Z</time>
      </trkpt>
      <trkpt lat="43.42956" lon="6.16061">
        <ele>307.39999389648</ele>
        <time>2015-06-10T12:57:32Z</time>
      </trkpt>
      <trkpt lat="43.42958" lon="6.16054">
        <ele>308.20001220703</ele>
        <time>2015-06-10T12:57:35Z</time>
      </trkpt>
      <trkpt lat="43.42961" lon="6.16033">
        <ele>307.20001220703</ele>
        <time>2015-06-10T12:57:41Z</time>
      </trkpt>
      <trkpt lat="43.42957" lon="6.16014">
        <ele>307.79998779297</ele>
        <time>2015-06-10T12:57:45Z</time>
      </trkpt>
      <trkpt lat="43.42955" lon="6.16009">
        <ele>307.60000610352</ele>
        <time>2015-06-10T12:57:46Z</time>
      </trkpt>
      <trkpt lat="43.42951" lon="6.15997">
        <ele>307.79998779297</ele>
        <time>2015-06-10T12:57:49Z</time>
      </trkpt>
      <trkpt lat="43.42945" lon="6.15975">
        <ele>307.20001220703</ele>
        <time>2015-06-10T12:57:55Z</time>
      </trkpt>
      <trkpt lat="43.42944" lon="6.15969">
        <ele>307.39999389648</ele>
        <time>2015-06-10T12:57:59Z</time>
      </trkpt>
      <trkpt lat="43.42943" lon="6.15969">
        <ele>307.39999389648</ele>
        <time>2015-06-10T12:58:01Z</time>
      </trkpt>
      <trkpt lat="43.42942" lon="6.15962">
        <ele>307.20001220703</ele>
        <time>2015-06-10T12:58:11Z</time>
      </trkpt>
      <trkpt lat="43.42936" lon="6.15941">
        <ele>307.20001220703</ele>
        <time>2015-06-10T12:58:16Z</time>
      </trkpt>
      <trkpt lat="43.42931" lon="6.15919">
        <ele>307.79998779297</ele>
        <time>2015-06-10T12:58:21Z</time>
      </trkpt>
      <trkpt lat="43.42926" lon="6.15896">
        <ele>307</ele>
        <time>2015-06-10T12:58:27Z</time>
      </trkpt>
      <trkpt lat="43.42923" lon="6.15884">
        <ele>307.60000610352</ele>
        <time>2015-06-10T12:58:32Z</time>
      </trkpt>
      <trkpt lat="43.42923" lon="6.15881">
        <ele>307.20001220703</ele>
        <time>2015-06-10T12:58:34Z</time>
      </trkpt>
      <trkpt lat="43.42926" lon="6.15863">
        <ele>307.39999389648</ele>
        <time>2015-06-10T12:58:43Z</time>
      </trkpt>
      <trkpt lat="43.42926" lon="6.15859">
        <ele>307.60000610352</ele>
        <time>2015-06-10T12:58:45Z</time>
      </trkpt>
      <trkpt lat="43.42927" lon="6.15848">
        <ele>306.39999389648</ele>
        <time>2015-06-10T12:58:52Z</time>
      </trkpt>
      <trkpt lat="43.42929" lon="6.1584">
        <ele>306.79998779297</ele>
        <time>2015-06-10T12:59:00Z</time>
      </trkpt>
      <trkpt lat="43.42933" lon="6.15829">
        <ele>306.79998779297</ele>
        <time>2015-06-10T12:59:03Z</time>
      </trkpt>
      <trkpt lat="43.42937" lon="6.15819">
        <ele>306.60000610352</ele>
        <time>2015-06-10T12:59:05Z</time>
      </trkpt>
      <trkpt lat="43.42945" lon="6.15797">
        <ele>306.20001220703</ele>
        <time>2015-06-10T12:59:09Z</time>
      </trkpt>
      <trkpt lat="43.4295" lon="6.15777">
        <ele>305.60000610352</ele>
        <time>2015-06-10T12:59:12Z</time>
      </trkpt>
      <trkpt lat="43.42959" lon="6.1575">
        <ele>304.79998779297</ele>
        <time>2015-06-10T12:59:16Z</time>
      </trkpt>
      <trkpt lat="43.42963" lon="6.15744">
        <ele>304.60000610352</ele>
        <time>2015-06-10T12:59:17Z</time>
      </trkpt>
      <trkpt lat="43.42976" lon="6.15728">
        <ele>303.20001220703</ele>
        <time>2015-06-10T12:59:20Z</time>
      </trkpt>
      <trkpt lat="43.42991" lon="6.15711">
        <ele>302</ele>
        <time>2015-06-10T12:59:23Z</time>
      </trkpt>
      <trkpt lat="43.42996" lon="6.15704">
        <ele>301.20001220703</ele>
        <time>2015-06-10T12:59:24Z</time>
      </trkpt>
      <trkpt lat="43.43" lon="6.15697">
        <ele>300.60000610352</ele>
        <time>2015-06-10T12:59:25Z</time>
      </trkpt>
      <trkpt lat="43.43006" lon="6.15683">
        <ele>300</ele>
        <time>2015-06-10T12:59:27Z</time>
      </trkpt>
      <trkpt lat="43.43008" lon="6.15669">
        <ele>299.79998779297</ele>
        <time>2015-06-10T12:59:30Z</time>
      </trkpt>
      <trkpt lat="43.4301" lon="6.15666">
        <ele>299.60000610352</ele>
        <time>2015-06-10T12:59:31Z</time>
      </trkpt>
      <trkpt lat="43.43015" lon="6.15662">
        <ele>299</ele>
        <time>2015-06-10T12:59:34Z</time>
      </trkpt>
      <trkpt lat="43.43019" lon="6.15659">
        <ele>298.39999389648</ele>
        <time>2015-06-10T12:59:37Z</time>
      </trkpt>
      <trkpt lat="43.43023" lon="6.15658">
        <ele>298.20001220703</ele>
        <time>2015-06-10T12:59:39Z</time>
      </trkpt>
      <trkpt lat="43.43032" lon="6.15655">
        <ele>297</ele>
        <time>2015-06-10T12:59:43Z</time>
      </trkpt>
      <trkpt lat="43.43034" lon="6.15653">
        <ele>296.20001220703</ele>
        <time>2015-06-10T12:59:44Z</time>
      </trkpt>
      <trkpt lat="43.43036" lon="6.15652">
        <ele>295.60000610352</ele>
        <time>2015-06-10T12:59:45Z</time>
      </trkpt>
      <trkpt lat="43.4304" lon="6.1565">
        <ele>293.79998779297</ele>
        <time>2015-06-10T12:59:47Z</time>
      </trkpt>
      <trkpt lat="43.43043" lon="6.15648">
        <ele>292.79998779297</ele>
        <time>2015-06-10T12:59:48Z</time>
      </trkpt>
      <trkpt lat="43.43046" lon="6.15647">
        <ele>292.20001220703</ele>
        <time>2015-06-10T12:59:49Z</time>
      </trkpt>
      <trkpt lat="43.43053" lon="6.15646">
        <ele>290.79998779297</ele>
        <time>2015-06-10T12:59:51Z</time>
      </trkpt>
      <trkpt lat="43.4306" lon="6.15644">
        <ele>290</ele>
        <time>2015-06-10T12:59:53Z</time>
      </trkpt>
      <trkpt lat="43.43063" lon="6.15644">
        <ele>289.60000610352</ele>
        <time>2015-06-10T12:59:54Z</time>
      </trkpt>
      <trkpt lat="43.43066" lon="6.15652">
        <ele>289</ele>
        <time>2015-06-10T12:59:56Z</time>
      </trkpt>
      <trkpt lat="43.43068" lon="6.15656">
        <ele>288.20001220703</ele>
        <time>2015-06-10T12:59:57Z</time>
      </trkpt>
      <trkpt lat="43.43071" lon="6.15665">
        <ele>287.39999389648</ele>
        <time>2015-06-10T12:59:59Z</time>
      </trkpt>
      <trkpt lat="43.43072" lon="6.1567">
        <ele>287</ele>
        <time>2015-06-10T13:00:00Z</time>
      </trkpt>
      <trkpt lat="43.43073" lon="6.15675">
        <ele>286.79998779297</ele>
        <time>2015-06-10T13:00:01Z</time>
      </trkpt>
      <trkpt lat="43.43079" lon="6.15686">
        <ele>285.39999389648</ele>
        <time>2015-06-10T13:00:04Z</time>
      </trkpt>
      <trkpt lat="43.43087" lon="6.15691">
        <ele>283.79998779297</ele>
        <time>2015-06-10T13:00:07Z</time>
      </trkpt>
      <trkpt lat="43.43088" lon="6.15693">
        <ele>283.39999389648</ele>
        <time>2015-06-10T13:00:08Z</time>
      </trkpt>
      <trkpt lat="43.43092" lon="6.15696">
        <ele>282.60000610352</ele>
        <time>2015-06-10T13:00:10Z</time>
      </trkpt>
      <trkpt lat="43.43095" lon="6.15698">
        <ele>281.79998779297</ele>
        <time>2015-06-10T13:00:11Z</time>
      </trkpt>
      <trkpt lat="43.43097" lon="6.157">
        <ele>281.39999389648</ele>
        <time>2015-06-10T13:00:12Z</time>
      </trkpt>
      <trkpt lat="43.43102" lon="6.15704">
        <ele>280.20001220703</ele>
        <time>2015-06-10T13:00:14Z</time>
      </trkpt>
      <trkpt lat="43.43107" lon="6.15709">
        <ele>278.60000610352</ele>
        <time>2015-06-10T13:00:16Z</time>
      </trkpt>
      <trkpt lat="43.4311" lon="6.1571">
        <ele>278</ele>
        <time>2015-06-10T13:00:17Z</time>
      </trkpt>
      <trkpt lat="43.43114" lon="6.15712">
        <ele>277.60000610352</ele>
        <time>2015-06-10T13:00:19Z</time>
      </trkpt>
      <trkpt lat="43.43117" lon="6.15713">
        <ele>277.60000610352</ele>
        <time>2015-06-10T13:00:20Z</time>
      </trkpt>
      <trkpt lat="43.4312" lon="6.15713">
        <ele>276.60000610352</ele>
        <time>2015-06-10T13:00:21Z</time>
      </trkpt>
      <trkpt lat="43.43124" lon="6.15712">
        <ele>275.79998779297</ele>
        <time>2015-06-10T13:00:22Z</time>
      </trkpt>
      <trkpt lat="43.43131" lon="6.1571">
        <ele>274.79998779297</ele>
        <time>2015-06-10T13:00:24Z</time>
      </trkpt>
      <trkpt lat="43.43133" lon="6.15707">
        <ele>274.60000610352</ele>
        <time>2015-06-10T13:00:25Z</time>
      </trkpt>
      <trkpt lat="43.43143" lon="6.15701">
        <ele>274</ele>
        <time>2015-06-10T13:00:29Z</time>
      </trkpt>
      <trkpt lat="43.43145" lon="6.157">
        <ele>273.20001220703</ele>
        <time>2015-06-10T13:00:30Z</time>
      </trkpt>
      <trkpt lat="43.43148" lon="6.15698">
        <ele>271.79998779297</ele>
        <time>2015-06-10T13:00:32Z</time>
      </trkpt>
      <trkpt lat="43.43153" lon="6.15697">
        <ele>270.60000610352</ele>
        <time>2015-06-10T13:00:34Z</time>
      </trkpt>
      <trkpt lat="43.4316" lon="6.15695">
        <ele>269</ele>
        <time>2015-06-10T13:00:37Z</time>
      </trkpt>
      <trkpt lat="43.43171" lon="6.15692">
        <ele>266</ele>
        <time>2015-06-10T13:00:41Z</time>
      </trkpt>
      <trkpt lat="43.43177" lon="6.15688">
        <ele>264.39999389648</ele>
        <time>2015-06-10T13:00:43Z</time>
      </trkpt>
      <trkpt lat="43.43187" lon="6.15679">
        <ele>261.79998779297</ele>
        <time>2015-06-10T13:00:47Z</time>
      </trkpt>
      <trkpt lat="43.43192" lon="6.15673">
        <ele>261.20001220703</ele>
        <time>2015-06-10T13:00:49Z</time>
      </trkpt>
      <trkpt lat="43.43207" lon="6.15656">
        <ele>260.20001220703</ele>
        <time>2015-06-10T13:00:55Z</time>
      </trkpt>
      <trkpt lat="43.43213" lon="6.15649">
        <ele>258.79998779297</ele>
        <time>2015-06-10T13:00:57Z</time>
      </trkpt>
      <trkpt lat="43.43219" lon="6.15641">
        <ele>258</ele>
        <time>2015-06-10T13:00:59Z</time>
      </trkpt>
      <trkpt lat="43.43224" lon="6.15633">
        <ele>256.20001220703</ele>
        <time>2015-06-10T13:01:02Z</time>
      </trkpt>
      <trkpt lat="43.43226" lon="6.1563">
        <ele>255.60000610352</ele>
        <time>2015-06-10T13:01:03Z</time>
      </trkpt>
      <trkpt lat="43.43229" lon="6.15628">
        <ele>255</ele>
        <time>2015-06-10T13:01:04Z</time>
      </trkpt>
      <trkpt lat="43.4323" lon="6.15625">
        <ele>253.80000305176</ele>
        <time>2015-06-10T13:01:05Z</time>
      </trkpt>
      <trkpt lat="43.43231" lon="6.15613">
        <ele>252.60000610352</ele>
        <time>2015-06-10T13:01:08Z</time>
      </trkpt>
      <trkpt lat="43.43231" lon="6.15606">
        <ele>250.60000610352</ele>
        <time>2015-06-10T13:01:10Z</time>
      </trkpt>
      <trkpt lat="43.43232" lon="6.15602">
        <ele>250.19999694824</ele>
        <time>2015-06-10T13:01:11Z</time>
      </trkpt>
      <trkpt lat="43.43232" lon="6.15598">
        <ele>249.60000610352</ele>
        <time>2015-06-10T13:01:12Z</time>
      </trkpt>
      <trkpt lat="43.43232" lon="6.15594">
        <ele>248.80000305176</ele>
        <time>2015-06-10T13:01:13Z</time>
      </trkpt>
      <trkpt lat="43.43232" lon="6.15581">
        <ele>246.19999694824</ele>
        <time>2015-06-10T13:01:17Z</time>
      </trkpt>
      <trkpt lat="43.43232" lon="6.15577">
        <ele>246</ele>
        <time>2015-06-10T13:01:18Z</time>
      </trkpt>
      <trkpt lat="43.43232" lon="6.1557">
        <ele>245</ele>
        <time>2015-06-10T13:01:20Z</time>
      </trkpt>
      <trkpt lat="43.43232" lon="6.15565">
        <ele>244.19999694824</ele>
        <time>2015-06-10T13:01:22Z</time>
      </trkpt>
      <trkpt lat="43.43232" lon="6.15563">
        <ele>243.80000305176</ele>
        <time>2015-06-10T13:01:23Z</time>
      </trkpt>
      <trkpt lat="43.43233" lon="6.15556">
        <ele>242.39999389648</ele>
        <time>2015-06-10T13:01:25Z</time>
      </trkpt>
      <trkpt lat="43.43235" lon="6.15548">
        <ele>240.80000305176</ele>
        <time>2015-06-10T13:01:27Z</time>
      </trkpt>
      <trkpt lat="43.43237" lon="6.15536">
        <ele>239.60000610352</ele>
        <time>2015-06-10T13:01:30Z</time>
      </trkpt>
      <trkpt lat="43.43239" lon="6.15527">
        <ele>238.39999389648</ele>
        <time>2015-06-10T13:01:32Z</time>
      </trkpt>
      <trkpt lat="43.43242" lon="6.15516">
        <ele>236.19999694824</ele>
        <time>2015-06-10T13:01:35Z</time>
      </trkpt>
      <trkpt lat="43.43242" lon="6.15501">
        <ele>234.80000305176</ele>
        <time>2015-06-10T13:01:39Z</time>
      </trkpt>
      <trkpt lat="43.43243" lon="6.15496">
        <ele>233.60000610352</ele>
        <time>2015-06-10T13:01:41Z</time>
      </trkpt>
      <trkpt lat="43.43243" lon="6.15477">
        <ele>231</ele>
        <time>2015-06-10T13:01:48Z</time>
      </trkpt>
      <trkpt lat="43.43243" lon="6.15475">
        <ele>230</ele>
        <time>2015-06-10T13:01:49Z</time>
      </trkpt>
      <trkpt lat="43.43243" lon="6.15473">
        <ele>229</ele>
        <time>2015-06-10T13:01:52Z</time>
      </trkpt>
      <trkpt lat="43.43243" lon="6.15471">
        <ele>229</ele>
        <time>2015-06-10T13:01:54Z</time>
      </trkpt>
      <trkpt lat="43.43245" lon="6.15464">
        <ele>227.80000305176</ele>
        <time>2015-06-10T13:01:57Z</time>
      </trkpt>
      <trkpt lat="43.43246" lon="6.15462">
        <ele>227.19999694824</ele>
        <time>2015-06-10T13:01:58Z</time>
      </trkpt>
      <trkpt lat="43.43246" lon="6.15458">
        <ele>226.39999389648</ele>
        <time>2015-06-10T13:01:59Z</time>
      </trkpt>
      <trkpt lat="43.43247" lon="6.15448">
        <ele>225.60000610352</ele>
        <time>2015-06-10T13:02:02Z</time>
      </trkpt>
      <trkpt lat="43.43249" lon="6.15446">
        <ele>225</ele>
        <time>2015-06-10T13:02:03Z</time>
      </trkpt>
      <trkpt lat="43.43251" lon="6.15444">
        <ele>224</ele>
        <time>2015-06-10T13:02:05Z</time>
      </trkpt>
      <trkpt lat="43.43253" lon="6.15445">
        <ele>223.60000610352</ele>
        <time>2015-06-10T13:02:06Z</time>
      </trkpt>
      <trkpt lat="43.43255" lon="6.15447">
        <ele>223.19999694824</ele>
        <time>2015-06-10T13:02:07Z</time>
      </trkpt>
      <trkpt lat="43.43258" lon="6.15449">
        <ele>223</ele>
        <time>2015-06-10T13:02:09Z</time>
      </trkpt>
      <trkpt lat="43.43265" lon="6.15451">
        <ele>221.80000305176</ele>
        <time>2015-06-10T13:02:12Z</time>
      </trkpt>
      <trkpt lat="43.4327" lon="6.15445">
        <ele>220.80000305176</ele>
        <time>2015-06-10T13:02:15Z</time>
      </trkpt>
      <trkpt lat="43.43274" lon="6.15431">
        <ele>220</ele>
        <time>2015-06-10T13:02:20Z</time>
      </trkpt>
      <trkpt lat="43.43273" lon="6.15428">
        <ele>218.60000610352</ele>
        <time>2015-06-10T13:02:21Z</time>
      </trkpt>
      <trkpt lat="43.43271" lon="6.15418">
        <ele>217.39999389648</ele>
        <time>2015-06-10T13:02:23Z</time>
      </trkpt>
      <trkpt lat="43.43271" lon="6.15414">
        <ele>217.19999694824</ele>
        <time>2015-06-10T13:02:24Z</time>
      </trkpt>
      <trkpt lat="43.43271" lon="6.15408">
        <ele>216.39999389648</ele>
        <time>2015-06-10T13:02:26Z</time>
      </trkpt>
      <trkpt lat="43.43273" lon="6.15403">
        <ele>215.19999694824</ele>
        <time>2015-06-10T13:02:28Z</time>
      </trkpt>
      <trkpt lat="43.43274" lon="6.15397">
        <ele>213.80000305176</ele>
        <time>2015-06-10T13:02:30Z</time>
      </trkpt>
      <trkpt lat="43.43277" lon="6.15388">
        <ele>212.60000610352</ele>
        <time>2015-06-10T13:02:33Z</time>
      </trkpt>
      <trkpt lat="43.43277" lon="6.15385">
        <ele>212.39999389648</ele>
        <time>2015-06-10T13:02:34Z</time>
      </trkpt>
      <trkpt lat="43.43278" lon="6.1538">
        <ele>211</ele>
        <time>2015-06-10T13:02:36Z</time>
      </trkpt>
      <trkpt lat="43.43278" lon="6.15377">
        <ele>209.60000610352</ele>
        <time>2015-06-10T13:02:37Z</time>
      </trkpt>
      <trkpt lat="43.43279" lon="6.15371">
        <ele>208</ele>
        <time>2015-06-10T13:02:39Z</time>
      </trkpt>
      <trkpt lat="43.4328" lon="6.15367">
        <ele>207</ele>
        <time>2015-06-10T13:02:40Z</time>
      </trkpt>
      <trkpt lat="43.43279" lon="6.15363">
        <ele>206.19999694824</ele>
        <time>2015-06-10T13:02:41Z</time>
      </trkpt>
      <trkpt lat="43.43277" lon="6.15345">
        <ele>205.60000610352</ele>
        <time>2015-06-10T13:02:44Z</time>
      </trkpt>
      <trkpt lat="43.43276" lon="6.15339">
        <ele>204.80000305176</ele>
        <time>2015-06-10T13:02:45Z</time>
      </trkpt>
      <trkpt lat="43.43276" lon="6.1532">
        <ele>203.39999389648</ele>
        <time>2015-06-10T13:02:49Z</time>
      </trkpt>
      <trkpt lat="43.43279" lon="6.15305">
        <ele>201.19999694824</ele>
        <time>2015-06-10T13:02:53Z</time>
      </trkpt>
      <trkpt lat="43.43281" lon="6.15304">
        <ele>200.60000610352</ele>
        <time>2015-06-10T13:02:54Z</time>
      </trkpt>
      <trkpt lat="43.43288" lon="6.1531">
        <ele>199.80000305176</ele>
        <time>2015-06-10T13:02:58Z</time>
      </trkpt>
      <trkpt lat="43.43291" lon="6.15316">
        <ele>199.19999694824</ele>
        <time>2015-06-10T13:03:00Z</time>
      </trkpt>
      <trkpt lat="43.43293" lon="6.15323">
        <ele>197.80000305176</ele>
        <time>2015-06-10T13:03:02Z</time>
      </trkpt>
      <trkpt lat="43.43294" lon="6.15328">
        <ele>197.39999389648</ele>
        <time>2015-06-10T13:03:04Z</time>
      </trkpt>
      <trkpt lat="43.43297" lon="6.15328">
        <ele>197.19999694824</ele>
        <time>2015-06-10T13:03:06Z</time>
      </trkpt>
      <trkpt lat="43.43298" lon="6.15326">
        <ele>196.60000610352</ele>
        <time>2015-06-10T13:03:07Z</time>
      </trkpt>
      <trkpt lat="43.43303" lon="6.15323">
        <ele>195.39999389648</ele>
        <time>2015-06-10T13:03:10Z</time>
      </trkpt>
      <trkpt lat="43.43304" lon="6.15321">
        <ele>195.39999389648</ele>
        <time>2015-06-10T13:03:11Z</time>
      </trkpt>
      <trkpt lat="43.43307" lon="6.15321">
        <ele>195.19999694824</ele>
        <time>2015-06-10T13:03:12Z</time>
      </trkpt>
      <trkpt lat="43.43311" lon="6.15321">
        <ele>194</ele>
        <time>2015-06-10T13:03:14Z</time>
      </trkpt>
      <trkpt lat="43.43314" lon="6.1532">
        <ele>193.39999389648</ele>
        <time>2015-06-10T13:03:15Z</time>
      </trkpt>
      <trkpt lat="43.43325" lon="6.15311">
        <ele>193</ele>
        <time>2015-06-10T13:03:19Z</time>
      </trkpt>
      <trkpt lat="43.43328" lon="6.15311">
        <ele>192.80000305176</ele>
        <time>2015-06-10T13:03:20Z</time>
      </trkpt>
      <trkpt lat="43.43338" lon="6.15312">
        <ele>191.19999694824</ele>
        <time>2015-06-10T13:03:24Z</time>
      </trkpt>
      <trkpt lat="43.43344" lon="6.15312">
        <ele>190.60000610352</ele>
        <time>2015-06-10T13:03:26Z</time>
      </trkpt>
      <trkpt lat="43.43348" lon="6.15314">
        <ele>190</ele>
        <time>2015-06-10T13:03:27Z</time>
      </trkpt>
      <trkpt lat="43.43363" lon="6.15323">
        <ele>189</ele>
        <time>2015-06-10T13:03:32Z</time>
      </trkpt>
      <trkpt lat="43.43366" lon="6.15325">
        <ele>188.60000610352</ele>
        <time>2015-06-10T13:03:33Z</time>
      </trkpt>
      <trkpt lat="43.43373" lon="6.15329">
        <ele>187.19999694824</ele>
        <time>2015-06-10T13:03:35Z</time>
      </trkpt>
      <trkpt lat="43.43379" lon="6.15329">
        <ele>186.39999389648</ele>
        <time>2015-06-10T13:03:37Z</time>
      </trkpt>
      <trkpt lat="43.43381" lon="6.15328">
        <ele>186.19999694824</ele>
        <time>2015-06-10T13:03:40Z</time>
      </trkpt>
      <trkpt lat="43.43381" lon="6.15328">
        <ele>185.80000305176</ele>
        <time>2015-06-10T13:03:53Z</time>
      </trkpt>
      <trkpt lat="43.43381" lon="6.15328">
        <ele>185.80000305176</ele>
        <time>2015-06-10T13:04:11Z</time>
      </trkpt>
      <trkpt lat="43.43381" lon="6.15328">
        <ele>185.60000610352</ele>
        <time>2015-06-10T13:04:37Z</time>
      </trkpt>
      <trkpt lat="43.43381" lon="6.15328">
        <ele>185.60000610352</ele>
        <time>2015-06-10T13:05:58Z</time>
      </trkpt>
      <trkpt lat="43.43381" lon="6.15326">
        <ele>185.39999389648</ele>
        <time>2015-06-10T13:07:51Z</time>
      </trkpt>
      <trkpt lat="43.43381" lon="6.15326">
        <ele>185.39999389648</ele>
        <time>2015-06-10T13:08:07Z</time>
      </trkpt>
      <trkpt lat="43.43381" lon="6.15325">
        <ele>185.19999694824</ele>
        <time>2015-06-10T13:09:57Z</time>
      </trkpt>
      <trkpt lat="43.43382" lon="6.15325">
        <ele>185.39999389648</ele>
        <time>2015-06-10T13:11:17Z</time>
      </trkpt>
      <trkpt lat="43.43381" lon="6.15325">
        <ele>184.80000305176</ele>
        <time>2015-06-10T13:12:43Z</time>
      </trkpt>
      <trkpt lat="43.43381" lon="6.15325">
        <ele>184.19999694824</ele>
        <time>2015-06-10T13:13:06Z</time>
      </trkpt>
      <trkpt lat="43.43382" lon="6.15325">
        <ele>184</ele>
        <time>2015-06-10T13:13:20Z</time>
      </trkpt>
      <trkpt lat="43.43382" lon="6.15325">
        <ele>184.60000610352</ele>
        <time>2015-06-10T13:14:08Z</time>
      </trkpt>
      <trkpt lat="43.43382" lon="6.15324">
        <ele>184.39999389648</ele>
        <time>2015-06-10T13:15:52Z</time>
      </trkpt>
      <trkpt lat="43.43382" lon="6.15323">
        <ele>183.60000610352</ele>
        <time>2015-06-10T13:16:39Z</time>
      </trkpt>
      <trkpt lat="43.43382" lon="6.15323">
        <ele>183.80000305176</ele>
        <time>2015-06-10T13:16:42Z</time>
      </trkpt>
      <trkpt lat="43.43382" lon="6.1532">
        <ele>184</ele>
        <time>2015-06-10T13:16:50Z</time>
      </trkpt>
      <trkpt lat="43.43381" lon="6.15319">
        <ele>184</ele>
        <time>2015-06-10T13:16:51Z</time>
      </trkpt>
      <trkpt lat="43.43381" lon="6.15323">
        <ele>184</ele>
        <time>2015-06-10T13:16:54Z</time>
      </trkpt>
      <trkpt lat="43.43384" lon="6.15324">
        <ele>184.19999694824</ele>
        <time>2015-06-10T13:17:01Z</time>
      </trkpt>
      <trkpt lat="43.43391" lon="6.15322">
        <ele>182.80000305176</ele>
        <time>2015-06-10T13:17:07Z</time>
      </trkpt>
      <trkpt lat="43.43393" lon="6.1532">
        <ele>182.19999694824</ele>
        <time>2015-06-10T13:17:08Z</time>
      </trkpt>
      <trkpt lat="43.43396" lon="6.15315">
        <ele>181.19999694824</ele>
        <time>2015-06-10T13:17:11Z</time>
      </trkpt>
      <trkpt lat="43.43396" lon="6.15314">
        <ele>181.19999694824</ele>
        <time>2015-06-10T13:17:12Z</time>
      </trkpt>
      <trkpt lat="43.43397" lon="6.15314">
        <ele>181</ele>
        <time>2015-06-10T13:17:17Z</time>
      </trkpt>
      <trkpt lat="43.43397" lon="6.15313">
        <ele>180.39999389648</ele>
        <time>2015-06-10T13:17:25Z</time>
      </trkpt>
      <trkpt lat="43.43399" lon="6.15315">
        <ele>180.60000610352</ele>
        <time>2015-06-10T13:17:45Z</time>
      </trkpt>
      <trkpt lat="43.43398" lon="6.15316">
        <ele>180.80000305176</ele>
        <time>2015-06-10T13:17:56Z</time>
      </trkpt>
      <trkpt lat="43.43396" lon="6.15319">
        <ele>181</ele>
        <time>2015-06-10T13:18:00Z</time>
      </trkpt>
      <trkpt lat="43.43396" lon="6.15322">
        <ele>181</ele>
        <time>2015-06-10T13:18:03Z</time>
      </trkpt>
      <trkpt lat="43.43395" lon="6.15324">
        <ele>181.19999694824</ele>
        <time>2015-06-10T13:18:04Z</time>
      </trkpt>
      <trkpt lat="43.43392" lon="6.15324">
        <ele>182.19999694824</ele>
        <time>2015-06-10T13:18:06Z</time>
      </trkpt>
      <trkpt lat="43.43391" lon="6.15323">
        <ele>182.80000305176</ele>
        <time>2015-06-10T13:18:07Z</time>
      </trkpt>
      <trkpt lat="43.43391" lon="6.15323">
        <ele>183.19999694824</ele>
        <time>2015-06-10T13:18:10Z</time>
      </trkpt>
      <trkpt lat="43.4339" lon="6.15323">
        <ele>183.19999694824</ele>
        <time>2015-06-10T13:18:11Z</time>
      </trkpt>
      <trkpt lat="43.4339" lon="6.15323">
        <ele>183.19999694824</ele>
        <time>2015-06-10T13:18:14Z</time>
      </trkpt>
      <trkpt lat="43.43391" lon="6.15324">
        <ele>183</ele>
        <time>2015-06-10T13:18:16Z</time>
      </trkpt>
      <trkpt lat="43.43393" lon="6.15323">
        <ele>182.39999389648</ele>
        <time>2015-06-10T13:18:21Z</time>
      </trkpt>
      <trkpt lat="43.43394" lon="6.15322">
        <ele>182</ele>
        <time>2015-06-10T13:18:22Z</time>
      </trkpt>
      <trkpt lat="43.43394" lon="6.15321">
        <ele>181.60000610352</ele>
        <time>2015-06-10T13:18:27Z</time>
      </trkpt>
      <trkpt lat="43.43394" lon="6.1532">
        <ele>181.60000610352</ele>
        <time>2015-06-10T13:18:29Z</time>
      </trkpt>
      <trkpt lat="43.43394" lon="6.1532">
        <ele>181.60000610352</ele>
        <time>2015-06-10T13:18:33Z</time>
      </trkpt>
      <trkpt lat="43.43396" lon="6.15317">
        <ele>181</ele>
        <time>2015-06-10T13:18:39Z</time>
      </trkpt>
      <trkpt lat="43.43398" lon="6.15318">
        <ele>180.80000305176</ele>
        <time>2015-06-10T13:18:46Z</time>
      </trkpt>
      <trkpt lat="43.43397" lon="6.15318">
        <ele>181</ele>
        <time>2015-06-10T13:18:51Z</time>
      </trkpt>
      <trkpt lat="43.43397" lon="6.15317">
        <ele>181</ele>
        <time>2015-06-10T13:19:01Z</time>
      </trkpt>
      <trkpt lat="43.43396" lon="6.1532">
        <ele>180.80000305176</ele>
        <time>2015-06-10T13:19:07Z</time>
      </trkpt>
      <trkpt lat="43.43396" lon="6.15321">
        <ele>181</ele>
        <time>2015-06-10T13:19:14Z</time>
      </trkpt>
      <trkpt lat="43.43393" lon="6.15323">
        <ele>181.60000610352</ele>
        <time>2015-06-10T13:19:17Z</time>
      </trkpt>
      <trkpt lat="43.43391" lon="6.15323">
        <ele>182.19999694824</ele>
        <time>2015-06-10T13:19:19Z</time>
      </trkpt>
      <trkpt lat="43.4339" lon="6.15323">
        <ele>183</ele>
        <time>2015-06-10T13:19:22Z</time>
      </trkpt>
      <trkpt lat="43.4339" lon="6.15323">
        <ele>183</ele>
        <time>2015-06-10T13:19:25Z</time>
      </trkpt>
      <trkpt lat="43.43389" lon="6.15322">
        <ele>183.19999694824</ele>
        <time>2015-06-10T13:19:27Z</time>
      </trkpt>
      <trkpt lat="43.43387" lon="6.15322">
        <ele>183.39999389648</ele>
        <time>2015-06-10T13:19:33Z</time>
      </trkpt>
      <trkpt lat="43.43387" lon="6.15323">
        <ele>183.19999694824</ele>
        <time>2015-06-10T13:19:36Z</time>
      </trkpt>
      <trkpt lat="43.43386" lon="6.15322">
        <ele>183</ele>
        <time>2015-06-10T13:19:38Z</time>
      </trkpt>
      <trkpt lat="43.43386" lon="6.15322">
        <ele>182.80000305176</ele>
        <time>2015-06-10T13:19:43Z</time>
      </trkpt>
      <trkpt lat="43.43386" lon="6.15322">
        <ele>183.19999694824</ele>
        <time>2015-06-10T13:20:02Z</time>
      </trkpt>
      <trkpt lat="43.43386" lon="6.15322">
        <ele>183</ele>
        <time>2015-06-10T13:20:26Z</time>
      </trkpt>
      <trkpt lat="43.43386" lon="6.15322">
        <ele>183.19999694824</ele>
        <time>2015-06-10T13:20:43Z</time>
      </trkpt>
      <trkpt lat="43.43386" lon="6.15322">
        <ele>183.39999389648</ele>
        <time>2015-06-10T13:21:14Z</time>
      </trkpt>
      <trkpt lat="43.43385" lon="6.15314">
        <ele>183.39999389648</ele>
        <time>2015-06-10T13:21:19Z</time>
      </trkpt>
      <trkpt lat="43.43385" lon="6.15311">
        <ele>183.39999389648</ele>
        <time>2015-06-10T13:21:20Z</time>
      </trkpt>
      <trkpt lat="43.43382" lon="6.15289">
        <ele>183</ele>
        <time>2015-06-10T13:21:27Z</time>
      </trkpt>
      <trkpt lat="43.43377" lon="6.1526">
        <ele>183.39999389648</ele>
        <time>2015-06-10T13:21:34Z</time>
      </trkpt>
      <trkpt lat="43.43374" lon="6.15239">
        <ele>184.39999389648</ele>
        <time>2015-06-10T13:21:39Z</time>
      </trkpt>
      <trkpt lat="43.43373" lon="6.15234">
        <ele>184.60000610352</ele>
        <time>2015-06-10T13:21:40Z</time>
      </trkpt>
      <trkpt lat="43.43371" lon="6.15226">
        <ele>185.39999389648</ele>
        <time>2015-06-10T13:21:42Z</time>
      </trkpt>
      <trkpt lat="43.4337" lon="6.15218">
        <ele>185.60000610352</ele>
        <time>2015-06-10T13:21:44Z</time>
      </trkpt>
      <trkpt lat="43.43369" lon="6.15211">
        <ele>185.60000610352</ele>
        <time>2015-06-10T13:21:46Z</time>
      </trkpt>
      <trkpt lat="43.43367" lon="6.15202">
        <ele>185.80000305176</ele>
        <time>2015-06-10T13:21:48Z</time>
      </trkpt>
      <trkpt lat="43.43358" lon="6.15165">
        <ele>184.19999694824</ele>
        <time>2015-06-10T13:21:55Z</time>
      </trkpt>
      <trkpt lat="43.43351" lon="6.15139">
        <ele>183.80000305176</ele>
        <time>2015-06-10T13:21:59Z</time>
      </trkpt>
      <trkpt lat="43.43346" lon="6.15119">
        <ele>183.19999694824</ele>
        <time>2015-06-10T13:22:02Z</time>
      </trkpt>
      <trkpt lat="43.43342" lon="6.15106">
        <ele>182.80000305176</ele>
        <time>2015-06-10T13:22:04Z</time>
      </trkpt>
      <trkpt lat="43.4334" lon="6.15086">
        <ele>183.19999694824</ele>
        <time>2015-06-10T13:22:07Z</time>
      </trkpt>
      <trkpt lat="43.43329" lon="6.15062">
        <ele>182</ele>
        <time>2015-06-10T13:22:11Z</time>
      </trkpt>
      <trkpt lat="43.43325" lon="6.1505">
        <ele>181.80000305176</ele>
        <time>2015-06-10T13:22:13Z</time>
      </trkpt>
      <trkpt lat="43.43324" lon="6.15035">
        <ele>181.80000305176</ele>
        <time>2015-06-10T13:22:16Z</time>
      </trkpt>
      <trkpt lat="43.4332" lon="6.15026">
        <ele>183</ele>
        <time>2015-06-10T13:22:19Z</time>
      </trkpt>
      <trkpt lat="43.43318" lon="6.15024">
        <ele>183.19999694824</ele>
        <time>2015-06-10T13:22:20Z</time>
      </trkpt>
      <trkpt lat="43.43306" lon="6.15013">
        <ele>182.39999389648</ele>
        <time>2015-06-10T13:22:24Z</time>
      </trkpt>
      <trkpt lat="43.43304" lon="6.15007">
        <ele>181.80000305176</ele>
        <time>2015-06-10T13:22:25Z</time>
      </trkpt>
      <trkpt lat="43.43303" lon="6.14999">
        <ele>181.19999694824</ele>
        <time>2015-06-10T13:22:26Z</time>
      </trkpt>
      <trkpt lat="43.43301" lon="6.14991">
        <ele>179.60000610352</ele>
        <time>2015-06-10T13:22:27Z</time>
      </trkpt>
      <trkpt lat="43.43299" lon="6.14982">
        <ele>178.80000305176</ele>
        <time>2015-06-10T13:22:28Z</time>
      </trkpt>
      <trkpt lat="43.43297" lon="6.14974">
        <ele>178.19999694824</ele>
        <time>2015-06-10T13:22:29Z</time>
      </trkpt>
      <trkpt lat="43.43289" lon="6.14934">
        <ele>176</ele>
        <time>2015-06-10T13:22:35Z</time>
      </trkpt>
      <trkpt lat="43.43284" lon="6.14923">
        <ele>177</ele>
        <time>2015-06-10T13:22:37Z</time>
      </trkpt>
      <trkpt lat="43.43279" lon="6.14906">
        <ele>176.80000305176</ele>
        <time>2015-06-10T13:22:40Z</time>
      </trkpt>
      <trkpt lat="43.4327" lon="6.14886">
        <ele>175.80000305176</ele>
        <time>2015-06-10T13:22:44Z</time>
      </trkpt>
      <trkpt lat="43.43264" lon="6.14876">
        <ele>175.80000305176</ele>
        <time>2015-06-10T13:22:46Z</time>
      </trkpt>
      <trkpt lat="43.43256" lon="6.14861">
        <ele>176</ele>
        <time>2015-06-10T13:22:49Z</time>
      </trkpt>
      <trkpt lat="43.43254" lon="6.14854">
        <ele>176.39999389648</ele>
        <time>2015-06-10T13:22:50Z</time>
      </trkpt>
      <trkpt lat="43.43247" lon="6.14826">
        <ele>176.39999389648</ele>
        <time>2015-06-10T13:22:54Z</time>
      </trkpt>
      <trkpt lat="43.43245" lon="6.1482">
        <ele>176.19999694824</ele>
        <time>2015-06-10T13:22:55Z</time>
      </trkpt>
      <trkpt lat="43.43242" lon="6.1481">
        <ele>177</ele>
        <time>2015-06-10T13:22:57Z</time>
      </trkpt>
      <trkpt lat="43.43242" lon="6.14805">
        <ele>177.60000610352</ele>
        <time>2015-06-10T13:22:58Z</time>
      </trkpt>
      <trkpt lat="43.4324" lon="6.14795">
        <ele>177</ele>
        <time>2015-06-10T13:23:00Z</time>
      </trkpt>
      <trkpt lat="43.4324" lon="6.14783">
        <ele>178</ele>
        <time>2015-06-10T13:23:02Z</time>
      </trkpt>
      <trkpt lat="43.43239" lon="6.14769">
        <ele>177.19999694824</ele>
        <time>2015-06-10T13:23:04Z</time>
      </trkpt>
      <trkpt lat="43.43236" lon="6.14755">
        <ele>177.60000610352</ele>
        <time>2015-06-10T13:23:06Z</time>
      </trkpt>
      <trkpt lat="43.4323" lon="6.14741">
        <ele>175.80000305176</ele>
        <time>2015-06-10T13:23:09Z</time>
      </trkpt>
      <trkpt lat="43.43227" lon="6.14731">
        <ele>176.80000305176</ele>
        <time>2015-06-10T13:23:11Z</time>
      </trkpt>
      <trkpt lat="43.43226" lon="6.14727">
        <ele>177.60000610352</ele>
        <time>2015-06-10T13:23:12Z</time>
      </trkpt>
      <trkpt lat="43.43224" lon="6.14718">
        <ele>179</ele>
        <time>2015-06-10T13:23:14Z</time>
      </trkpt>
      <trkpt lat="43.43221" lon="6.14702">
        <ele>178.39999389648</ele>
        <time>2015-06-10T13:23:17Z</time>
      </trkpt>
      <trkpt lat="43.4322" lon="6.14696">
        <ele>178</ele>
        <time>2015-06-10T13:23:18Z</time>
      </trkpt>
      <trkpt lat="43.43216" lon="6.14671">
        <ele>178.39999389648</ele>
        <time>2015-06-10T13:23:22Z</time>
      </trkpt>
      <trkpt lat="43.43208" lon="6.14648">
        <ele>178.60000610352</ele>
        <time>2015-06-10T13:23:27Z</time>
      </trkpt>
      <trkpt lat="43.43205" lon="6.14641">
        <ele>179.60000610352</ele>
        <time>2015-06-10T13:23:29Z</time>
      </trkpt>
      <trkpt lat="43.432" lon="6.14631">
        <ele>180.19999694824</ele>
        <time>2015-06-10T13:23:32Z</time>
      </trkpt>
      <trkpt lat="43.43198" lon="6.14627">
        <ele>180.60000610352</ele>
        <time>2015-06-10T13:23:33Z</time>
      </trkpt>
      <trkpt lat="43.43191" lon="6.14613">
        <ele>181.60000610352</ele>
        <time>2015-06-10T13:23:37Z</time>
      </trkpt>
      <trkpt lat="43.4319" lon="6.1461">
        <ele>181.80000305176</ele>
        <time>2015-06-10T13:23:38Z</time>
      </trkpt>
      <trkpt lat="43.43186" lon="6.14599">
        <ele>182.80000305176</ele>
        <time>2015-06-10T13:23:42Z</time>
      </trkpt>
      <trkpt lat="43.43184" lon="6.14594">
        <ele>183</ele>
        <time>2015-06-10T13:23:44Z</time>
      </trkpt>
      <trkpt lat="43.43179" lon="6.14582">
        <ele>183</ele>
        <time>2015-06-10T13:23:48Z</time>
      </trkpt>
      <trkpt lat="43.43175" lon="6.14569">
        <ele>182.60000610352</ele>
        <time>2015-06-10T13:23:51Z</time>
      </trkpt>
      <trkpt lat="43.43173" lon="6.14564">
        <ele>182.60000610352</ele>
        <time>2015-06-10T13:23:52Z</time>
      </trkpt>
      <trkpt lat="43.43169" lon="6.14553">
        <ele>182.19999694824</ele>
        <time>2015-06-10T13:23:55Z</time>
      </trkpt>
      <trkpt lat="43.43168" lon="6.14549">
        <ele>181.60000610352</ele>
        <time>2015-06-10T13:23:56Z</time>
      </trkpt>
      <trkpt lat="43.43167" lon="6.14528">
        <ele>181.60000610352</ele>
        <time>2015-06-10T13:23:59Z</time>
      </trkpt>
      <trkpt lat="43.43163" lon="6.14512">
        <ele>180.80000305176</ele>
        <time>2015-06-10T13:24:01Z</time>
      </trkpt>
      <trkpt lat="43.43157" lon="6.14498">
        <ele>179</ele>
        <time>2015-06-10T13:24:03Z</time>
      </trkpt>
      <trkpt lat="43.43149" lon="6.14488">
        <ele>178.39999389648</ele>
        <time>2015-06-10T13:24:05Z</time>
      </trkpt>
      <trkpt lat="43.43142" lon="6.1448">
        <ele>178.60000610352</ele>
        <time>2015-06-10T13:24:07Z</time>
      </trkpt>
      <trkpt lat="43.43129" lon="6.14465">
        <ele>178</ele>
        <time>2015-06-10T13:24:10Z</time>
      </trkpt>
      <trkpt lat="43.43126" lon="6.1446">
        <ele>177.80000305176</ele>
        <time>2015-06-10T13:24:11Z</time>
      </trkpt>
      <trkpt lat="43.43124" lon="6.14454">
        <ele>177.60000610352</ele>
        <time>2015-06-10T13:24:12Z</time>
      </trkpt>
      <trkpt lat="43.43116" lon="6.14435">
        <ele>178</ele>
        <time>2015-06-10T13:24:16Z</time>
      </trkpt>
      <trkpt lat="43.43111" lon="6.14418">
        <ele>179</ele>
        <time>2015-06-10T13:24:19Z</time>
      </trkpt>
      <trkpt lat="43.43108" lon="6.14408">
        <ele>178.80000305176</ele>
        <time>2015-06-10T13:24:21Z</time>
      </trkpt>
      <trkpt lat="43.43102" lon="6.14382">
        <ele>178.39999389648</ele>
        <time>2015-06-10T13:24:26Z</time>
      </trkpt>
      <trkpt lat="43.43102" lon="6.14349">
        <ele>178.80000305176</ele>
        <time>2015-06-10T13:24:32Z</time>
      </trkpt>
      <trkpt lat="43.43104" lon="6.14336">
        <ele>178.19999694824</ele>
        <time>2015-06-10T13:24:34Z</time>
      </trkpt>
      <trkpt lat="43.43107" lon="6.14313">
        <ele>178</ele>
        <time>2015-06-10T13:24:38Z</time>
      </trkpt>
      <trkpt lat="43.43112" lon="6.14293">
        <ele>178.19999694824</ele>
        <time>2015-06-10T13:24:43Z</time>
      </trkpt>
      <trkpt lat="43.43116" lon="6.14276">
        <ele>178.39999389648</ele>
        <time>2015-06-10T13:24:47Z</time>
      </trkpt>
      <trkpt lat="43.43118" lon="6.14267">
        <ele>178.39999389648</ele>
        <time>2015-06-10T13:24:49Z</time>
      </trkpt>
      <trkpt lat="43.43119" lon="6.14256">
        <ele>178.60000610352</ele>
        <time>2015-06-10T13:24:53Z</time>
      </trkpt>
      <trkpt lat="43.43121" lon="6.14254">
        <ele>179</ele>
        <time>2015-06-10T13:24:57Z</time>
      </trkpt>
      <trkpt lat="43.43121" lon="6.14254">
        <ele>178.80000305176</ele>
        <time>2015-06-10T13:25:00Z</time>
      </trkpt>
      <trkpt lat="43.43121" lon="6.14254">
        <ele>178.60000610352</ele>
        <time>2015-06-10T13:25:03Z</time>
      </trkpt>
      <trkpt lat="43.43121" lon="6.14254">
        <ele>178.80000305176</ele>
        <time>2015-06-10T13:25:11Z</time>
      </trkpt>
      <trkpt lat="43.43121" lon="6.14254">
        <ele>178.60000610352</ele>
        <time>2015-06-10T13:25:26Z</time>
      </trkpt>
      <trkpt lat="43.43121" lon="6.14253">
        <ele>178.60000610352</ele>
        <time>2015-06-10T13:25:48Z</time>
      </trkpt>
      <trkpt lat="43.43121" lon="6.14253">
        <ele>178.60000610352</ele>
        <time>2015-06-10T13:25:58Z</time>
      </trkpt>
      <trkpt lat="43.43121" lon="6.14253">
        <ele>179</ele>
        <time>2015-06-10T13:26:02Z</time>
      </trkpt>
      <trkpt lat="43.43122" lon="6.14246">
        <ele>178.80000305176</ele>
        <time>2015-06-10T13:26:06Z</time>
      </trkpt>
      <trkpt lat="43.43125" lon="6.14225">
        <ele>179.39999389648</ele>
        <time>2015-06-10T13:26:12Z</time>
      </trkpt>
      <trkpt lat="43.43126" lon="6.14211">
        <ele>179.80000305176</ele>
        <time>2015-06-10T13:26:16Z</time>
      </trkpt>
      <trkpt lat="43.43126" lon="6.14199">
        <ele>179.80000305176</ele>
        <time>2015-06-10T13:26:19Z</time>
      </trkpt>
      <trkpt lat="43.43127" lon="6.14195">
        <ele>180.19999694824</ele>
        <time>2015-06-10T13:26:20Z</time>
      </trkpt>
      <trkpt lat="43.43128" lon="6.14183">
        <ele>181.19999694824</ele>
        <time>2015-06-10T13:26:23Z</time>
      </trkpt>
      <trkpt lat="43.43128" lon="6.1418">
        <ele>181.39999389648</ele>
        <time>2015-06-10T13:26:24Z</time>
      </trkpt>
      <trkpt lat="43.43126" lon="6.14168">
        <ele>181.60000610352</ele>
        <time>2015-06-10T13:26:27Z</time>
      </trkpt>
      <trkpt lat="43.43125" lon="6.14161">
        <ele>182.19999694824</ele>
        <time>2015-06-10T13:26:29Z</time>
      </trkpt>
      <trkpt lat="43.43122" lon="6.14154">
        <ele>182.39999389648</ele>
        <time>2015-06-10T13:26:31Z</time>
      </trkpt>
      <trkpt lat="43.43121" lon="6.14151">
        <ele>182.60000610352</ele>
        <time>2015-06-10T13:26:32Z</time>
      </trkpt>
      <trkpt lat="43.43119" lon="6.14144">
        <ele>182.80000305176</ele>
        <time>2015-06-10T13:26:34Z</time>
      </trkpt>
      <trkpt lat="43.43118" lon="6.14135">
        <ele>184</ele>
        <time>2015-06-10T13:26:37Z</time>
      </trkpt>
      <trkpt lat="43.43119" lon="6.14132">
        <ele>184.39999389648</ele>
        <time>2015-06-10T13:26:38Z</time>
      </trkpt>
      <trkpt lat="43.43119" lon="6.14123">
        <ele>184</ele>
        <time>2015-06-10T13:26:41Z</time>
      </trkpt>
      <trkpt lat="43.43119" lon="6.14116">
        <ele>183.80000305176</ele>
        <time>2015-06-10T13:26:43Z</time>
      </trkpt>
      <trkpt lat="43.43119" lon="6.14101">
        <ele>184.60000610352</ele>
        <time>2015-06-10T13:26:47Z</time>
      </trkpt>
      <trkpt lat="43.43114" lon="6.14079">
        <ele>185.39999389648</ele>
        <time>2015-06-10T13:26:53Z</time>
      </trkpt>
      <trkpt lat="43.43114" lon="6.14058">
        <ele>185</ele>
        <time>2015-06-10T13:26:58Z</time>
      </trkpt>
      <trkpt lat="43.43111" lon="6.14026">
        <ele>185.60000610352</ele>
        <time>2015-06-10T13:27:06Z</time>
      </trkpt>
      <trkpt lat="43.4311" lon="6.14009">
        <ele>186.19999694824</ele>
        <time>2015-06-10T13:27:11Z</time>
      </trkpt>
      <trkpt lat="43.43109" lon="6.14006">
        <ele>186.19999694824</ele>
        <time>2015-06-10T13:27:12Z</time>
      </trkpt>
      <trkpt lat="43.43105" lon="6.13991">
        <ele>186.60000610352</ele>
        <time>2015-06-10T13:27:17Z</time>
      </trkpt>
      <trkpt lat="43.43099" lon="6.13974">
        <ele>187.60000610352</ele>
        <time>2015-06-10T13:27:22Z</time>
      </trkpt>
      <trkpt lat="43.43093" lon="6.13957">
        <ele>187</ele>
        <time>2015-06-10T13:27:27Z</time>
      </trkpt>
      <trkpt lat="43.43092" lon="6.13953">
        <ele>186.80000305176</ele>
        <time>2015-06-10T13:27:28Z</time>
      </trkpt>
      <trkpt lat="43.4309" lon="6.13949">
        <ele>186.39999389648</ele>
        <time>2015-06-10T13:27:29Z</time>
      </trkpt>
      <trkpt lat="43.43087" lon="6.13941">
        <ele>186.39999389648</ele>
        <time>2015-06-10T13:27:31Z</time>
      </trkpt>
      <trkpt lat="43.43082" lon="6.13931">
        <ele>186.39999389648</ele>
        <time>2015-06-10T13:27:33Z</time>
      </trkpt>
      <trkpt lat="43.43074" lon="6.1391">
        <ele>185.39999389648</ele>
        <time>2015-06-10T13:27:37Z</time>
      </trkpt>
      <trkpt lat="43.43074" lon="6.13898">
        <ele>185</ele>
        <time>2015-06-10T13:27:39Z</time>
      </trkpt>
      <trkpt lat="43.43074" lon="6.13881">
        <ele>184.39999389648</ele>
        <time>2015-06-10T13:27:42Z</time>
      </trkpt>
      <trkpt lat="43.43074" lon="6.13868">
        <ele>184</ele>
        <time>2015-06-10T13:27:44Z</time>
      </trkpt>
      <trkpt lat="43.43072" lon="6.13855">
        <ele>183</ele>
        <time>2015-06-10T13:27:46Z</time>
      </trkpt>
      <trkpt lat="43.43068" lon="6.13834">
        <ele>182.19999694824</ele>
        <time>2015-06-10T13:27:49Z</time>
      </trkpt>
      <trkpt lat="43.43064" lon="6.13804">
        <ele>181</ele>
        <time>2015-06-10T13:27:53Z</time>
      </trkpt>
      <trkpt lat="43.43061" lon="6.13789">
        <ele>181.39999389648</ele>
        <time>2015-06-10T13:27:55Z</time>
      </trkpt>
      <trkpt lat="43.43059" lon="6.13781">
        <ele>181.39999389648</ele>
        <time>2015-06-10T13:27:56Z</time>
      </trkpt>
      <trkpt lat="43.43047" lon="6.13752">
        <ele>180.80000305176</ele>
        <time>2015-06-10T13:28:00Z</time>
      </trkpt>
      <trkpt lat="43.43037" lon="6.13731">
        <ele>180.19999694824</ele>
        <time>2015-06-10T13:28:03Z</time>
      </trkpt>
      <trkpt lat="43.43031" lon="6.13721">
        <ele>180</ele>
        <time>2015-06-10T13:28:05Z</time>
      </trkpt>
      <trkpt lat="43.43027" lon="6.1371">
        <ele>180.39999389648</ele>
        <time>2015-06-10T13:28:07Z</time>
      </trkpt>
      <trkpt lat="43.43026" lon="6.13704">
        <ele>180.39999389648</ele>
        <time>2015-06-10T13:28:08Z</time>
      </trkpt>
      <trkpt lat="43.43025" lon="6.13691">
        <ele>180.80000305176</ele>
        <time>2015-06-10T13:28:10Z</time>
      </trkpt>
      <trkpt lat="43.43023" lon="6.13662">
        <ele>180.60000610352</ele>
        <time>2015-06-10T13:28:15Z</time>
      </trkpt>
      <trkpt lat="43.43025" lon="6.1364">
        <ele>180</ele>
        <time>2015-06-10T13:28:20Z</time>
      </trkpt>
      <trkpt lat="43.43028" lon="6.13615">
        <ele>180</ele>
        <time>2015-06-10T13:28:25Z</time>
      </trkpt>
      <trkpt lat="43.43033" lon="6.13595">
        <ele>180</ele>
        <time>2015-06-10T13:28:29Z</time>
      </trkpt>
      <trkpt lat="43.43036" lon="6.13576">
        <ele>180.39999389648</ele>
        <time>2015-06-10T13:28:33Z</time>
      </trkpt>
      <trkpt lat="43.43038" lon="6.13557">
        <ele>180.39999389648</ele>
        <time>2015-06-10T13:28:37Z</time>
      </trkpt>
      <trkpt lat="43.43042" lon="6.13524">
        <ele>180.19999694824</ele>
        <time>2015-06-10T13:28:42Z</time>
      </trkpt>
      <trkpt lat="43.43044" lon="6.13501">
        <ele>180</ele>
        <time>2015-06-10T13:28:45Z</time>
      </trkpt>
      <trkpt lat="43.43044" lon="6.13494">
        <ele>180.19999694824</ele>
        <time>2015-06-10T13:28:46Z</time>
      </trkpt>
      <trkpt lat="43.43044" lon="6.13473">
        <ele>179.39999389648</ele>
        <time>2015-06-10T13:28:49Z</time>
      </trkpt>
      <trkpt lat="43.43045" lon="6.13456">
        <ele>180.39999389648</ele>
        <time>2015-06-10T13:28:53Z</time>
      </trkpt>
      <trkpt lat="43.43046" lon="6.13453">
        <ele>180.39999389648</ele>
        <time>2015-06-10T13:29:05Z</time>
      </trkpt>
      <trkpt lat="43.43048" lon="6.13452">
        <ele>180.39999389648</ele>
        <time>2015-06-10T13:29:09Z</time>
      </trkpt>
      <trkpt lat="43.43048" lon="6.13452">
        <ele>180.60000610352</ele>
        <time>2015-06-10T13:29:11Z</time>
      </trkpt>
      <trkpt lat="43.43066" lon="6.13442">
        <ele>179.60000610352</ele>
        <time>2015-06-10T13:29:24Z</time>
      </trkpt>
      <trkpt lat="43.43076" lon="6.1344">
        <ele>180.39999389648</ele>
        <time>2015-06-10T13:29:29Z</time>
      </trkpt>
      <trkpt lat="43.43078" lon="6.13439">
        <ele>181.19999694824</ele>
        <time>2015-06-10T13:29:31Z</time>
      </trkpt>
      <trkpt lat="43.43082" lon="6.13439">
        <ele>181.60000610352</ele>
        <time>2015-06-10T13:29:36Z</time>
      </trkpt>
      <trkpt lat="43.43091" lon="6.13438">
        <ele>181.80000305176</ele>
        <time>2015-06-10T13:29:43Z</time>
      </trkpt>
      <trkpt lat="43.431" lon="6.13432">
        <ele>181.60000610352</ele>
        <time>2015-06-10T13:29:49Z</time>
      </trkpt>
      <trkpt lat="43.43105" lon="6.13419">
        <ele>181.60000610352</ele>
        <time>2015-06-10T13:29:53Z</time>
      </trkpt>
      <trkpt lat="43.43107" lon="6.13412">
        <ele>181.39999389648</ele>
        <time>2015-06-10T13:29:55Z</time>
      </trkpt>
      <trkpt lat="43.43118" lon="6.13375">
        <ele>181.39999389648</ele>
        <time>2015-06-10T13:30:03Z</time>
      </trkpt>
      <trkpt lat="43.43124" lon="6.13344">
        <ele>181.60000610352</ele>
        <time>2015-06-10T13:30:08Z</time>
      </trkpt>
      <trkpt lat="43.43126" lon="6.1333">
        <ele>181.60000610352</ele>
        <time>2015-06-10T13:30:10Z</time>
      </trkpt>
      <trkpt lat="43.4313" lon="6.13274">
        <ele>181.39999389648</ele>
        <time>2015-06-10T13:30:18Z</time>
      </trkpt>
      <trkpt lat="43.43126" lon="6.13224">
        <ele>181</ele>
        <time>2015-06-10T13:30:25Z</time>
      </trkpt>
      <trkpt lat="43.43111" lon="6.13168">
        <ele>181.80000305176</ele>
        <time>2015-06-10T13:30:33Z</time>
      </trkpt>
      <trkpt lat="43.43093" lon="6.13093">
        <ele>181.80000305176</ele>
        <time>2015-06-10T13:30:43Z</time>
      </trkpt>
      <trkpt lat="43.43076" lon="6.13024">
        <ele>182.19999694824</ele>
        <time>2015-06-10T13:30:52Z</time>
      </trkpt>
      <trkpt lat="43.43069" lon="6.13">
        <ele>182.39999389648</ele>
        <time>2015-06-10T13:30:55Z</time>
      </trkpt>
      <trkpt lat="43.43053" lon="6.12936">
        <ele>182.19999694824</ele>
        <time>2015-06-10T13:31:03Z</time>
      </trkpt>
      <trkpt lat="43.43036" lon="6.12872">
        <ele>182.19999694824</ele>
        <time>2015-06-10T13:31:11Z</time>
      </trkpt>
      <trkpt lat="43.43024" lon="6.12818">
        <ele>182.19999694824</ele>
        <time>2015-06-10T13:31:18Z</time>
      </trkpt>
      <trkpt lat="43.43023" lon="6.12809">
        <ele>182.19999694824</ele>
        <time>2015-06-10T13:31:19Z</time>
      </trkpt>
      <trkpt lat="43.43021" lon="6.12755">
        <ele>182.19999694824</ele>
        <time>2015-06-10T13:31:25Z</time>
      </trkpt>
      <trkpt lat="43.43021" lon="6.12707">
        <ele>182</ele>
        <time>2015-06-10T13:31:30Z</time>
      </trkpt>
      <trkpt lat="43.43023" lon="6.12679">
        <ele>181.80000305176</ele>
        <time>2015-06-10T13:31:33Z</time>
      </trkpt>
      <trkpt lat="43.43023" lon="6.1267">
        <ele>181.80000305176</ele>
        <time>2015-06-10T13:31:34Z</time>
      </trkpt>
      <trkpt lat="43.43024" lon="6.12621">
        <ele>182.60000610352</ele>
        <time>2015-06-10T13:31:40Z</time>
      </trkpt>
      <trkpt lat="43.43025" lon="6.126">
        <ele>182.60000610352</ele>
        <time>2015-06-10T13:31:43Z</time>
      </trkpt>
      <trkpt lat="43.43029" lon="6.12587">
        <ele>182.60000610352</ele>
        <time>2015-06-10T13:31:45Z</time>
      </trkpt>
      <trkpt lat="43.43032" lon="6.12582">
        <ele>182.80000305176</ele>
        <time>2015-06-10T13:31:46Z</time>
      </trkpt>
      <trkpt lat="43.43043" lon="6.12568">
        <ele>183.19999694824</ele>
        <time>2015-06-10T13:31:49Z</time>
      </trkpt>
      <trkpt lat="43.4305" lon="6.12561">
        <ele>184</ele>
        <time>2015-06-10T13:31:51Z</time>
      </trkpt>
      <trkpt lat="43.4306" lon="6.12546">
        <ele>185.19999694824</ele>
        <time>2015-06-10T13:31:55Z</time>
      </trkpt>
      <trkpt lat="43.43064" lon="6.1254">
        <ele>185.60000610352</ele>
        <time>2015-06-10T13:31:57Z</time>
      </trkpt>
      <trkpt lat="43.43069" lon="6.12528">
        <ele>186.39999389648</ele>
        <time>2015-06-10T13:32:00Z</time>
      </trkpt>
      <trkpt lat="43.43077" lon="6.12487">
        <ele>186.60000610352</ele>
        <time>2015-06-10T13:32:09Z</time>
      </trkpt>
      <trkpt lat="43.43077" lon="6.12475">
        <ele>186.19999694824</ele>
        <time>2015-06-10T13:32:11Z</time>
      </trkpt>
      <trkpt lat="43.43075" lon="6.12468">
        <ele>186.60000610352</ele>
        <time>2015-06-10T13:32:13Z</time>
      </trkpt>
      <trkpt lat="43.43074" lon="6.12465">
        <ele>186.80000305176</ele>
        <time>2015-06-10T13:32:14Z</time>
      </trkpt>
      <trkpt lat="43.43072" lon="6.12445">
        <ele>186.39999389648</ele>
        <time>2015-06-10T13:32:19Z</time>
      </trkpt>
      <trkpt lat="43.43063" lon="6.12427">
        <ele>187</ele>
        <time>2015-06-10T13:32:24Z</time>
      </trkpt>
      <trkpt lat="43.43061" lon="6.12425">
        <ele>187.19999694824</ele>
        <time>2015-06-10T13:32:25Z</time>
      </trkpt>
      <trkpt lat="43.43055" lon="6.12416">
        <ele>187.60000610352</ele>
        <time>2015-06-10T13:32:30Z</time>
      </trkpt>
      <trkpt lat="43.43053" lon="6.1241">
        <ele>188.39999389648</ele>
        <time>2015-06-10T13:32:33Z</time>
      </trkpt>
      <trkpt lat="43.4305" lon="6.12405">
        <ele>189</ele>
        <time>2015-06-10T13:32:36Z</time>
      </trkpt>
      <trkpt lat="43.43047" lon="6.12401">
        <ele>189.80000305176</ele>
        <time>2015-06-10T13:32:39Z</time>
      </trkpt>
      <trkpt lat="43.43044" lon="6.12396">
        <ele>190.60000610352</ele>
        <time>2015-06-10T13:32:42Z</time>
      </trkpt>
      <trkpt lat="43.4304" lon="6.12385">
        <ele>191.39999389648</ele>
        <time>2015-06-10T13:32:47Z</time>
      </trkpt>
      <trkpt lat="43.43037" lon="6.12377">
        <ele>191.80000305176</ele>
        <time>2015-06-10T13:32:51Z</time>
      </trkpt>
      <trkpt lat="43.43034" lon="6.12368">
        <ele>193</ele>
        <time>2015-06-10T13:32:55Z</time>
      </trkpt>
      <trkpt lat="43.43033" lon="6.12362">
        <ele>193.60000610352</ele>
        <time>2015-06-10T13:32:58Z</time>
      </trkpt>
      <trkpt lat="43.43031" lon="6.12355">
        <ele>194</ele>
        <time>2015-06-10T13:33:01Z</time>
      </trkpt>
      <trkpt lat="43.4303" lon="6.12345">
        <ele>194.60000610352</ele>
        <time>2015-06-10T13:33:05Z</time>
      </trkpt>
      <trkpt lat="43.43027" lon="6.12329">
        <ele>195</ele>
        <time>2015-06-10T13:33:11Z</time>
      </trkpt>
      <trkpt lat="43.43027" lon="6.12314">
        <ele>195.60000610352</ele>
        <time>2015-06-10T13:33:17Z</time>
      </trkpt>
      <trkpt lat="43.43025" lon="6.12301">
        <ele>195.80000305176</ele>
        <time>2015-06-10T13:33:23Z</time>
      </trkpt>
      <trkpt lat="43.43026" lon="6.12299">
        <ele>195.80000305176</ele>
        <time>2015-06-10T13:33:29Z</time>
      </trkpt>
      <trkpt lat="43.43025" lon="6.12295">
        <ele>196.60000610352</ele>
        <time>2015-06-10T13:33:35Z</time>
      </trkpt>
      <trkpt lat="43.43025" lon="6.12295">
        <ele>196.60000610352</ele>
        <time>2015-06-10T13:33:36Z</time>
      </trkpt>
      <trkpt lat="43.43026" lon="6.12291">
        <ele>196.60000610352</ele>
        <time>2015-06-10T13:33:40Z</time>
      </trkpt>
      <trkpt lat="43.43025" lon="6.12291">
        <ele>196.60000610352</ele>
        <time>2015-06-10T13:33:44Z</time>
      </trkpt>
      <trkpt lat="43.43025" lon="6.12291">
        <ele>196.80000305176</ele>
        <time>2015-06-10T13:33:49Z</time>
      </trkpt>
      <trkpt lat="43.43026" lon="6.1229">
        <ele>196.80000305176</ele>
        <time>2015-06-10T13:33:54Z</time>
      </trkpt>
      <trkpt lat="43.43026" lon="6.12289">
        <ele>196.60000610352</ele>
        <time>2015-06-10T13:34:00Z</time>
      </trkpt>
      <trkpt lat="43.43026" lon="6.12289">
        <ele>196.60000610352</ele>
        <time>2015-06-10T13:34:04Z</time>
      </trkpt>
      <trkpt lat="43.43026" lon="6.12287">
        <ele>196.39999389648</ele>
        <time>2015-06-10T13:34:06Z</time>
      </trkpt>
      <trkpt lat="43.43022" lon="6.12274">
        <ele>197</ele>
        <time>2015-06-10T13:34:12Z</time>
      </trkpt>
      <trkpt lat="43.43017" lon="6.12262">
        <ele>197.80000305176</ele>
        <time>2015-06-10T13:34:17Z</time>
      </trkpt>
      <trkpt lat="43.43016" lon="6.12259">
        <ele>198</ele>
        <time>2015-06-10T13:34:18Z</time>
      </trkpt>
      <trkpt lat="43.43012" lon="6.12245">
        <ele>198.60000610352</ele>
        <time>2015-06-10T13:34:23Z</time>
      </trkpt>
      <trkpt lat="43.4301" lon="6.12239">
        <ele>199</ele>
        <time>2015-06-10T13:34:25Z</time>
      </trkpt>
      <trkpt lat="43.43006" lon="6.12218">
        <ele>200</ele>
        <time>2015-06-10T13:34:31Z</time>
      </trkpt>
      <trkpt lat="43.43002" lon="6.12196">
        <ele>200.80000305176</ele>
        <time>2015-06-10T13:34:38Z</time>
      </trkpt>
      <trkpt lat="43.43" lon="6.12187">
        <ele>201.19999694824</ele>
        <time>2015-06-10T13:34:41Z</time>
      </trkpt>
      <trkpt lat="43.42997" lon="6.12178">
        <ele>202</ele>
        <time>2015-06-10T13:34:44Z</time>
      </trkpt>
      <trkpt lat="43.42991" lon="6.12156">
        <ele>202.80000305176</ele>
        <time>2015-06-10T13:34:51Z</time>
      </trkpt>
      <trkpt lat="43.42983" lon="6.1213">
        <ele>203.19999694824</ele>
        <time>2015-06-10T13:34:58Z</time>
      </trkpt>
      <trkpt lat="43.42981" lon="6.12123">
        <ele>203.39999389648</ele>
        <time>2015-06-10T13:35:00Z</time>
      </trkpt>
      <trkpt lat="43.42976" lon="6.12104">
        <ele>203.39999389648</ele>
        <time>2015-06-10T13:35:05Z</time>
      </trkpt>
      <trkpt lat="43.4297" lon="6.12085">
        <ele>204.39999389648</ele>
        <time>2015-06-10T13:35:10Z</time>
      </trkpt>
      <trkpt lat="43.42966" lon="6.12071">
        <ele>204.60000610352</ele>
        <time>2015-06-10T13:35:14Z</time>
      </trkpt>
      <trkpt lat="43.42957" lon="6.12036">
        <ele>205.80000305176</ele>
        <time>2015-06-10T13:35:23Z</time>
      </trkpt>
      <trkpt lat="43.42946" lon="6.12009">
        <ele>206.19999694824</ele>
        <time>2015-06-10T13:35:31Z</time>
      </trkpt>
      <trkpt lat="43.42942" lon="6.11996">
        <ele>206.60000610352</ele>
        <time>2015-06-10T13:35:35Z</time>
      </trkpt>
      <trkpt lat="43.4294" lon="6.11975">
        <ele>207</ele>
        <time>2015-06-10T13:35:41Z</time>
      </trkpt>
      <trkpt lat="43.42938" lon="6.11968">
        <ele>207.60000610352</ele>
        <time>2015-06-10T13:35:43Z</time>
      </trkpt>
      <trkpt lat="43.42933" lon="6.11951">
        <ele>208</ele>
        <time>2015-06-10T13:35:49Z</time>
      </trkpt>
      <trkpt lat="43.4293" lon="6.11948">
        <ele>208.80000305176</ele>
        <time>2015-06-10T13:35:51Z</time>
      </trkpt>
      <trkpt lat="43.42929" lon="6.11943">
        <ele>208.60000610352</ele>
        <time>2015-06-10T13:35:53Z</time>
      </trkpt>
      <trkpt lat="43.42922" lon="6.11923">
        <ele>209.60000610352</ele>
        <time>2015-06-10T13:36:02Z</time>
      </trkpt>
      <trkpt lat="43.42923" lon="6.11918">
        <ele>209.80000305176</ele>
        <time>2015-06-10T13:36:04Z</time>
      </trkpt>
      <trkpt lat="43.42924" lon="6.11916">
        <ele>210</ele>
        <time>2015-06-10T13:36:05Z</time>
      </trkpt>
      <trkpt lat="43.42923" lon="6.11903">
        <ele>209.80000305176</ele>
        <time>2015-06-10T13:36:09Z</time>
      </trkpt>
      <trkpt lat="43.4292" lon="6.11897">
        <ele>210.19999694824</ele>
        <time>2015-06-10T13:36:11Z</time>
      </trkpt>
      <trkpt lat="43.42917" lon="6.11881">
        <ele>210.39999389648</ele>
        <time>2015-06-10T13:36:16Z</time>
      </trkpt>
      <trkpt lat="43.42916" lon="6.11872">
        <ele>210.80000305176</ele>
        <time>2015-06-10T13:36:19Z</time>
      </trkpt>
      <trkpt lat="43.42913" lon="6.11861">
        <ele>211</ele>
        <time>2015-06-10T13:36:23Z</time>
      </trkpt>
      <trkpt lat="43.42912" lon="6.11858">
        <ele>211</ele>
        <time>2015-06-10T13:36:24Z</time>
      </trkpt>
      <trkpt lat="43.4291" lon="6.11843">
        <ele>211.60000610352</ele>
        <time>2015-06-10T13:36:28Z</time>
      </trkpt>
      <trkpt lat="43.42905" lon="6.11828">
        <ele>211.80000305176</ele>
        <time>2015-06-10T13:36:33Z</time>
      </trkpt>
      <trkpt lat="43.42905" lon="6.11826">
        <ele>212</ele>
        <time>2015-06-10T13:36:34Z</time>
      </trkpt>
      <trkpt lat="43.429" lon="6.11813">
        <ele>212.80000305176</ele>
        <time>2015-06-10T13:36:39Z</time>
      </trkpt>
      <trkpt lat="43.42898" lon="6.11795">
        <ele>213</ele>
        <time>2015-06-10T13:36:45Z</time>
      </trkpt>
      <trkpt lat="43.42891" lon="6.11782">
        <ele>213.60000610352</ele>
        <time>2015-06-10T13:36:51Z</time>
      </trkpt>
      <trkpt lat="43.4289" lon="6.11778">
        <ele>214</ele>
        <time>2015-06-10T13:36:53Z</time>
      </trkpt>
      <trkpt lat="43.42887" lon="6.11774">
        <ele>214.39999389648</ele>
        <time>2015-06-10T13:36:56Z</time>
      </trkpt>
      <trkpt lat="43.42884" lon="6.11772">
        <ele>214.39999389648</ele>
        <time>2015-06-10T13:37:00Z</time>
      </trkpt>
      <trkpt lat="43.42884" lon="6.11772">
        <ele>214.80000305176</ele>
        <time>2015-06-10T13:37:08Z</time>
      </trkpt>
      <trkpt lat="43.42883" lon="6.1177">
        <ele>215.19999694824</ele>
        <time>2015-06-10T13:37:12Z</time>
      </trkpt>
      <trkpt lat="43.42881" lon="6.11769">
        <ele>215.39999389648</ele>
        <time>2015-06-10T13:37:15Z</time>
      </trkpt>
      <trkpt lat="43.42881" lon="6.11769">
        <ele>214.80000305176</ele>
        <time>2015-06-10T13:37:18Z</time>
      </trkpt>
      <trkpt lat="43.42881" lon="6.11769">
        <ele>215</ele>
        <time>2015-06-10T13:37:24Z</time>
      </trkpt>
      <trkpt lat="43.42879" lon="6.11769">
        <ele>215.39999389648</ele>
        <time>2015-06-10T13:37:42Z</time>
      </trkpt>
      <trkpt lat="43.42879" lon="6.11769">
        <ele>215.60000610352</ele>
        <time>2015-06-10T13:37:45Z</time>
      </trkpt>
      <trkpt lat="43.42879" lon="6.11769">
        <ele>216.39999389648</ele>
        <time>2015-06-10T13:37:51Z</time>
      </trkpt>
      <trkpt lat="43.42879" lon="6.11769">
        <ele>217</ele>
        <time>2015-06-10T13:37:57Z</time>
      </trkpt>
      <trkpt lat="43.42879" lon="6.11769">
        <ele>215.19999694824</ele>
        <time>2015-06-10T13:38:19Z</time>
      </trkpt>
      <trkpt lat="43.42879" lon="6.11769">
        <ele>215.80000305176</ele>
        <time>2015-06-10T13:39:17Z</time>
      </trkpt>
      <trkpt lat="43.42878" lon="6.11771">
        <ele>216</ele>
        <time>2015-06-10T13:39:33Z</time>
      </trkpt>
      <trkpt lat="43.42876" lon="6.11775">
        <ele>216.39999389648</ele>
        <time>2015-06-10T13:39:40Z</time>
      </trkpt>
      <trkpt lat="43.42876" lon="6.11775">
        <ele>216.60000610352</ele>
        <time>2015-06-10T13:39:41Z</time>
      </trkpt>
      <trkpt lat="43.42876" lon="6.11775">
        <ele>216.39999389648</ele>
        <time>2015-06-10T13:39:53Z</time>
      </trkpt>
      <trkpt lat="43.42876" lon="6.11775">
        <ele>216.80000305176</ele>
        <time>2015-06-10T13:40:13Z</time>
      </trkpt>
      <trkpt lat="43.42876" lon="6.11776">
        <ele>217</ele>
        <time>2015-06-10T13:40:16Z</time>
      </trkpt>
      <trkpt lat="43.42876" lon="6.11777">
        <ele>217</ele>
        <time>2015-06-10T13:40:17Z</time>
      </trkpt>
      <trkpt lat="43.42875" lon="6.1178">
        <ele>216.80000305176</ele>
        <time>2015-06-10T13:40:20Z</time>
      </trkpt>
      <trkpt lat="43.42875" lon="6.11786">
        <ele>217.19999694824</ele>
        <time>2015-06-10T13:40:23Z</time>
      </trkpt>
      <trkpt lat="43.42874" lon="6.11794">
        <ele>217.60000610352</ele>
        <time>2015-06-10T13:40:27Z</time>
      </trkpt>
      <trkpt lat="43.42872" lon="6.11799">
        <ele>218.39999389648</ele>
        <time>2015-06-10T13:40:30Z</time>
      </trkpt>
      <trkpt lat="43.4287" lon="6.11811">
        <ele>219.19999694824</ele>
        <time>2015-06-10T13:40:36Z</time>
      </trkpt>
      <trkpt lat="43.42869" lon="6.11823">
        <ele>219.80000305176</ele>
        <time>2015-06-10T13:40:43Z</time>
      </trkpt>
      <trkpt lat="43.42868" lon="6.1183">
        <ele>220</ele>
        <time>2015-06-10T13:40:47Z</time>
      </trkpt>
      <trkpt lat="43.42867" lon="6.11838">
        <ele>221</ele>
        <time>2015-06-10T13:40:51Z</time>
      </trkpt>
      <trkpt lat="43.42866" lon="6.11846">
        <ele>221.39999389648</ele>
        <time>2015-06-10T13:40:55Z</time>
      </trkpt>
      <trkpt lat="43.4287" lon="6.11859">
        <ele>221.80000305176</ele>
        <time>2015-06-10T13:41:02Z</time>
      </trkpt>
      <trkpt lat="43.4287" lon="6.11863">
        <ele>221.80000305176</ele>
        <time>2015-06-10T13:41:04Z</time>
      </trkpt>
      <trkpt lat="43.4287" lon="6.11867">
        <ele>222.19999694824</ele>
        <time>2015-06-10T13:41:06Z</time>
      </trkpt>
      <trkpt lat="43.42871" lon="6.1187">
        <ele>222.39999389648</ele>
        <time>2015-06-10T13:41:08Z</time>
      </trkpt>
      <trkpt lat="43.4287" lon="6.1188">
        <ele>223.19999694824</ele>
        <time>2015-06-10T13:41:14Z</time>
      </trkpt>
      <trkpt lat="43.4287" lon="6.11882">
        <ele>223.19999694824</ele>
        <time>2015-06-10T13:41:15Z</time>
      </trkpt>
      <trkpt lat="43.42871" lon="6.11888">
        <ele>223.39999389648</ele>
        <time>2015-06-10T13:41:20Z</time>
      </trkpt>
      <trkpt lat="43.42872" lon="6.1189">
        <ele>223.80000305176</ele>
        <time>2015-06-10T13:41:26Z</time>
      </trkpt>
      <trkpt lat="43.42874" lon="6.11895">
        <ele>224</ele>
        <time>2015-06-10T13:41:33Z</time>
      </trkpt>
      <trkpt lat="43.42875" lon="6.11896">
        <ele>224.39999389648</ele>
        <time>2015-06-10T13:41:35Z</time>
      </trkpt>
      <trkpt lat="43.42876" lon="6.11902">
        <ele>224.39999389648</ele>
        <time>2015-06-10T13:41:38Z</time>
      </trkpt>
      <trkpt lat="43.42876" lon="6.11912">
        <ele>224.80000305176</ele>
        <time>2015-06-10T13:41:44Z</time>
      </trkpt>
      <trkpt lat="43.42876" lon="6.11917">
        <ele>225.39999389648</ele>
        <time>2015-06-10T13:41:47Z</time>
      </trkpt>
      <trkpt lat="43.42876" lon="6.11925">
        <ele>225.80000305176</ele>
        <time>2015-06-10T13:41:51Z</time>
      </trkpt>
      <trkpt lat="43.42879" lon="6.11941">
        <ele>226.80000305176</ele>
        <time>2015-06-10T13:42:00Z</time>
      </trkpt>
      <trkpt lat="43.42881" lon="6.11954">
        <ele>227.60000610352</ele>
        <time>2015-06-10T13:42:07Z</time>
      </trkpt>
      <trkpt lat="43.42881" lon="6.11957">
        <ele>228</ele>
        <time>2015-06-10T13:42:09Z</time>
      </trkpt>
      <trkpt lat="43.42882" lon="6.11964">
        <ele>228.19999694824</ele>
        <time>2015-06-10T13:42:12Z</time>
      </trkpt>
      <trkpt lat="43.42883" lon="6.11972">
        <ele>228.60000610352</ele>
        <time>2015-06-10T13:42:18Z</time>
      </trkpt>
      <trkpt lat="43.42884" lon="6.11973">
        <ele>228.60000610352</ele>
        <time>2015-06-10T13:42:19Z</time>
      </trkpt>
      <trkpt lat="43.42884" lon="6.11977">
        <ele>229.19999694824</ele>
        <time>2015-06-10T13:42:24Z</time>
      </trkpt>
      <trkpt lat="43.42885" lon="6.11982">
        <ele>229.39999389648</ele>
        <time>2015-06-10T13:42:30Z</time>
      </trkpt>
      <trkpt lat="43.42886" lon="6.11983">
        <ele>229.39999389648</ele>
        <time>2015-06-10T13:42:31Z</time>
      </trkpt>
      <trkpt lat="43.42893" lon="6.11993">
        <ele>229.39999389648</ele>
        <time>2015-06-10T13:42:36Z</time>
      </trkpt>
      <trkpt lat="43.42894" lon="6.11997">
        <ele>229.60000610352</ele>
        <time>2015-06-10T13:42:38Z</time>
      </trkpt>
      <trkpt lat="43.42898" lon="6.12006">
        <ele>229.80000305176</ele>
        <time>2015-06-10T13:42:43Z</time>
      </trkpt>
      <trkpt lat="43.42898" lon="6.12009">
        <ele>230</ele>
        <time>2015-06-10T13:42:45Z</time>
      </trkpt>
      <trkpt lat="43.429" lon="6.12029">
        <ele>231</ele>
        <time>2015-06-10T13:42:54Z</time>
      </trkpt>
      <trkpt lat="43.429" lon="6.1204">
        <ele>232</ele>
        <time>2015-06-10T13:42:59Z</time>
      </trkpt>
      <trkpt lat="43.42901" lon="6.12045">
        <ele>232.19999694824</ele>
        <time>2015-06-10T13:43:01Z</time>
      </trkpt>
      <trkpt lat="43.42909" lon="6.12077">
        <ele>234.39999389648</ele>
        <time>2015-06-10T13:43:16Z</time>
      </trkpt>
      <trkpt lat="43.42909" lon="6.12092">
        <ele>235</ele>
        <time>2015-06-10T13:43:23Z</time>
      </trkpt>
      <trkpt lat="43.4291" lon="6.12101">
        <ele>235.19999694824</ele>
        <time>2015-06-10T13:43:27Z</time>
      </trkpt>
      <trkpt lat="43.42911" lon="6.12107">
        <ele>234.80000305176</ele>
        <time>2015-06-10T13:43:30Z</time>
      </trkpt>
      <trkpt lat="43.4291" lon="6.12121">
        <ele>235.60000610352</ele>
        <time>2015-06-10T13:43:37Z</time>
      </trkpt>
      <trkpt lat="43.4291" lon="6.12122">
        <ele>235.80000305176</ele>
        <time>2015-06-10T13:43:38Z</time>
      </trkpt>
      <trkpt lat="43.42912" lon="6.1213">
        <ele>236.39999389648</ele>
        <time>2015-06-10T13:43:42Z</time>
      </trkpt>
      <trkpt lat="43.42913" lon="6.12134">
        <ele>236.19999694824</ele>
        <time>2015-06-10T13:43:44Z</time>
      </trkpt>
      <trkpt lat="43.42912" lon="6.12142">
        <ele>236.60000610352</ele>
        <time>2015-06-10T13:43:48Z</time>
      </trkpt>
      <trkpt lat="43.42909" lon="6.12145">
        <ele>237.39999389648</ele>
        <time>2015-06-10T13:43:51Z</time>
      </trkpt>
      <trkpt lat="43.42907" lon="6.12149">
        <ele>237.39999389648</ele>
        <time>2015-06-10T13:43:53Z</time>
      </trkpt>
      <trkpt lat="43.42902" lon="6.12156">
        <ele>238</ele>
        <time>2015-06-10T13:43:59Z</time>
      </trkpt>
      <trkpt lat="43.42889" lon="6.12161">
        <ele>238.39999389648</ele>
        <time>2015-06-10T13:44:07Z</time>
      </trkpt>
      <trkpt lat="43.42875" lon="6.12165">
        <ele>238.80000305176</ele>
        <time>2015-06-10T13:44:15Z</time>
      </trkpt>
      <trkpt lat="43.42866" lon="6.12163">
        <ele>239.19999694824</ele>
        <time>2015-06-10T13:44:22Z</time>
      </trkpt>
      <trkpt lat="43.42857" lon="6.12162">
        <ele>239.80000305176</ele>
        <time>2015-06-10T13:44:28Z</time>
      </trkpt>
      <trkpt lat="43.42848" lon="6.12162">
        <ele>240.60000610352</ele>
        <time>2015-06-10T13:44:34Z</time>
      </trkpt>
      <trkpt lat="43.42847" lon="6.12162">
        <ele>240.60000610352</ele>
        <time>2015-06-10T13:44:35Z</time>
      </trkpt>
      <trkpt lat="43.42841" lon="6.12162">
        <ele>241</ele>
        <time>2015-06-10T13:44:40Z</time>
      </trkpt>
      <trkpt lat="43.42835" lon="6.12162">
        <ele>241.39999389648</ele>
        <time>2015-06-10T13:44:45Z</time>
      </trkpt>
      <trkpt lat="43.42833" lon="6.12162">
        <ele>241.60000610352</ele>
        <time>2015-06-10T13:44:47Z</time>
      </trkpt>
      <trkpt lat="43.42827" lon="6.12164">
        <ele>241.80000305176</ele>
        <time>2015-06-10T13:44:51Z</time>
      </trkpt>
      <trkpt lat="43.42825" lon="6.12165">
        <ele>241.80000305176</ele>
        <time>2015-06-10T13:44:55Z</time>
      </trkpt>
      <trkpt lat="43.42824" lon="6.12166">
        <ele>242</ele>
        <time>2015-06-10T13:45:03Z</time>
      </trkpt>
      <trkpt lat="43.42824" lon="6.12166">
        <ele>241.80000305176</ele>
        <time>2015-06-10T13:45:06Z</time>
      </trkpt>
      <trkpt lat="43.42823" lon="6.12166">
        <ele>242</ele>
        <time>2015-06-10T13:45:14Z</time>
      </trkpt>
      <trkpt lat="43.42818" lon="6.12165">
        <ele>242.39999389648</ele>
        <time>2015-06-10T13:45:24Z</time>
      </trkpt>
      <trkpt lat="43.42809" lon="6.12165">
        <ele>242</ele>
        <time>2015-06-10T13:45:30Z</time>
      </trkpt>
      <trkpt lat="43.428" lon="6.12163">
        <ele>242.60000610352</ele>
        <time>2015-06-10T13:45:36Z</time>
      </trkpt>
      <trkpt lat="43.42793" lon="6.1216">
        <ele>243.80000305176</ele>
        <time>2015-06-10T13:45:41Z</time>
      </trkpt>
      <trkpt lat="43.42785" lon="6.12154">
        <ele>244</ele>
        <time>2015-06-10T13:45:47Z</time>
      </trkpt>
      <trkpt lat="43.42779" lon="6.12143">
        <ele>244.60000610352</ele>
        <time>2015-06-10T13:45:54Z</time>
      </trkpt>
      <trkpt lat="43.42776" lon="6.1214">
        <ele>244.80000305176</ele>
        <time>2015-06-10T13:45:56Z</time>
      </trkpt>
      <trkpt lat="43.42772" lon="6.12132">
        <ele>245</ele>
        <time>2015-06-10T13:46:01Z</time>
      </trkpt>
      <trkpt lat="43.42767" lon="6.12119">
        <ele>245.60000610352</ele>
        <time>2015-06-10T13:46:08Z</time>
      </trkpt>
      <trkpt lat="43.42762" lon="6.12115">
        <ele>245.80000305176</ele>
        <time>2015-06-10T13:46:11Z</time>
      </trkpt>
      <trkpt lat="43.42762" lon="6.12113">
        <ele>246.60000610352</ele>
        <time>2015-06-10T13:46:12Z</time>
      </trkpt>
      <trkpt lat="43.4276" lon="6.12111">
        <ele>247</ele>
        <time>2015-06-10T13:46:13Z</time>
      </trkpt>
      <trkpt lat="43.42757" lon="6.12107">
        <ele>247.80000305176</ele>
        <time>2015-06-10T13:46:16Z</time>
      </trkpt>
      <trkpt lat="43.42757" lon="6.12106">
        <ele>247.80000305176</ele>
        <time>2015-06-10T13:46:17Z</time>
      </trkpt>
      <trkpt lat="43.42755" lon="6.12102">
        <ele>247.80000305176</ele>
        <time>2015-06-10T13:46:19Z</time>
      </trkpt>
      <trkpt lat="43.42751" lon="6.12094">
        <ele>248</ele>
        <time>2015-06-10T13:46:23Z</time>
      </trkpt>
      <trkpt lat="43.42749" lon="6.12091">
        <ele>248.19999694824</ele>
        <time>2015-06-10T13:46:25Z</time>
      </trkpt>
      <trkpt lat="43.42743" lon="6.12078">
        <ele>248.80000305176</ele>
        <time>2015-06-10T13:46:32Z</time>
      </trkpt>
      <trkpt lat="43.42743" lon="6.12076">
        <ele>249</ele>
        <time>2015-06-10T13:46:33Z</time>
      </trkpt>
      <trkpt lat="43.42742" lon="6.12065">
        <ele>249.60000610352</ele>
        <time>2015-06-10T13:46:38Z</time>
      </trkpt>
      <trkpt lat="43.42741" lon="6.12049">
        <ele>249.80000305176</ele>
        <time>2015-06-10T13:46:45Z</time>
      </trkpt>
      <trkpt lat="43.4274" lon="6.12046">
        <ele>249.60000610352</ele>
        <time>2015-06-10T13:46:50Z</time>
      </trkpt>
      <trkpt lat="43.4274" lon="6.12042">
        <ele>250.19999694824</ele>
        <time>2015-06-10T13:46:54Z</time>
      </trkpt>
      <trkpt lat="43.42739" lon="6.1204">
        <ele>250.19999694824</ele>
        <time>2015-06-10T13:46:55Z</time>
      </trkpt>
      <trkpt lat="43.42739" lon="6.12037">
        <ele>250.39999389648</ele>
        <time>2015-06-10T13:46:56Z</time>
      </trkpt>
      <trkpt lat="43.42739" lon="6.12025">
        <ele>250.80000305176</ele>
        <time>2015-06-10T13:47:02Z</time>
      </trkpt>
      <trkpt lat="43.4274" lon="6.12022">
        <ele>251.19999694824</ele>
        <time>2015-06-10T13:47:04Z</time>
      </trkpt>
      <trkpt lat="43.42739" lon="6.12015">
        <ele>251.80000305176</ele>
        <time>2015-06-10T13:47:07Z</time>
      </trkpt>
      <trkpt lat="43.42739" lon="6.12013">
        <ele>251.80000305176</ele>
        <time>2015-06-10T13:47:08Z</time>
      </trkpt>
      <trkpt lat="43.42738" lon="6.11997">
        <ele>252.19999694824</ele>
        <time>2015-06-10T13:47:14Z</time>
      </trkpt>
      <trkpt lat="43.42738" lon="6.11989">
        <ele>252.19999694824</ele>
        <time>2015-06-10T13:47:17Z</time>
      </trkpt>
      <trkpt lat="43.42739" lon="6.11974">
        <ele>252.80000305176</ele>
        <time>2015-06-10T13:47:22Z</time>
      </trkpt>
      <trkpt lat="43.42738" lon="6.11959">
        <ele>252.60000610352</ele>
        <time>2015-06-10T13:47:28Z</time>
      </trkpt>
      <trkpt lat="43.42731" lon="6.1195">
        <ele>252.39999389648</ele>
        <time>2015-06-10T13:47:34Z</time>
      </trkpt>
      <trkpt lat="43.42727" lon="6.11945">
        <ele>253</ele>
        <time>2015-06-10T13:47:37Z</time>
      </trkpt>
      <trkpt lat="43.42723" lon="6.11938">
        <ele>253.80000305176</ele>
        <time>2015-06-10T13:47:41Z</time>
      </trkpt>
      <trkpt lat="43.42712" lon="6.11928">
        <ele>255.19999694824</ele>
        <time>2015-06-10T13:47:49Z</time>
      </trkpt>
      <trkpt lat="43.42708" lon="6.11923">
        <ele>255.80000305176</ele>
        <time>2015-06-10T13:47:52Z</time>
      </trkpt>
      <trkpt lat="43.42705" lon="6.11914">
        <ele>256.39999389648</ele>
        <time>2015-06-10T13:47:56Z</time>
      </trkpt>
      <trkpt lat="43.42704" lon="6.11907">
        <ele>257</ele>
        <time>2015-06-10T13:47:59Z</time>
      </trkpt>
      <trkpt lat="43.42703" lon="6.11898">
        <ele>257</ele>
        <time>2015-06-10T13:48:03Z</time>
      </trkpt>
      <trkpt lat="43.42706" lon="6.11891">
        <ele>257.20001220703</ele>
        <time>2015-06-10T13:48:06Z</time>
      </trkpt>
      <trkpt lat="43.42714" lon="6.11883">
        <ele>257.60000610352</ele>
        <time>2015-06-10T13:48:11Z</time>
      </trkpt>
      <trkpt lat="43.42715" lon="6.11882">
        <ele>257.79998779297</ele>
        <time>2015-06-10T13:48:12Z</time>
      </trkpt>
      <trkpt lat="43.42722" lon="6.11878">
        <ele>257.39999389648</ele>
        <time>2015-06-10T13:48:17Z</time>
      </trkpt>
      <trkpt lat="43.42722" lon="6.11878">
        <ele>257.60000610352</ele>
        <time>2015-06-10T13:48:22Z</time>
      </trkpt>
      <trkpt lat="43.42722" lon="6.11878">
        <ele>258.20001220703</ele>
        <time>2015-06-10T13:48:31Z</time>
      </trkpt>
      <trkpt lat="43.42722" lon="6.11878">
        <ele>258.20001220703</ele>
        <time>2015-06-10T13:50:53Z</time>
      </trkpt>
      <trkpt lat="43.42724" lon="6.11877">
        <ele>258</ele>
        <time>2015-06-10T13:51:58Z</time>
      </trkpt>
      <trkpt lat="43.42735" lon="6.11871">
        <ele>257.39999389648</ele>
        <time>2015-06-10T13:52:03Z</time>
      </trkpt>
      <trkpt lat="43.42745" lon="6.11869">
        <ele>257.20001220703</ele>
        <time>2015-06-10T13:52:06Z</time>
      </trkpt>
      <trkpt lat="43.42747" lon="6.11868">
        <ele>257.20001220703</ele>
        <time>2015-06-10T13:52:07Z</time>
      </trkpt>
      <trkpt lat="43.42754" lon="6.11862">
        <ele>256.39999389648</ele>
        <time>2015-06-10T13:52:10Z</time>
      </trkpt>
      <trkpt lat="43.42761" lon="6.1186">
        <ele>255.80000305176</ele>
        <time>2015-06-10T13:52:12Z</time>
      </trkpt>
      <trkpt lat="43.42764" lon="6.11859">
        <ele>255.19999694824</ele>
        <time>2015-06-10T13:52:13Z</time>
      </trkpt>
      <trkpt lat="43.42773" lon="6.11854">
        <ele>252.39999389648</ele>
        <time>2015-06-10T13:52:15Z</time>
      </trkpt>
      <trkpt lat="43.42778" lon="6.11853">
        <ele>250.80000305176</ele>
        <time>2015-06-10T13:52:16Z</time>
      </trkpt>
      <trkpt lat="43.42782" lon="6.11853">
        <ele>249.60000610352</ele>
        <time>2015-06-10T13:52:17Z</time>
      </trkpt>
      <trkpt lat="43.42785" lon="6.11855">
        <ele>248.80000305176</ele>
        <time>2015-06-10T13:52:18Z</time>
      </trkpt>
      <trkpt lat="43.42789" lon="6.11857">
        <ele>248.39999389648</ele>
        <time>2015-06-10T13:52:19Z</time>
      </trkpt>
      <trkpt lat="43.42801" lon="6.11858">
        <ele>248</ele>
        <time>2015-06-10T13:52:23Z</time>
      </trkpt>
      <trkpt lat="43.42803" lon="6.11855">
        <ele>248</ele>
        <time>2015-06-10T13:52:24Z</time>
      </trkpt>
      <trkpt lat="43.42806" lon="6.11847">
        <ele>247.80000305176</ele>
        <time>2015-06-10T13:52:26Z</time>
      </trkpt>
      <trkpt lat="43.42807" lon="6.11842">
        <ele>247.19999694824</ele>
        <time>2015-06-10T13:52:27Z</time>
      </trkpt>
      <trkpt lat="43.42809" lon="6.11832">
        <ele>247.39999389648</ele>
        <time>2015-06-10T13:52:29Z</time>
      </trkpt>
      <trkpt lat="43.42809" lon="6.11826">
        <ele>247</ele>
        <time>2015-06-10T13:52:30Z</time>
      </trkpt>
      <trkpt lat="43.42807" lon="6.11813">
        <ele>246.60000610352</ele>
        <time>2015-06-10T13:52:32Z</time>
      </trkpt>
      <trkpt lat="43.42806" lon="6.11806">
        <ele>246.19999694824</ele>
        <time>2015-06-10T13:52:33Z</time>
      </trkpt>
      <trkpt lat="43.42805" lon="6.11799">
        <ele>245.80000305176</ele>
        <time>2015-06-10T13:52:34Z</time>
      </trkpt>
      <trkpt lat="43.42805" lon="6.11792">
        <ele>245.60000610352</ele>
        <time>2015-06-10T13:52:35Z</time>
      </trkpt>
      <trkpt lat="43.42802" lon="6.1178">
        <ele>245</ele>
        <time>2015-06-10T13:52:37Z</time>
      </trkpt>
      <trkpt lat="43.42804" lon="6.11768">
        <ele>243.60000610352</ele>
        <time>2015-06-10T13:52:39Z</time>
      </trkpt>
      <trkpt lat="43.42807" lon="6.11763">
        <ele>243.39999389648</ele>
        <time>2015-06-10T13:52:40Z</time>
      </trkpt>
      <trkpt lat="43.42815" lon="6.11746">
        <ele>242.80000305176</ele>
        <time>2015-06-10T13:52:44Z</time>
      </trkpt>
      <trkpt lat="43.42817" lon="6.11727">
        <ele>242.80000305176</ele>
        <time>2015-06-10T13:52:48Z</time>
      </trkpt>
      <trkpt lat="43.42816" lon="6.11716">
        <ele>243.80000305176</ele>
        <time>2015-06-10T13:52:51Z</time>
      </trkpt>
      <trkpt lat="43.42814" lon="6.11709">
        <ele>244</ele>
        <time>2015-06-10T13:52:53Z</time>
      </trkpt>
      <trkpt lat="43.42812" lon="6.11703">
        <ele>244.60000610352</ele>
        <time>2015-06-10T13:52:55Z</time>
      </trkpt>
      <trkpt lat="43.42809" lon="6.11695">
        <ele>245.60000610352</ele>
        <time>2015-06-10T13:52:58Z</time>
      </trkpt>
      <trkpt lat="43.42807" lon="6.11694">
        <ele>245.80000305176</ele>
        <time>2015-06-10T13:52:59Z</time>
      </trkpt>
      <trkpt lat="43.42804" lon="6.11692">
        <ele>246.39999389648</ele>
        <time>2015-06-10T13:53:01Z</time>
      </trkpt>
      <trkpt lat="43.42801" lon="6.11693">
        <ele>246.80000305176</ele>
        <time>2015-06-10T13:53:03Z</time>
      </trkpt>
      <trkpt lat="43.428" lon="6.11694">
        <ele>246.80000305176</ele>
        <time>2015-06-10T13:53:04Z</time>
      </trkpt>
      <trkpt lat="43.42796" lon="6.11698">
        <ele>248</ele>
        <time>2015-06-10T13:53:07Z</time>
      </trkpt>
      <trkpt lat="43.42793" lon="6.11702">
        <ele>248.39999389648</ele>
        <time>2015-06-10T13:53:09Z</time>
      </trkpt>
      <trkpt lat="43.42788" lon="6.11705">
        <ele>248.80000305176</ele>
        <time>2015-06-10T13:53:12Z</time>
      </trkpt>
      <trkpt lat="43.42787" lon="6.11706">
        <ele>249.39999389648</ele>
        <time>2015-06-10T13:53:13Z</time>
      </trkpt>
      <trkpt lat="43.42786" lon="6.11706">
        <ele>249.80000305176</ele>
        <time>2015-06-10T13:53:14Z</time>
      </trkpt>
      <trkpt lat="43.42779" lon="6.11711">
        <ele>250.60000610352</ele>
        <time>2015-06-10T13:53:19Z</time>
      </trkpt>
      <trkpt lat="43.42772" lon="6.11716">
        <ele>251.19999694824</ele>
        <time>2015-06-10T13:53:26Z</time>
      </trkpt>
      <trkpt lat="43.42769" lon="6.11717">
        <ele>251.39999389648</ele>
        <time>2015-06-10T13:53:28Z</time>
      </trkpt>
      <trkpt lat="43.42768" lon="6.11716">
        <ele>251.39999389648</ele>
        <time>2015-06-10T13:53:29Z</time>
      </trkpt>
      <trkpt lat="43.42766" lon="6.11713">
        <ele>251.60000610352</ele>
        <time>2015-06-10T13:53:31Z</time>
      </trkpt>
      <trkpt lat="43.42762" lon="6.11707">
        <ele>252.19999694824</ele>
        <time>2015-06-10T13:53:37Z</time>
      </trkpt>
      <trkpt lat="43.42757" lon="6.11707">
        <ele>252.60000610352</ele>
        <time>2015-06-10T13:53:41Z</time>
      </trkpt>
      <trkpt lat="43.42753" lon="6.11706">
        <ele>253</ele>
        <time>2015-06-10T13:53:44Z</time>
      </trkpt>
      <trkpt lat="43.4275" lon="6.11705">
        <ele>253.19999694824</ele>
        <time>2015-06-10T13:53:50Z</time>
      </trkpt>
      <trkpt lat="43.4275" lon="6.11705">
        <ele>252.80000305176</ele>
        <time>2015-06-10T13:53:57Z</time>
      </trkpt>
      <trkpt lat="43.4275" lon="6.11705">
        <ele>252.80000305176</ele>
        <time>2015-06-10T13:54:08Z</time>
      </trkpt>
      <trkpt lat="43.4275" lon="6.11705">
        <ele>253.39999389648</ele>
        <time>2015-06-10T13:54:27Z</time>
      </trkpt>
      <trkpt lat="43.42749" lon="6.11705">
        <ele>252.80000305176</ele>
        <time>2015-06-10T13:54:37Z</time>
      </trkpt>
      <trkpt lat="43.42748" lon="6.11705">
        <ele>253</ele>
        <time>2015-06-10T13:54:46Z</time>
      </trkpt>
      <trkpt lat="43.42746" lon="6.11704">
        <ele>253.39999389648</ele>
        <time>2015-06-10T13:54:54Z</time>
      </trkpt>
      <trkpt lat="43.42746" lon="6.11703">
        <ele>253.60000610352</ele>
        <time>2015-06-10T13:54:55Z</time>
      </trkpt>
      <trkpt lat="43.42747" lon="6.11705">
        <ele>253.80000305176</ele>
        <time>2015-06-10T13:55:00Z</time>
      </trkpt>
      <trkpt lat="43.42748" lon="6.11704">
        <ele>253.19999694824</ele>
        <time>2015-06-10T13:55:11Z</time>
      </trkpt>
      <trkpt lat="43.42747" lon="6.11703">
        <ele>253.39999389648</ele>
        <time>2015-06-10T13:55:19Z</time>
      </trkpt>
      <trkpt lat="43.42746" lon="6.11703">
        <ele>253.80000305176</ele>
        <time>2015-06-10T13:55:20Z</time>
      </trkpt>
      <trkpt lat="43.42744" lon="6.117">
        <ele>254.80000305176</ele>
        <time>2015-06-10T13:55:23Z</time>
      </trkpt>
      <trkpt lat="43.42742" lon="6.11697">
        <ele>255.39999389648</ele>
        <time>2015-06-10T13:55:25Z</time>
      </trkpt>
      <trkpt lat="43.42741" lon="6.11696">
        <ele>255.39999389648</ele>
        <time>2015-06-10T13:55:26Z</time>
      </trkpt>
      <trkpt lat="43.4274" lon="6.11694">
        <ele>256</ele>
        <time>2015-06-10T13:55:27Z</time>
      </trkpt>
      <trkpt lat="43.4274" lon="6.11694">
        <ele>256</ele>
        <time>2015-06-10T13:55:29Z</time>
      </trkpt>
      <trkpt lat="43.42739" lon="6.11693">
        <ele>256</ele>
        <time>2015-06-10T13:55:32Z</time>
      </trkpt>
      <trkpt lat="43.42736" lon="6.11692">
        <ele>257</ele>
        <time>2015-06-10T13:55:36Z</time>
      </trkpt>
      <trkpt lat="43.42735" lon="6.11691">
        <ele>258</ele>
        <time>2015-06-10T13:55:40Z</time>
      </trkpt>
      <trkpt lat="43.42734" lon="6.1169">
        <ele>258.20001220703</ele>
        <time>2015-06-10T13:55:42Z</time>
      </trkpt>
      <trkpt lat="43.42731" lon="6.11685">
        <ele>258.39999389648</ele>
        <time>2015-06-10T13:55:48Z</time>
      </trkpt>
      <trkpt lat="43.4273" lon="6.11683">
        <ele>259</ele>
        <time>2015-06-10T13:55:54Z</time>
      </trkpt>
      <trkpt lat="43.42726" lon="6.11677">
        <ele>260</ele>
        <time>2015-06-10T13:56:03Z</time>
      </trkpt>
      <trkpt lat="43.42723" lon="6.11675">
        <ele>261</ele>
        <time>2015-06-10T13:56:09Z</time>
      </trkpt>
      <trkpt lat="43.42723" lon="6.11673">
        <ele>261.60000610352</ele>
        <time>2015-06-10T13:56:12Z</time>
      </trkpt>
      <trkpt lat="43.42722" lon="6.1167">
        <ele>261.79998779297</ele>
        <time>2015-06-10T13:56:19Z</time>
      </trkpt>
      <trkpt lat="43.42722" lon="6.11668">
        <ele>262.20001220703</ele>
        <time>2015-06-10T13:56:21Z</time>
      </trkpt>
      <trkpt lat="43.42721" lon="6.11664">
        <ele>262.60000610352</ele>
        <time>2015-06-10T13:56:27Z</time>
      </trkpt>
      <trkpt lat="43.42721" lon="6.11664">
        <ele>262.39999389648</ele>
        <time>2015-06-10T13:56:32Z</time>
      </trkpt>
      <trkpt lat="43.42722" lon="6.11663">
        <ele>262.60000610352</ele>
        <time>2015-06-10T13:56:33Z</time>
      </trkpt>
      <trkpt lat="43.42723" lon="6.11659">
        <ele>263</ele>
        <time>2015-06-10T13:56:35Z</time>
      </trkpt>
      <trkpt lat="43.42727" lon="6.1165">
        <ele>263</ele>
        <time>2015-06-10T13:56:41Z</time>
      </trkpt>
      <trkpt lat="43.42734" lon="6.1164">
        <ele>263</ele>
        <time>2015-06-10T13:56:48Z</time>
      </trkpt>
      <trkpt lat="43.42744" lon="6.11636">
        <ele>262.60000610352</ele>
        <time>2015-06-10T13:56:55Z</time>
      </trkpt>
      <trkpt lat="43.42752" lon="6.11631">
        <ele>263.20001220703</ele>
        <time>2015-06-10T13:57:01Z</time>
      </trkpt>
      <trkpt lat="43.42759" lon="6.11622">
        <ele>263.79998779297</ele>
        <time>2015-06-10T13:57:07Z</time>
      </trkpt>
      <trkpt lat="43.42762" lon="6.11611">
        <ele>264.39999389648</ele>
        <time>2015-06-10T13:57:13Z</time>
      </trkpt>
      <trkpt lat="43.42763" lon="6.11608">
        <ele>265.20001220703</ele>
        <time>2015-06-10T13:57:15Z</time>
      </trkpt>
      <trkpt lat="43.42764" lon="6.116">
        <ele>265.60000610352</ele>
        <time>2015-06-10T13:57:18Z</time>
      </trkpt>
      <trkpt lat="43.42764" lon="6.11593">
        <ele>266</ele>
        <time>2015-06-10T13:57:21Z</time>
      </trkpt>
      <trkpt lat="43.42763" lon="6.11586">
        <ele>266.20001220703</ele>
        <time>2015-06-10T13:57:24Z</time>
      </trkpt>
      <trkpt lat="43.42762" lon="6.11584">
        <ele>266.60000610352</ele>
        <time>2015-06-10T13:57:25Z</time>
      </trkpt>
      <trkpt lat="43.42761" lon="6.11571">
        <ele>265.79998779297</ele>
        <time>2015-06-10T13:57:29Z</time>
      </trkpt>
      <trkpt lat="43.4276" lon="6.11566">
        <ele>266</ele>
        <time>2015-06-10T13:57:30Z</time>
      </trkpt>
      <trkpt lat="43.42759" lon="6.11545">
        <ele>264.60000610352</ele>
        <time>2015-06-10T13:57:34Z</time>
      </trkpt>
      <trkpt lat="43.42757" lon="6.11534">
        <ele>264.39999389648</ele>
        <time>2015-06-10T13:57:36Z</time>
      </trkpt>
      <trkpt lat="43.42752" lon="6.11513">
        <ele>264.39999389648</ele>
        <time>2015-06-10T13:57:41Z</time>
      </trkpt>
      <trkpt lat="43.42747" lon="6.11497">
        <ele>265.39999389648</ele>
        <time>2015-06-10T13:57:48Z</time>
      </trkpt>
      <trkpt lat="43.42747" lon="6.11494">
        <ele>265.60000610352</ele>
        <time>2015-06-10T13:57:49Z</time>
      </trkpt>
      <trkpt lat="43.42747" lon="6.11484">
        <ele>266.39999389648</ele>
        <time>2015-06-10T13:57:54Z</time>
      </trkpt>
      <trkpt lat="43.42753" lon="6.11472">
        <ele>267.79998779297</ele>
        <time>2015-06-10T13:58:01Z</time>
      </trkpt>
      <trkpt lat="43.42755" lon="6.11459">
        <ele>268.60000610352</ele>
        <time>2015-06-10T13:58:07Z</time>
      </trkpt>
      <trkpt lat="43.4276" lon="6.11441">
        <ele>270</ele>
        <time>2015-06-10T13:58:16Z</time>
      </trkpt>
      <trkpt lat="43.42766" lon="6.11427">
        <ele>271.20001220703</ele>
        <time>2015-06-10T13:58:24Z</time>
      </trkpt>
      <trkpt lat="43.42772" lon="6.11413">
        <ele>272.20001220703</ele>
        <time>2015-06-10T13:58:32Z</time>
      </trkpt>
      <trkpt lat="43.42778" lon="6.114">
        <ele>272.39999389648</ele>
        <time>2015-06-10T13:58:39Z</time>
      </trkpt>
      <trkpt lat="43.42789" lon="6.11389">
        <ele>273.20001220703</ele>
        <time>2015-06-10T13:58:46Z</time>
      </trkpt>
      <trkpt lat="43.42801" lon="6.1138">
        <ele>273.60000610352</ele>
        <time>2015-06-10T13:58:53Z</time>
      </trkpt>
      <trkpt lat="43.42805" lon="6.11377">
        <ele>274.20001220703</ele>
        <time>2015-06-10T13:58:55Z</time>
      </trkpt>
      <trkpt lat="43.42813" lon="6.1137">
        <ele>274.79998779297</ele>
        <time>2015-06-10T13:59:00Z</time>
      </trkpt>
      <trkpt lat="43.42822" lon="6.1136">
        <ele>274.39999389648</ele>
        <time>2015-06-10T13:59:05Z</time>
      </trkpt>
      <trkpt lat="43.42823" lon="6.11357">
        <ele>274.20001220703</ele>
        <time>2015-06-10T13:59:06Z</time>
      </trkpt>
      <trkpt lat="43.42831" lon="6.1134">
        <ele>275.39999389648</ele>
        <time>2015-06-10T13:59:13Z</time>
      </trkpt>
      <trkpt lat="43.42836" lon="6.11321">
        <ele>275.60000610352</ele>
        <time>2015-06-10T13:59:20Z</time>
      </trkpt>
      <trkpt lat="43.42849" lon="6.113">
        <ele>276</ele>
        <time>2015-06-10T13:59:29Z</time>
      </trkpt>
      <trkpt lat="43.42857" lon="6.11278">
        <ele>276.20001220703</ele>
        <time>2015-06-10T13:59:37Z</time>
      </trkpt>
      <trkpt lat="43.4287" lon="6.11259">
        <ele>276.60000610352</ele>
        <time>2015-06-10T13:59:44Z</time>
      </trkpt>
      <trkpt lat="43.42882" lon="6.1124">
        <ele>276.39999389648</ele>
        <time>2015-06-10T13:59:49Z</time>
      </trkpt>
      <trkpt lat="43.42887" lon="6.11231">
        <ele>276.20001220703</ele>
        <time>2015-06-10T13:59:51Z</time>
      </trkpt>
      <trkpt lat="43.42899" lon="6.11217">
        <ele>275.60000610352</ele>
        <time>2015-06-10T13:59:55Z</time>
      </trkpt>
      <trkpt lat="43.42901" lon="6.11205">
        <ele>275.60000610352</ele>
        <time>2015-06-10T13:59:58Z</time>
      </trkpt>
      <trkpt lat="43.42901" lon="6.11202">
        <ele>275.60000610352</ele>
        <time>2015-06-10T13:59:59Z</time>
      </trkpt>
      <trkpt lat="43.42899" lon="6.11193">
        <ele>276.20001220703</ele>
        <time>2015-06-10T14:00:02Z</time>
      </trkpt>
      <trkpt lat="43.42896" lon="6.11184">
        <ele>276.79998779297</ele>
        <time>2015-06-10T14:00:05Z</time>
      </trkpt>
      <trkpt lat="43.42891" lon="6.11174">
        <ele>277.20001220703</ele>
        <time>2015-06-10T14:00:09Z</time>
      </trkpt>
      <trkpt lat="43.42888" lon="6.11168">
        <ele>277.39999389648</ele>
        <time>2015-06-10T14:00:11Z</time>
      </trkpt>
      <trkpt lat="43.42887" lon="6.11166">
        <ele>277.79998779297</ele>
        <time>2015-06-10T14:00:12Z</time>
      </trkpt>
      <trkpt lat="43.42881" lon="6.11155">
        <ele>278.39999389648</ele>
        <time>2015-06-10T14:00:16Z</time>
      </trkpt>
      <trkpt lat="43.42873" lon="6.11138">
        <ele>278.79998779297</ele>
        <time>2015-06-10T14:00:22Z</time>
      </trkpt>
      <trkpt lat="43.42864" lon="6.11129">
        <ele>279.20001220703</ele>
        <time>2015-06-10T14:00:27Z</time>
      </trkpt>
      <trkpt lat="43.42858" lon="6.11121">
        <ele>279.79998779297</ele>
        <time>2015-06-10T14:00:31Z</time>
      </trkpt>
      <trkpt lat="43.42854" lon="6.11114">
        <ele>279.20001220703</ele>
        <time>2015-06-10T14:00:34Z</time>
      </trkpt>
      <trkpt lat="43.42852" lon="6.11107">
        <ele>278.79998779297</ele>
        <time>2015-06-10T14:00:37Z</time>
      </trkpt>
      <trkpt lat="43.42852" lon="6.111">
        <ele>278.60000610352</ele>
        <time>2015-06-10T14:00:40Z</time>
      </trkpt>
      <trkpt lat="43.42852" lon="6.11097">
        <ele>278.60000610352</ele>
        <time>2015-06-10T14:00:41Z</time>
      </trkpt>
      <trkpt lat="43.42854" lon="6.11089">
        <ele>278.79998779297</ele>
        <time>2015-06-10T14:00:47Z</time>
      </trkpt>
      <trkpt lat="43.42853" lon="6.11089">
        <ele>278.60000610352</ele>
        <time>2015-06-10T14:00:54Z</time>
      </trkpt>
      <trkpt lat="43.42854" lon="6.11088">
        <ele>278.39999389648</ele>
        <time>2015-06-10T14:00:57Z</time>
      </trkpt>
      <trkpt lat="43.42854" lon="6.11088">
        <ele>278.79998779297</ele>
        <time>2015-06-10T14:01:04Z</time>
      </trkpt>
      <trkpt lat="43.42854" lon="6.11088">
        <ele>279</ele>
        <time>2015-06-10T14:01:11Z</time>
      </trkpt>
      <trkpt lat="43.42854" lon="6.11088">
        <ele>278.60000610352</ele>
        <time>2015-06-10T14:03:02Z</time>
      </trkpt>
      <trkpt lat="43.42854" lon="6.11088">
        <ele>279</ele>
        <time>2015-06-10T14:03:12Z</time>
      </trkpt>
      <trkpt lat="43.42856" lon="6.11087">
        <ele>278.79998779297</ele>
        <time>2015-06-10T14:03:16Z</time>
      </trkpt>
      <trkpt lat="43.42857" lon="6.11086">
        <ele>278.79998779297</ele>
        <time>2015-06-10T14:03:17Z</time>
      </trkpt>
      <trkpt lat="43.42862" lon="6.11078">
        <ele>278.39999389648</ele>
        <time>2015-06-10T14:03:20Z</time>
      </trkpt>
      <trkpt lat="43.42863" lon="6.11073">
        <ele>278</ele>
        <time>2015-06-10T14:03:21Z</time>
      </trkpt>
      <trkpt lat="43.42865" lon="6.11068">
        <ele>277.20001220703</ele>
        <time>2015-06-10T14:03:22Z</time>
      </trkpt>
      <trkpt lat="43.42864" lon="6.11058">
        <ele>275.79998779297</ele>
        <time>2015-06-10T14:03:24Z</time>
      </trkpt>
      <trkpt lat="43.42861" lon="6.11048">
        <ele>275.20001220703</ele>
        <time>2015-06-10T14:03:26Z</time>
      </trkpt>
      <trkpt lat="43.42855" lon="6.11031">
        <ele>274.60000610352</ele>
        <time>2015-06-10T14:03:29Z</time>
      </trkpt>
      <trkpt lat="43.4285" lon="6.11018">
        <ele>273.79998779297</ele>
        <time>2015-06-10T14:03:31Z</time>
      </trkpt>
      <trkpt lat="43.4284" lon="6.10997">
        <ele>273.39999389648</ele>
        <time>2015-06-10T14:03:34Z</time>
      </trkpt>
      <trkpt lat="43.42836" lon="6.10991">
        <ele>273.20001220703</ele>
        <time>2015-06-10T14:03:35Z</time>
      </trkpt>
      <trkpt lat="43.42831" lon="6.10985">
        <ele>272.39999389648</ele>
        <time>2015-06-10T14:03:36Z</time>
      </trkpt>
      <trkpt lat="43.42826" lon="6.10979">
        <ele>271.79998779297</ele>
        <time>2015-06-10T14:03:37Z</time>
      </trkpt>
      <trkpt lat="43.42818" lon="6.10968">
        <ele>271</ele>
        <time>2015-06-10T14:03:39Z</time>
      </trkpt>
      <trkpt lat="43.42816" lon="6.10961">
        <ele>270.60000610352</ele>
        <time>2015-06-10T14:03:40Z</time>
      </trkpt>
      <trkpt lat="43.42815" lon="6.10954">
        <ele>270</ele>
        <time>2015-06-10T14:03:41Z</time>
      </trkpt>
      <trkpt lat="43.42815" lon="6.10939">
        <ele>271</ele>
        <time>2015-06-10T14:03:43Z</time>
      </trkpt>
      <trkpt lat="43.42816" lon="6.10919">
        <ele>271.20001220703</ele>
        <time>2015-06-10T14:03:46Z</time>
      </trkpt>
      <trkpt lat="43.42816" lon="6.10913">
        <ele>271.60000610352</ele>
        <time>2015-06-10T14:03:47Z</time>
      </trkpt>
      <trkpt lat="43.42816" lon="6.10901">
        <ele>272.20001220703</ele>
        <time>2015-06-10T14:03:49Z</time>
      </trkpt>
      <trkpt lat="43.42817" lon="6.10885">
        <ele>273.20001220703</ele>
        <time>2015-06-10T14:03:52Z</time>
      </trkpt>
      <trkpt lat="43.42821" lon="6.10872">
        <ele>274.20001220703</ele>
        <time>2015-06-10T14:03:55Z</time>
      </trkpt>
      <trkpt lat="43.42822" lon="6.10869">
        <ele>274.60000610352</ele>
        <time>2015-06-10T14:03:56Z</time>
      </trkpt>
      <trkpt lat="43.42825" lon="6.10858">
        <ele>275.60000610352</ele>
        <time>2015-06-10T14:03:59Z</time>
      </trkpt>
      <trkpt lat="43.42826" lon="6.10855">
        <ele>275.60000610352</ele>
        <time>2015-06-10T14:04:00Z</time>
      </trkpt>
      <trkpt lat="43.42829" lon="6.10843">
        <ele>275.79998779297</ele>
        <time>2015-06-10T14:04:03Z</time>
      </trkpt>
      <trkpt lat="43.42831" lon="6.10836">
        <ele>275.20001220703</ele>
        <time>2015-06-10T14:04:05Z</time>
      </trkpt>
      <trkpt lat="43.42838" lon="6.10801">
        <ele>275.79998779297</ele>
        <time>2015-06-10T14:04:13Z</time>
      </trkpt>
      <trkpt lat="43.42841" lon="6.10766">
        <ele>275.79998779297</ele>
        <time>2015-06-10T14:04:20Z</time>
      </trkpt>
      <trkpt lat="43.42841" lon="6.1074">
        <ele>276.39999389648</ele>
        <time>2015-06-10T14:04:26Z</time>
      </trkpt>
      <trkpt lat="43.4284" lon="6.10731">
        <ele>276.79998779297</ele>
        <time>2015-06-10T14:04:28Z</time>
      </trkpt>
      <trkpt lat="43.42839" lon="6.10713">
        <ele>277.79998779297</ele>
        <time>2015-06-10T14:04:32Z</time>
      </trkpt>
      <trkpt lat="43.42841" lon="6.10676">
        <ele>276.60000610352</ele>
        <time>2015-06-10T14:04:40Z</time>
      </trkpt>
      <trkpt lat="43.42841" lon="6.10672">
        <ele>276.79998779297</ele>
        <time>2015-06-10T14:04:41Z</time>
      </trkpt>
      <trkpt lat="43.42843" lon="6.10651">
        <ele>277.79998779297</ele>
        <time>2015-06-10T14:04:46Z</time>
      </trkpt>
      <trkpt lat="43.42844" lon="6.10644">
        <ele>278.79998779297</ele>
        <time>2015-06-10T14:04:48Z</time>
      </trkpt>
      <trkpt lat="43.42844" lon="6.10641">
        <ele>279</ele>
        <time>2015-06-10T14:04:49Z</time>
      </trkpt>
      <trkpt lat="43.42844" lon="6.10629">
        <ele>279</ele>
        <time>2015-06-10T14:04:54Z</time>
      </trkpt>
      <trkpt lat="43.42841" lon="6.10619">
        <ele>280</ele>
        <time>2015-06-10T14:04:59Z</time>
      </trkpt>
      <trkpt lat="43.4284" lon="6.10614">
        <ele>280.20001220703</ele>
        <time>2015-06-10T14:05:01Z</time>
      </trkpt>
      <trkpt lat="43.42836" lon="6.106">
        <ele>281.20001220703</ele>
        <time>2015-06-10T14:05:07Z</time>
      </trkpt>
      <trkpt lat="43.42834" lon="6.10593">
        <ele>282</ele>
        <time>2015-06-10T14:05:10Z</time>
      </trkpt>
      <trkpt lat="43.42832" lon="6.1058">
        <ele>282.20001220703</ele>
        <time>2015-06-10T14:05:15Z</time>
      </trkpt>
      <trkpt lat="43.42831" lon="6.10575">
        <ele>282.39999389648</ele>
        <time>2015-06-10T14:05:17Z</time>
      </trkpt>
      <trkpt lat="43.42822" lon="6.10549">
        <ele>283.39999389648</ele>
        <time>2015-06-10T14:05:27Z</time>
      </trkpt>
      <trkpt lat="43.42817" lon="6.10533">
        <ele>284.39999389648</ele>
        <time>2015-06-10T14:05:33Z</time>
      </trkpt>
      <trkpt lat="43.42811" lon="6.10513">
        <ele>285.39999389648</ele>
        <time>2015-06-10T14:05:40Z</time>
      </trkpt>
      <trkpt lat="43.42809" lon="6.105">
        <ele>285.60000610352</ele>
        <time>2015-06-10T14:05:44Z</time>
      </trkpt>
      <trkpt lat="43.42805" lon="6.10483">
        <ele>285.79998779297</ele>
        <time>2015-06-10T14:05:50Z</time>
      </trkpt>
      <trkpt lat="43.42803" lon="6.10465">
        <ele>285.79998779297</ele>
        <time>2015-06-10T14:05:57Z</time>
      </trkpt>
      <trkpt lat="43.42801" lon="6.1046">
        <ele>285.39999389648</ele>
        <time>2015-06-10T14:06:00Z</time>
      </trkpt>
      <trkpt lat="43.42801" lon="6.1046">
        <ele>285.39999389648</ele>
        <time>2015-06-10T14:06:03Z</time>
      </trkpt>
      <trkpt lat="43.42801" lon="6.1046">
        <ele>285.39999389648</ele>
        <time>2015-06-10T14:06:07Z</time>
      </trkpt>
      <trkpt lat="43.42801" lon="6.1046">
        <ele>286.20001220703</ele>
        <time>2015-06-10T14:06:21Z</time>
      </trkpt>
      <trkpt lat="43.42801" lon="6.1046">
        <ele>287</ele>
        <time>2015-06-10T14:06:32Z</time>
      </trkpt>
      <trkpt lat="43.42801" lon="6.1046">
        <ele>286</ele>
        <time>2015-06-10T14:06:44Z</time>
      </trkpt>
      <trkpt lat="43.42801" lon="6.1046">
        <ele>286.60000610352</ele>
        <time>2015-06-10T14:08:01Z</time>
      </trkpt>
      <trkpt lat="43.42801" lon="6.1046">
        <ele>287</ele>
        <time>2015-06-10T14:08:32Z</time>
      </trkpt>
      <trkpt lat="43.42801" lon="6.1046">
        <ele>286.20001220703</ele>
        <time>2015-06-10T14:08:57Z</time>
      </trkpt>
      <trkpt lat="43.42801" lon="6.10458">
        <ele>286.60000610352</ele>
        <time>2015-06-10T14:09:01Z</time>
      </trkpt>
      <trkpt lat="43.42801" lon="6.10456">
        <ele>286.79998779297</ele>
        <time>2015-06-10T14:09:02Z</time>
      </trkpt>
      <trkpt lat="43.42799" lon="6.10448">
        <ele>286.79998779297</ele>
        <time>2015-06-10T14:09:05Z</time>
      </trkpt>
      <trkpt lat="43.42797" lon="6.1044">
        <ele>286.60000610352</ele>
        <time>2015-06-10T14:09:07Z</time>
      </trkpt>
      <trkpt lat="43.42796" lon="6.10431">
        <ele>285</ele>
        <time>2015-06-10T14:09:09Z</time>
      </trkpt>
      <trkpt lat="43.42794" lon="6.10425">
        <ele>284</ele>
        <time>2015-06-10T14:09:10Z</time>
      </trkpt>
      <trkpt lat="43.42793" lon="6.10419">
        <ele>283.79998779297</ele>
        <time>2015-06-10T14:09:11Z</time>
      </trkpt>
      <trkpt lat="43.42792" lon="6.10413">
        <ele>283.79998779297</ele>
        <time>2015-06-10T14:09:12Z</time>
      </trkpt>
      <trkpt lat="43.42788" lon="6.10402">
        <ele>283.39999389648</ele>
        <time>2015-06-10T14:09:14Z</time>
      </trkpt>
      <trkpt lat="43.42781" lon="6.10391">
        <ele>283.39999389648</ele>
        <time>2015-06-10T14:09:16Z</time>
      </trkpt>
      <trkpt lat="43.42775" lon="6.10365">
        <ele>283</ele>
        <time>2015-06-10T14:09:20Z</time>
      </trkpt>
      <trkpt lat="43.42776" lon="6.10351">
        <ele>282.39999389648</ele>
        <time>2015-06-10T14:09:22Z</time>
      </trkpt>
      <trkpt lat="43.42777" lon="6.10345">
        <ele>281.79998779297</ele>
        <time>2015-06-10T14:09:23Z</time>
      </trkpt>
      <trkpt lat="43.42779" lon="6.10332">
        <ele>281.20001220703</ele>
        <time>2015-06-10T14:09:25Z</time>
      </trkpt>
      <trkpt lat="43.42784" lon="6.10319">
        <ele>279.39999389648</ele>
        <time>2015-06-10T14:09:27Z</time>
      </trkpt>
      <trkpt lat="43.42788" lon="6.10313">
        <ele>279.60000610352</ele>
        <time>2015-06-10T14:09:28Z</time>
      </trkpt>
      <trkpt lat="43.42797" lon="6.10287">
        <ele>278.39999389648</ele>
        <time>2015-06-10T14:09:32Z</time>
      </trkpt>
      <trkpt lat="43.42799" lon="6.10281">
        <ele>278.39999389648</ele>
        <time>2015-06-10T14:09:33Z</time>
      </trkpt>
      <trkpt lat="43.42807" lon="6.1025">
        <ele>278.20001220703</ele>
        <time>2015-06-10T14:09:38Z</time>
      </trkpt>
      <trkpt lat="43.42818" lon="6.10232">
        <ele>277.39999389648</ele>
        <time>2015-06-10T14:09:42Z</time>
      </trkpt>
      <trkpt lat="43.42831" lon="6.10207">
        <ele>277</ele>
        <time>2015-06-10T14:09:47Z</time>
      </trkpt>
      <trkpt lat="43.42835" lon="6.10195">
        <ele>277.60000610352</ele>
        <time>2015-06-10T14:09:50Z</time>
      </trkpt>
      <trkpt lat="43.4284" lon="6.10184">
        <ele>278.20001220703</ele>
        <time>2015-06-10T14:09:53Z</time>
      </trkpt>
      <trkpt lat="43.42849" lon="6.10171">
        <ele>277.79998779297</ele>
        <time>2015-06-10T14:09:57Z</time>
      </trkpt>
      <trkpt lat="43.42852" lon="6.10164">
        <ele>278.39999389648</ele>
        <time>2015-06-10T14:09:59Z</time>
      </trkpt>
      <trkpt lat="43.42861" lon="6.10149">
        <ele>279.39999389648</ele>
        <time>2015-06-10T14:10:04Z</time>
      </trkpt>
      <trkpt lat="43.42867" lon="6.10138">
        <ele>279.60000610352</ele>
        <time>2015-06-10T14:10:09Z</time>
      </trkpt>
      <trkpt lat="43.42868" lon="6.10133">
        <ele>280</ele>
        <time>2015-06-10T14:10:11Z</time>
      </trkpt>
      <trkpt lat="43.4287" lon="6.10127">
        <ele>279.79998779297</ele>
        <time>2015-06-10T14:10:14Z</time>
      </trkpt>
      <trkpt lat="43.42872" lon="6.10119">
        <ele>280.60000610352</ele>
        <time>2015-06-10T14:10:18Z</time>
      </trkpt>
      <trkpt lat="43.42873" lon="6.10114">
        <ele>281.20001220703</ele>
        <time>2015-06-10T14:10:21Z</time>
      </trkpt>
      <trkpt lat="43.42874" lon="6.10107">
        <ele>281.60000610352</ele>
        <time>2015-06-10T14:10:24Z</time>
      </trkpt>
      <trkpt lat="43.42874" lon="6.10105">
        <ele>282</ele>
        <time>2015-06-10T14:10:25Z</time>
      </trkpt>
      <trkpt lat="43.42873" lon="6.10099">
        <ele>282.39999389648</ele>
        <time>2015-06-10T14:10:28Z</time>
      </trkpt>
      <trkpt lat="43.42873" lon="6.10091">
        <ele>283.20001220703</ele>
        <time>2015-06-10T14:10:32Z</time>
      </trkpt>
      <trkpt lat="43.42874" lon="6.10085">
        <ele>283.39999389648</ele>
        <time>2015-06-10T14:10:36Z</time>
      </trkpt>
      <trkpt lat="43.42873" lon="6.10078">
        <ele>284</ele>
        <time>2015-06-10T14:10:41Z</time>
      </trkpt>
      <trkpt lat="43.42873" lon="6.10074">
        <ele>284.39999389648</ele>
        <time>2015-06-10T14:10:43Z</time>
      </trkpt>
      <trkpt lat="43.42873" lon="6.10071">
        <ele>285</ele>
        <time>2015-06-10T14:10:45Z</time>
      </trkpt>
      <trkpt lat="43.42872" lon="6.1006">
        <ele>285.60000610352</ele>
        <time>2015-06-10T14:10:52Z</time>
      </trkpt>
      <trkpt lat="43.42872" lon="6.1005">
        <ele>286.79998779297</ele>
        <time>2015-06-10T14:10:59Z</time>
      </trkpt>
      <trkpt lat="43.42874" lon="6.10037">
        <ele>287.79998779297</ele>
        <time>2015-06-10T14:11:07Z</time>
      </trkpt>
      <trkpt lat="43.42875" lon="6.10036">
        <ele>288</ele>
        <time>2015-06-10T14:11:08Z</time>
      </trkpt>
      <trkpt lat="43.42881" lon="6.10028">
        <ele>288</ele>
        <time>2015-06-10T14:11:13Z</time>
      </trkpt>
      <trkpt lat="43.42886" lon="6.10024">
        <ele>288</ele>
        <time>2015-06-10T14:11:16Z</time>
      </trkpt>
      <trkpt lat="43.42895" lon="6.10008">
        <ele>287</ele>
        <time>2015-06-10T14:11:22Z</time>
      </trkpt>
      <trkpt lat="43.42897" lon="6.10004">
        <ele>286.60000610352</ele>
        <time>2015-06-10T14:11:23Z</time>
      </trkpt>
      <trkpt lat="43.42903" lon="6.09988">
        <ele>286.39999389648</ele>
        <time>2015-06-10T14:11:26Z</time>
      </trkpt>
      <trkpt lat="43.42905" lon="6.09983">
        <ele>286.39999389648</ele>
        <time>2015-06-10T14:11:27Z</time>
      </trkpt>
      <trkpt lat="43.42907" lon="6.09977">
        <ele>285.39999389648</ele>
        <time>2015-06-10T14:11:28Z</time>
      </trkpt>
      <trkpt lat="43.4291" lon="6.09973">
        <ele>284.79998779297</ele>
        <time>2015-06-10T14:11:29Z</time>
      </trkpt>
      <trkpt lat="43.42916" lon="6.09965">
        <ele>284.20001220703</ele>
        <time>2015-06-10T14:11:31Z</time>
      </trkpt>
      <trkpt lat="43.4292" lon="6.09962">
        <ele>284</ele>
        <time>2015-06-10T14:11:32Z</time>
      </trkpt>
      <trkpt lat="43.42929" lon="6.09955">
        <ele>283.79998779297</ele>
        <time>2015-06-10T14:11:35Z</time>
      </trkpt>
      <trkpt lat="43.42935" lon="6.09953">
        <ele>284.20001220703</ele>
        <time>2015-06-10T14:11:37Z</time>
      </trkpt>
      <trkpt lat="43.42947" lon="6.0995">
        <ele>283.39999389648</ele>
        <time>2015-06-10T14:11:41Z</time>
      </trkpt>
      <trkpt lat="43.42949" lon="6.09948">
        <ele>283.20001220703</ele>
        <time>2015-06-10T14:11:42Z</time>
      </trkpt>
      <trkpt lat="43.42952" lon="6.09944">
        <ele>283</ele>
        <time>2015-06-10T14:11:43Z</time>
      </trkpt>
      <trkpt lat="43.42955" lon="6.09934">
        <ele>282.20001220703</ele>
        <time>2015-06-10T14:11:45Z</time>
      </trkpt>
      <trkpt lat="43.42956" lon="6.09926">
        <ele>281.79998779297</ele>
        <time>2015-06-10T14:11:46Z</time>
      </trkpt>
      <trkpt lat="43.42957" lon="6.09909">
        <ele>280.39999389648</ele>
        <time>2015-06-10T14:11:48Z</time>
      </trkpt>
      <trkpt lat="43.42959" lon="6.09892">
        <ele>279.20001220703</ele>
        <time>2015-06-10T14:11:50Z</time>
      </trkpt>
      <trkpt lat="43.42962" lon="6.09852">
        <ele>278.79998779297</ele>
        <time>2015-06-10T14:11:55Z</time>
      </trkpt>
      <trkpt lat="43.42961" lon="6.09844">
        <ele>278.20001220703</ele>
        <time>2015-06-10T14:11:56Z</time>
      </trkpt>
      <trkpt lat="43.4296" lon="6.0983">
        <ele>278.20001220703</ele>
        <time>2015-06-10T14:11:58Z</time>
      </trkpt>
      <trkpt lat="43.42964" lon="6.09811">
        <ele>277.39999389648</ele>
        <time>2015-06-10T14:12:01Z</time>
      </trkpt>
      <trkpt lat="43.42966" lon="6.09805">
        <ele>276.60000610352</ele>
        <time>2015-06-10T14:12:02Z</time>
      </trkpt>
      <trkpt lat="43.42967" lon="6.09799">
        <ele>275.20001220703</ele>
        <time>2015-06-10T14:12:03Z</time>
      </trkpt>
      <trkpt lat="43.42969" lon="6.09774">
        <ele>274.20001220703</ele>
        <time>2015-06-10T14:12:06Z</time>
      </trkpt>
      <trkpt lat="43.42973" lon="6.09735">
        <ele>274.39999389648</ele>
        <time>2015-06-10T14:12:11Z</time>
      </trkpt>
      <trkpt lat="43.42974" lon="6.09728">
        <ele>274.20001220703</ele>
        <time>2015-06-10T14:12:12Z</time>
      </trkpt>
      <trkpt lat="43.42974" lon="6.09721">
        <ele>274</ele>
        <time>2015-06-10T14:12:13Z</time>
      </trkpt>
      <trkpt lat="43.42974" lon="6.09704">
        <ele>273</ele>
        <time>2015-06-10T14:12:15Z</time>
      </trkpt>
      <trkpt lat="43.42974" lon="6.09695">
        <ele>271.60000610352</ele>
        <time>2015-06-10T14:12:16Z</time>
      </trkpt>
      <trkpt lat="43.42975" lon="6.09686">
        <ele>271</ele>
        <time>2015-06-10T14:12:17Z</time>
      </trkpt>
      <trkpt lat="43.42977" lon="6.09667">
        <ele>270.20001220703</ele>
        <time>2015-06-10T14:12:19Z</time>
      </trkpt>
      <trkpt lat="43.42977" lon="6.09658">
        <ele>269.79998779297</ele>
        <time>2015-06-10T14:12:20Z</time>
      </trkpt>
      <trkpt lat="43.42978" lon="6.09634">
        <ele>270</ele>
        <time>2015-06-10T14:12:23Z</time>
      </trkpt>
      <trkpt lat="43.42979" lon="6.09617">
        <ele>269.60000610352</ele>
        <time>2015-06-10T14:12:25Z</time>
      </trkpt>
      <trkpt lat="43.42981" lon="6.09593">
        <ele>269.39999389648</ele>
        <time>2015-06-10T14:12:28Z</time>
      </trkpt>
      <trkpt lat="43.42982" lon="6.09586">
        <ele>269.20001220703</ele>
        <time>2015-06-10T14:12:29Z</time>
      </trkpt>
      <trkpt lat="43.42984" lon="6.09577">
        <ele>268.79998779297</ele>
        <time>2015-06-10T14:12:30Z</time>
      </trkpt>
      <trkpt lat="43.42992" lon="6.09553">
        <ele>270.39999389648</ele>
        <time>2015-06-10T14:12:34Z</time>
      </trkpt>
      <trkpt lat="43.42995" lon="6.09544">
        <ele>271.39999389648</ele>
        <time>2015-06-10T14:12:37Z</time>
      </trkpt>
      <trkpt lat="43.42996" lon="6.09543">
        <ele>271.60000610352</ele>
        <time>2015-06-10T14:12:38Z</time>
      </trkpt>
      <trkpt lat="43.42996" lon="6.09541">
        <ele>271.79998779297</ele>
        <time>2015-06-10T14:12:39Z</time>
      </trkpt>
      <trkpt lat="43.42997" lon="6.09535">
        <ele>271.79998779297</ele>
        <time>2015-06-10T14:12:42Z</time>
      </trkpt>
      <trkpt lat="43.42996" lon="6.09528">
        <ele>271.79998779297</ele>
        <time>2015-06-10T14:12:44Z</time>
      </trkpt>
      <trkpt lat="43.4299" lon="6.09501">
        <ele>271.39999389648</ele>
        <time>2015-06-10T14:12:50Z</time>
      </trkpt>
      <trkpt lat="43.4299" lon="6.09496">
        <ele>271.20001220703</ele>
        <time>2015-06-10T14:12:51Z</time>
      </trkpt>
      <trkpt lat="43.42991" lon="6.09476">
        <ele>270.20001220703</ele>
        <time>2015-06-10T14:12:54Z</time>
      </trkpt>
      <trkpt lat="43.42991" lon="6.09469">
        <ele>269.39999389648</ele>
        <time>2015-06-10T14:12:55Z</time>
      </trkpt>
      <trkpt lat="43.42991" lon="6.09463">
        <ele>268.79998779297</ele>
        <time>2015-06-10T14:12:56Z</time>
      </trkpt>
      <trkpt lat="43.4299" lon="6.09442">
        <ele>268.39999389648</ele>
        <time>2015-06-10T14:13:00Z</time>
      </trkpt>
      <trkpt lat="43.42989" lon="6.09437">
        <ele>268.60000610352</ele>
        <time>2015-06-10T14:13:02Z</time>
      </trkpt>
      <trkpt lat="43.42986" lon="6.09434">
        <ele>268.60000610352</ele>
        <time>2015-06-10T14:13:04Z</time>
      </trkpt>
      <trkpt lat="43.42982" lon="6.09433">
        <ele>268.39999389648</ele>
        <time>2015-06-10T14:13:09Z</time>
      </trkpt>
      <trkpt lat="43.42982" lon="6.09433">
        <ele>268</ele>
        <time>2015-06-10T14:13:15Z</time>
      </trkpt>
      <trkpt lat="43.42982" lon="6.09433">
        <ele>268.79998779297</ele>
        <time>2015-06-10T14:13:19Z</time>
      </trkpt>
      <trkpt lat="43.42982" lon="6.09433">
        <ele>268.60000610352</ele>
        <time>2015-06-10T14:13:54Z</time>
      </trkpt>
      <trkpt lat="43.42982" lon="6.09433">
        <ele>268.60000610352</ele>
        <time>2015-06-10T14:15:31Z</time>
      </trkpt>
      <trkpt lat="43.42982" lon="6.09433">
        <ele>268.79998779297</ele>
        <time>2015-06-10T14:16:22Z</time>
      </trkpt>
      <trkpt lat="43.42982" lon="6.09433">
        <ele>268.60000610352</ele>
        <time>2015-06-10T14:16:29Z</time>
      </trkpt>
      <trkpt lat="43.42981" lon="6.09433">
        <ele>268.39999389648</ele>
        <time>2015-06-10T14:16:34Z</time>
      </trkpt>
      <trkpt lat="43.42978" lon="6.09434">
        <ele>268.60000610352</ele>
        <time>2015-06-10T14:16:36Z</time>
      </trkpt>
      <trkpt lat="43.42966" lon="6.09442">
        <ele>268</ele>
        <time>2015-06-10T14:16:42Z</time>
      </trkpt>
      <trkpt lat="43.42957" lon="6.09445">
        <ele>267.20001220703</ele>
        <time>2015-06-10T14:16:46Z</time>
      </trkpt>
      <trkpt lat="43.42952" lon="6.09444">
        <ele>267</ele>
        <time>2015-06-10T14:16:48Z</time>
      </trkpt>
      <trkpt lat="43.42934" lon="6.09436">
        <ele>266.79998779297</ele>
        <time>2015-06-10T14:16:55Z</time>
      </trkpt>
      <trkpt lat="43.42919" lon="6.09424">
        <ele>266.39999389648</ele>
        <time>2015-06-10T14:17:01Z</time>
      </trkpt>
      <trkpt lat="43.42909" lon="6.09414">
        <ele>266.60000610352</ele>
        <time>2015-06-10T14:17:06Z</time>
      </trkpt>
      <trkpt lat="43.42902" lon="6.09403">
        <ele>267.20001220703</ele>
        <time>2015-06-10T14:17:11Z</time>
      </trkpt>
      <trkpt lat="43.42902" lon="6.09401">
        <ele>267.60000610352</ele>
        <time>2015-06-10T14:17:12Z</time>
      </trkpt>
      <trkpt lat="43.42901" lon="6.09396">
        <ele>267.60000610352</ele>
        <time>2015-06-10T14:17:15Z</time>
      </trkpt>
      <trkpt lat="43.42901" lon="6.09391">
        <ele>268</ele>
        <time>2015-06-10T14:17:18Z</time>
      </trkpt>
      <trkpt lat="43.42903" lon="6.09381">
        <ele>267.39999389648</ele>
        <time>2015-06-10T14:17:22Z</time>
      </trkpt>
      <trkpt lat="43.42904" lon="6.09375">
        <ele>267.60000610352</ele>
        <time>2015-06-10T14:17:24Z</time>
      </trkpt>
      <trkpt lat="43.42905" lon="6.09359">
        <ele>267.79998779297</ele>
        <time>2015-06-10T14:17:29Z</time>
      </trkpt>
      <trkpt lat="43.42905" lon="6.09349">
        <ele>267.79998779297</ele>
        <time>2015-06-10T14:17:33Z</time>
      </trkpt>
      <trkpt lat="43.42905" lon="6.09346">
        <ele>268</ele>
        <time>2015-06-10T14:17:34Z</time>
      </trkpt>
      <trkpt lat="43.4291" lon="6.09319">
        <ele>267.60000610352</ele>
        <time>2015-06-10T14:17:42Z</time>
      </trkpt>
      <trkpt lat="43.42912" lon="6.09299">
        <ele>268.39999389648</ele>
        <time>2015-06-10T14:17:48Z</time>
      </trkpt>
      <trkpt lat="43.42909" lon="6.09281">
        <ele>269.39999389648</ele>
        <time>2015-06-10T14:17:54Z</time>
      </trkpt>
      <trkpt lat="43.42908" lon="6.09271">
        <ele>269.60000610352</ele>
        <time>2015-06-10T14:17:58Z</time>
      </trkpt>
      <trkpt lat="43.42904" lon="6.09248">
        <ele>270.79998779297</ele>
        <time>2015-06-10T14:18:07Z</time>
      </trkpt>
      <trkpt lat="43.42904" lon="6.09234">
        <ele>271.60000610352</ele>
        <time>2015-06-10T14:18:12Z</time>
      </trkpt>
      <trkpt lat="43.4291" lon="6.09217">
        <ele>271.79998779297</ele>
        <time>2015-06-10T14:18:19Z</time>
      </trkpt>
      <trkpt lat="43.42912" lon="6.09215">
        <ele>272.20001220703</ele>
        <time>2015-06-10T14:18:20Z</time>
      </trkpt>
      <trkpt lat="43.42922" lon="6.09202">
        <ele>272.20001220703</ele>
        <time>2015-06-10T14:18:27Z</time>
      </trkpt>
      <trkpt lat="43.42931" lon="6.0919">
        <ele>273</ele>
        <time>2015-06-10T14:18:34Z</time>
      </trkpt>
      <trkpt lat="43.42933" lon="6.09185">
        <ele>273.20001220703</ele>
        <time>2015-06-10T14:18:37Z</time>
      </trkpt>
      <trkpt lat="43.42934" lon="6.09179">
        <ele>274</ele>
        <time>2015-06-10T14:18:40Z</time>
      </trkpt>
      <trkpt lat="43.42934" lon="6.09175">
        <ele>274.20001220703</ele>
        <time>2015-06-10T14:18:42Z</time>
      </trkpt>
      <trkpt lat="43.42934" lon="6.09166">
        <ele>274.39999389648</ele>
        <time>2015-06-10T14:18:47Z</time>
      </trkpt>
      <trkpt lat="43.42935" lon="6.09152">
        <ele>275.20001220703</ele>
        <time>2015-06-10T14:18:54Z</time>
      </trkpt>
      <trkpt lat="43.42934" lon="6.0914">
        <ele>276.20001220703</ele>
        <time>2015-06-10T14:19:00Z</time>
      </trkpt>
      <trkpt lat="43.42936" lon="6.09125">
        <ele>277.20001220703</ele>
        <time>2015-06-10T14:19:07Z</time>
      </trkpt>
      <trkpt lat="43.42939" lon="6.09117">
        <ele>278.39999389648</ele>
        <time>2015-06-10T14:19:13Z</time>
      </trkpt>
      <trkpt lat="43.42941" lon="6.09115">
        <ele>278.60000610352</ele>
        <time>2015-06-10T14:19:15Z</time>
      </trkpt>
      <trkpt lat="43.42944" lon="6.0911">
        <ele>279.60000610352</ele>
        <time>2015-06-10T14:19:19Z</time>
      </trkpt>
      <trkpt lat="43.42949" lon="6.09106">
        <ele>280.39999389648</ele>
        <time>2015-06-10T14:19:23Z</time>
      </trkpt>
      <trkpt lat="43.42951" lon="6.09103">
        <ele>281.20001220703</ele>
        <time>2015-06-10T14:19:26Z</time>
      </trkpt>
      <trkpt lat="43.42957" lon="6.09097">
        <ele>283</ele>
        <time>2015-06-10T14:19:33Z</time>
      </trkpt>
      <trkpt lat="43.42962" lon="6.09091">
        <ele>283.79998779297</ele>
        <time>2015-06-10T14:19:39Z</time>
      </trkpt>
      <trkpt lat="43.42963" lon="6.0909">
        <ele>284</ele>
        <time>2015-06-10T14:19:40Z</time>
      </trkpt>
      <trkpt lat="43.4297" lon="6.09088">
        <ele>285</ele>
        <time>2015-06-10T14:19:46Z</time>
      </trkpt>
      <trkpt lat="43.42971" lon="6.09087">
        <ele>285.39999389648</ele>
        <time>2015-06-10T14:19:47Z</time>
      </trkpt>
      <trkpt lat="43.42978" lon="6.09081">
        <ele>286.20001220703</ele>
        <time>2015-06-10T14:19:54Z</time>
      </trkpt>
      <trkpt lat="43.42982" lon="6.09076">
        <ele>286.39999389648</ele>
        <time>2015-06-10T14:19:59Z</time>
      </trkpt>
      <trkpt lat="43.42987" lon="6.09071">
        <ele>286.39999389648</ele>
        <time>2015-06-10T14:20:02Z</time>
      </trkpt>
      <trkpt lat="43.42991" lon="6.09065">
        <ele>286</ele>
        <time>2015-06-10T14:20:04Z</time>
      </trkpt>
      <trkpt lat="43.43002" lon="6.09054">
        <ele>285.20001220703</ele>
        <time>2015-06-10T14:20:08Z</time>
      </trkpt>
      <trkpt lat="43.43008" lon="6.09049">
        <ele>285</ele>
        <time>2015-06-10T14:20:10Z</time>
      </trkpt>
      <trkpt lat="43.43014" lon="6.09042">
        <ele>285</ele>
        <time>2015-06-10T14:20:13Z</time>
      </trkpt>
      <trkpt lat="43.43017" lon="6.09037">
        <ele>285</ele>
        <time>2015-06-10T14:20:15Z</time>
      </trkpt>
      <trkpt lat="43.43022" lon="6.09023">
        <ele>284.79998779297</ele>
        <time>2015-06-10T14:20:19Z</time>
      </trkpt>
      <trkpt lat="43.43024" lon="6.08985">
        <ele>283.39999389648</ele>
        <time>2015-06-10T14:20:27Z</time>
      </trkpt>
      <trkpt lat="43.43024" lon="6.08979">
        <ele>282.60000610352</ele>
        <time>2015-06-10T14:20:28Z</time>
      </trkpt>
      <trkpt lat="43.43026" lon="6.08963">
        <ele>282.20001220703</ele>
        <time>2015-06-10T14:20:31Z</time>
      </trkpt>
      <trkpt lat="43.43026" lon="6.08954">
        <ele>282</ele>
        <time>2015-06-10T14:20:33Z</time>
      </trkpt>
      <trkpt lat="43.43026" lon="6.08949">
        <ele>281.79998779297</ele>
        <time>2015-06-10T14:20:35Z</time>
      </trkpt>
      <trkpt lat="43.43025" lon="6.08948">
        <ele>281.79998779297</ele>
        <time>2015-06-10T14:20:36Z</time>
      </trkpt>
      <trkpt lat="43.43025" lon="6.08947">
        <ele>281.60000610352</ele>
        <time>2015-06-10T14:20:37Z</time>
      </trkpt>
      <trkpt lat="43.43024" lon="6.08947">
        <ele>281.60000610352</ele>
        <time>2015-06-10T14:20:40Z</time>
      </trkpt>
      <trkpt lat="43.43025" lon="6.08947">
        <ele>281.79998779297</ele>
        <time>2015-06-10T14:20:45Z</time>
      </trkpt>
      <trkpt lat="43.43025" lon="6.08947">
        <ele>282</ele>
        <time>2015-06-10T14:20:48Z</time>
      </trkpt>
      <trkpt lat="43.43025" lon="6.08947">
        <ele>281.79998779297</ele>
        <time>2015-06-10T14:21:40Z</time>
      </trkpt>
      <trkpt lat="43.43025" lon="6.08947">
        <ele>281.20001220703</ele>
        <time>2015-06-10T14:21:45Z</time>
      </trkpt>
      <trkpt lat="43.43025" lon="6.08947">
        <ele>281.60000610352</ele>
        <time>2015-06-10T14:21:56Z</time>
      </trkpt>
      <trkpt lat="43.43024" lon="6.08944">
        <ele>281.60000610352</ele>
        <time>2015-06-10T14:21:58Z</time>
      </trkpt>
      <trkpt lat="43.43023" lon="6.08943">
        <ele>281.39999389648</ele>
        <time>2015-06-10T14:21:59Z</time>
      </trkpt>
      <trkpt lat="43.43023" lon="6.0894">
        <ele>281.39999389648</ele>
        <time>2015-06-10T14:22:00Z</time>
      </trkpt>
      <trkpt lat="43.43019" lon="6.08931">
        <ele>281.39999389648</ele>
        <time>2015-06-10T14:22:04Z</time>
      </trkpt>
      <trkpt lat="43.43018" lon="6.08926">
        <ele>281.20001220703</ele>
        <time>2015-06-10T14:22:06Z</time>
      </trkpt>
      <trkpt lat="43.43019" lon="6.08911">
        <ele>280.60000610352</ele>
        <time>2015-06-10T14:22:11Z</time>
      </trkpt>
      <trkpt lat="43.43022" lon="6.08887">
        <ele>280.60000610352</ele>
        <time>2015-06-10T14:22:18Z</time>
      </trkpt>
      <trkpt lat="43.43021" lon="6.08863">
        <ele>280.60000610352</ele>
        <time>2015-06-10T14:22:24Z</time>
      </trkpt>
      <trkpt lat="43.43022" lon="6.08854">
        <ele>279.39999389648</ele>
        <time>2015-06-10T14:22:26Z</time>
      </trkpt>
      <trkpt lat="43.43021" lon="6.0883">
        <ele>279.60000610352</ele>
        <time>2015-06-10T14:22:31Z</time>
      </trkpt>
      <trkpt lat="43.43018" lon="6.08814">
        <ele>278.20001220703</ele>
        <time>2015-06-10T14:22:34Z</time>
      </trkpt>
      <trkpt lat="43.43014" lon="6.08792">
        <ele>278.39999389648</ele>
        <time>2015-06-10T14:22:38Z</time>
      </trkpt>
      <trkpt lat="43.43013" lon="6.08762">
        <ele>277.79998779297</ele>
        <time>2015-06-10T14:22:44Z</time>
      </trkpt>
      <trkpt lat="43.43005" lon="6.08736">
        <ele>276.79998779297</ele>
        <time>2015-06-10T14:22:49Z</time>
      </trkpt>
      <trkpt lat="43.42989" lon="6.087">
        <ele>275.79998779297</ele>
        <time>2015-06-10T14:22:57Z</time>
      </trkpt>
      <trkpt lat="43.42978" lon="6.08658">
        <ele>274.60000610352</ele>
        <time>2015-06-10T14:23:05Z</time>
      </trkpt>
      <trkpt lat="43.4297" lon="6.08626">
        <ele>274.60000610352</ele>
        <time>2015-06-10T14:23:11Z</time>
      </trkpt>
      <trkpt lat="43.42962" lon="6.0859">
        <ele>274</ele>
        <time>2015-06-10T14:23:18Z</time>
      </trkpt>
      <trkpt lat="43.42957" lon="6.08571">
        <ele>273.60000610352</ele>
        <time>2015-06-10T14:23:22Z</time>
      </trkpt>
      <trkpt lat="43.42952" lon="6.0855">
        <ele>273</ele>
        <time>2015-06-10T14:23:26Z</time>
      </trkpt>
      <trkpt lat="43.42944" lon="6.08524">
        <ele>273</ele>
        <time>2015-06-10T14:23:31Z</time>
      </trkpt>
      <trkpt lat="43.42942" lon="6.08519">
        <ele>272.79998779297</ele>
        <time>2015-06-10T14:23:32Z</time>
      </trkpt>
      <trkpt lat="43.42935" lon="6.08507">
        <ele>272.79998779297</ele>
        <time>2015-06-10T14:23:35Z</time>
      </trkpt>
      <trkpt lat="43.42929" lon="6.085">
        <ele>273</ele>
        <time>2015-06-10T14:23:37Z</time>
      </trkpt>
      <trkpt lat="43.42914" lon="6.08487">
        <ele>273.39999389648</ele>
        <time>2015-06-10T14:23:42Z</time>
      </trkpt>
      <trkpt lat="43.42899" lon="6.08464">
        <ele>273.39999389648</ele>
        <time>2015-06-10T14:23:48Z</time>
      </trkpt>
      <trkpt lat="43.42879" lon="6.08433">
        <ele>273.60000610352</ele>
        <time>2015-06-10T14:23:55Z</time>
      </trkpt>
      <trkpt lat="43.42872" lon="6.08425">
        <ele>273</ele>
        <time>2015-06-10T14:23:57Z</time>
      </trkpt>
      <trkpt lat="43.42863" lon="6.08413">
        <ele>272.60000610352</ele>
        <time>2015-06-10T14:24:00Z</time>
      </trkpt>
      <trkpt lat="43.42859" lon="6.08398">
        <ele>273.20001220703</ele>
        <time>2015-06-10T14:24:03Z</time>
      </trkpt>
      <trkpt lat="43.42855" lon="6.0838">
        <ele>272</ele>
        <time>2015-06-10T14:24:06Z</time>
      </trkpt>
      <trkpt lat="43.42848" lon="6.08356">
        <ele>271.79998779297</ele>
        <time>2015-06-10T14:24:10Z</time>
      </trkpt>
      <trkpt lat="43.42839" lon="6.08316">
        <ele>271.20001220703</ele>
        <time>2015-06-10T14:24:17Z</time>
      </trkpt>
      <trkpt lat="43.42837" lon="6.08297">
        <ele>269.39999389648</ele>
        <time>2015-06-10T14:24:20Z</time>
      </trkpt>
      <trkpt lat="43.42835" lon="6.08285">
        <ele>269.79998779297</ele>
        <time>2015-06-10T14:24:22Z</time>
      </trkpt>
      <trkpt lat="43.4283" lon="6.08271">
        <ele>270.60000610352</ele>
        <time>2015-06-10T14:24:25Z</time>
      </trkpt>
      <trkpt lat="43.42822" lon="6.0826">
        <ele>271.20001220703</ele>
        <time>2015-06-10T14:24:28Z</time>
      </trkpt>
      <trkpt lat="43.42816" lon="6.08257">
        <ele>271.39999389648</ele>
        <time>2015-06-10T14:24:30Z</time>
      </trkpt>
      <trkpt lat="43.42813" lon="6.08256">
        <ele>271.79998779297</ele>
        <time>2015-06-10T14:24:31Z</time>
      </trkpt>
      <trkpt lat="43.42798" lon="6.08256">
        <ele>271.79998779297</ele>
        <time>2015-06-10T14:24:35Z</time>
      </trkpt>
      <trkpt lat="43.42795" lon="6.08254">
        <ele>271.79998779297</ele>
        <time>2015-06-10T14:24:36Z</time>
      </trkpt>
      <trkpt lat="43.42792" lon="6.08244">
        <ele>270.60000610352</ele>
        <time>2015-06-10T14:24:38Z</time>
      </trkpt>
      <trkpt lat="43.42787" lon="6.08226">
        <ele>269.60000610352</ele>
        <time>2015-06-10T14:24:41Z</time>
      </trkpt>
      <trkpt lat="43.42786" lon="6.08213">
        <ele>268.39999389648</ele>
        <time>2015-06-10T14:24:43Z</time>
      </trkpt>
      <trkpt lat="43.42785" lon="6.08206">
        <ele>268.20001220703</ele>
        <time>2015-06-10T14:24:44Z</time>
      </trkpt>
      <trkpt lat="43.42784" lon="6.08199">
        <ele>268.20001220703</ele>
        <time>2015-06-10T14:24:45Z</time>
      </trkpt>
      <trkpt lat="43.4278" lon="6.08179">
        <ele>267.79998779297</ele>
        <time>2015-06-10T14:24:48Z</time>
      </trkpt>
      <trkpt lat="43.42773" lon="6.08169">
        <ele>267</ele>
        <time>2015-06-10T14:24:50Z</time>
      </trkpt>
      <trkpt lat="43.42755" lon="6.08143">
        <ele>266.60000610352</ele>
        <time>2015-06-10T14:24:55Z</time>
      </trkpt>
      <trkpt lat="43.42751" lon="6.08141">
        <ele>265.79998779297</ele>
        <time>2015-06-10T14:24:56Z</time>
      </trkpt>
      <trkpt lat="43.42743" lon="6.08141">
        <ele>265.20001220703</ele>
        <time>2015-06-10T14:24:58Z</time>
      </trkpt>
      <trkpt lat="43.42732" lon="6.08129">
        <ele>265.20001220703</ele>
        <time>2015-06-10T14:25:01Z</time>
      </trkpt>
      <trkpt lat="43.42725" lon="6.0812">
        <ele>264</ele>
        <time>2015-06-10T14:25:03Z</time>
      </trkpt>
      <trkpt lat="43.42716" lon="6.08112">
        <ele>263.60000610352</ele>
        <time>2015-06-10T14:25:05Z</time>
      </trkpt>
      <trkpt lat="43.4269" lon="6.08093">
        <ele>263</ele>
        <time>2015-06-10T14:25:10Z</time>
      </trkpt>
      <trkpt lat="43.42685" lon="6.08088">
        <ele>262.39999389648</ele>
        <time>2015-06-10T14:25:11Z</time>
      </trkpt>
      <trkpt lat="43.4268" lon="6.08083">
        <ele>262.39999389648</ele>
        <time>2015-06-10T14:25:12Z</time>
      </trkpt>
      <trkpt lat="43.4267" lon="6.08073">
        <ele>261.79998779297</ele>
        <time>2015-06-10T14:25:14Z</time>
      </trkpt>
      <trkpt lat="43.42659" lon="6.0807">
        <ele>261.60000610352</ele>
        <time>2015-06-10T14:25:16Z</time>
      </trkpt>
      <trkpt lat="43.42656" lon="6.08072">
        <ele>261</ele>
        <time>2015-06-10T14:25:17Z</time>
      </trkpt>
      <trkpt lat="43.42648" lon="6.08078">
        <ele>261</ele>
        <time>2015-06-10T14:25:19Z</time>
      </trkpt>
      <trkpt lat="43.42645" lon="6.08081">
        <ele>261</ele>
        <time>2015-06-10T14:25:20Z</time>
      </trkpt>
      <trkpt lat="43.4264" lon="6.08083">
        <ele>261</ele>
        <time>2015-06-10T14:25:21Z</time>
      </trkpt>
      <trkpt lat="43.42631" lon="6.08082">
        <ele>261</ele>
        <time>2015-06-10T14:25:23Z</time>
      </trkpt>
      <trkpt lat="43.42623" lon="6.08065">
        <ele>261.39999389648</ele>
        <time>2015-06-10T14:25:26Z</time>
      </trkpt>
      <trkpt lat="43.42624" lon="6.08043">
        <ele>260.60000610352</ele>
        <time>2015-06-10T14:25:29Z</time>
      </trkpt>
      <trkpt lat="43.42623" lon="6.08026">
        <ele>259.60000610352</ele>
        <time>2015-06-10T14:25:31Z</time>
      </trkpt>
      <trkpt lat="43.42622" lon="6.0801">
        <ele>259</ele>
        <time>2015-06-10T14:25:33Z</time>
      </trkpt>
      <trkpt lat="43.42621" lon="6.08002">
        <ele>258.60000610352</ele>
        <time>2015-06-10T14:25:34Z</time>
      </trkpt>
      <trkpt lat="43.42612" lon="6.0798">
        <ele>257.79998779297</ele>
        <time>2015-06-10T14:25:37Z</time>
      </trkpt>
      <trkpt lat="43.42607" lon="6.07975">
        <ele>257.60000610352</ele>
        <time>2015-06-10T14:25:38Z</time>
      </trkpt>
      <trkpt lat="43.42603" lon="6.0797">
        <ele>257.79998779297</ele>
        <time>2015-06-10T14:25:39Z</time>
      </trkpt>
      <trkpt lat="43.42582" lon="6.0795">
        <ele>257</ele>
        <time>2015-06-10T14:25:43Z</time>
      </trkpt>
      <trkpt lat="43.42571" lon="6.0794">
        <ele>255.60000610352</ele>
        <time>2015-06-10T14:25:45Z</time>
      </trkpt>
      <trkpt lat="43.42566" lon="6.07933">
        <ele>254.80000305176</ele>
        <time>2015-06-10T14:25:46Z</time>
      </trkpt>
      <trkpt lat="43.42563" lon="6.07926">
        <ele>254.60000610352</ele>
        <time>2015-06-10T14:25:47Z</time>
      </trkpt>
      <trkpt lat="43.42558" lon="6.07909">
        <ele>254.19999694824</ele>
        <time>2015-06-10T14:25:49Z</time>
      </trkpt>
      <trkpt lat="43.42555" lon="6.07903">
        <ele>253.80000305176</ele>
        <time>2015-06-10T14:25:50Z</time>
      </trkpt>
      <trkpt lat="43.4255" lon="6.07899">
        <ele>253.19999694824</ele>
        <time>2015-06-10T14:25:51Z</time>
      </trkpt>
      <trkpt lat="43.42524" lon="6.07894">
        <ele>253.39999389648</ele>
        <time>2015-06-10T14:25:55Z</time>
      </trkpt>
      <trkpt lat="43.42517" lon="6.07895">
        <ele>253.19999694824</ele>
        <time>2015-06-10T14:25:56Z</time>
      </trkpt>
      <trkpt lat="43.42504" lon="6.07897">
        <ele>252</ele>
        <time>2015-06-10T14:25:58Z</time>
      </trkpt>
      <trkpt lat="43.42484" lon="6.07902">
        <ele>250.19999694824</ele>
        <time>2015-06-10T14:26:01Z</time>
      </trkpt>
      <trkpt lat="43.42479" lon="6.07905">
        <ele>249.60000610352</ele>
        <time>2015-06-10T14:26:02Z</time>
      </trkpt>
      <trkpt lat="43.42476" lon="6.07907">
        <ele>249.19999694824</ele>
        <time>2015-06-10T14:26:03Z</time>
      </trkpt>
      <trkpt lat="43.42473" lon="6.07909">
        <ele>248.80000305176</ele>
        <time>2015-06-10T14:26:04Z</time>
      </trkpt>
      <trkpt lat="43.42469" lon="6.07913">
        <ele>248</ele>
        <time>2015-06-10T14:26:07Z</time>
      </trkpt>
      <trkpt lat="43.42462" lon="6.07916">
        <ele>248.19999694824</ele>
        <time>2015-06-10T14:26:10Z</time>
      </trkpt>
      <trkpt lat="43.42445" lon="6.07911">
        <ele>247.80000305176</ele>
        <time>2015-06-10T14:26:15Z</time>
      </trkpt>
      <trkpt lat="43.42437" lon="6.0791">
        <ele>248.19999694824</ele>
        <time>2015-06-10T14:26:17Z</time>
      </trkpt>
      <trkpt lat="43.42424" lon="6.07908">
        <ele>247.80000305176</ele>
        <time>2015-06-10T14:26:20Z</time>
      </trkpt>
      <trkpt lat="43.42415" lon="6.07909">
        <ele>247.80000305176</ele>
        <time>2015-06-10T14:26:22Z</time>
      </trkpt>
      <trkpt lat="43.42402" lon="6.07912">
        <ele>247.80000305176</ele>
        <time>2015-06-10T14:26:25Z</time>
      </trkpt>
      <trkpt lat="43.4239" lon="6.07922">
        <ele>247.80000305176</ele>
        <time>2015-06-10T14:26:29Z</time>
      </trkpt>
      <trkpt lat="43.42374" lon="6.07941">
        <ele>248</ele>
        <time>2015-06-10T14:26:34Z</time>
      </trkpt>
      <trkpt lat="43.42355" lon="6.07962">
        <ele>248.60000610352</ele>
        <time>2015-06-10T14:26:40Z</time>
      </trkpt>
      <trkpt lat="43.42343" lon="6.0799">
        <ele>245.39999389648</ele>
        <time>2015-06-10T14:26:46Z</time>
      </trkpt>
      <trkpt lat="43.42336" lon="6.07999">
        <ele>244.60000610352</ele>
        <time>2015-06-10T14:26:49Z</time>
      </trkpt>
      <trkpt lat="43.42332" lon="6.08">
        <ele>244.39999389648</ele>
        <time>2015-06-10T14:26:51Z</time>
      </trkpt>
      <trkpt lat="43.42332" lon="6.08">
        <ele>244.39999389648</ele>
        <time>2015-06-10T14:26:53Z</time>
      </trkpt>
      <trkpt lat="43.42332" lon="6.08">
        <ele>244.39999389648</ele>
        <time>2015-06-10T14:27:03Z</time>
      </trkpt>
      <trkpt lat="43.42332" lon="6.08">
        <ele>244.19999694824</ele>
        <time>2015-06-10T14:27:19Z</time>
      </trkpt>
      <trkpt lat="43.42332" lon="6.08">
        <ele>243.60000610352</ele>
        <time>2015-06-10T14:27:32Z</time>
      </trkpt>
      <trkpt lat="43.42327" lon="6.07997">
        <ele>243.19999694824</ele>
        <time>2015-06-10T14:27:37Z</time>
      </trkpt>
      <trkpt lat="43.42314" lon="6.07981">
        <ele>243</ele>
        <time>2015-06-10T14:27:42Z</time>
      </trkpt>
      <trkpt lat="43.42307" lon="6.07973">
        <ele>242.39999389648</ele>
        <time>2015-06-10T14:27:44Z</time>
      </trkpt>
      <trkpt lat="43.42298" lon="6.07965">
        <ele>242.39999389648</ele>
        <time>2015-06-10T14:27:47Z</time>
      </trkpt>
      <trkpt lat="43.4228" lon="6.07963">
        <ele>242.39999389648</ele>
        <time>2015-06-10T14:27:52Z</time>
      </trkpt>
      <trkpt lat="43.42266" lon="6.07968">
        <ele>241.60000610352</ele>
        <time>2015-06-10T14:27:55Z</time>
      </trkpt>
      <trkpt lat="43.42261" lon="6.07968">
        <ele>241.60000610352</ele>
        <time>2015-06-10T14:27:56Z</time>
      </trkpt>
      <trkpt lat="43.42254" lon="6.0796">
        <ele>241.19999694824</ele>
        <time>2015-06-10T14:27:58Z</time>
      </trkpt>
      <trkpt lat="43.42253" lon="6.07956">
        <ele>241</ele>
        <time>2015-06-10T14:27:59Z</time>
      </trkpt>
      <trkpt lat="43.4225" lon="6.07944">
        <ele>242.39999389648</ele>
        <time>2015-06-10T14:28:02Z</time>
      </trkpt>
      <trkpt lat="43.42249" lon="6.07937">
        <ele>242.39999389648</ele>
        <time>2015-06-10T14:28:04Z</time>
      </trkpt>
      <trkpt lat="43.42248" lon="6.07934">
        <ele>242.60000610352</ele>
        <time>2015-06-10T14:28:05Z</time>
      </trkpt>
      <trkpt lat="43.42247" lon="6.07926">
        <ele>242.60000610352</ele>
        <time>2015-06-10T14:28:07Z</time>
      </trkpt>
      <trkpt lat="43.42244" lon="6.07913">
        <ele>243.19999694824</ele>
        <time>2015-06-10T14:28:10Z</time>
      </trkpt>
      <trkpt lat="43.42244" lon="6.07908">
        <ele>242.60000610352</ele>
        <time>2015-06-10T14:28:11Z</time>
      </trkpt>
      <trkpt lat="43.42239" lon="6.07896">
        <ele>241.80000305176</ele>
        <time>2015-06-10T14:28:14Z</time>
      </trkpt>
      <trkpt lat="43.42236" lon="6.07893">
        <ele>241.39999389648</ele>
        <time>2015-06-10T14:28:15Z</time>
      </trkpt>
      <trkpt lat="43.42214" lon="6.07884">
        <ele>241</ele>
        <time>2015-06-10T14:28:20Z</time>
      </trkpt>
      <trkpt lat="43.42204" lon="6.0788">
        <ele>240.39999389648</ele>
        <time>2015-06-10T14:28:22Z</time>
      </trkpt>
      <trkpt lat="43.42198" lon="6.07879">
        <ele>240</ele>
        <time>2015-06-10T14:28:23Z</time>
      </trkpt>
      <trkpt lat="43.42192" lon="6.07878">
        <ele>240</ele>
        <time>2015-06-10T14:28:24Z</time>
      </trkpt>
      <trkpt lat="43.42183" lon="6.07877">
        <ele>239.39999389648</ele>
        <time>2015-06-10T14:28:26Z</time>
      </trkpt>
      <trkpt lat="43.42169" lon="6.07878">
        <ele>239.60000610352</ele>
        <time>2015-06-10T14:28:29Z</time>
      </trkpt>
      <trkpt lat="43.42158" lon="6.07879">
        <ele>240.80000305176</ele>
        <time>2015-06-10T14:28:32Z</time>
      </trkpt>
      <trkpt lat="43.4215" lon="6.07879">
        <ele>241.39999389648</ele>
        <time>2015-06-10T14:28:34Z</time>
      </trkpt>
      <trkpt lat="43.42141" lon="6.07881">
        <ele>242.19999694824</ele>
        <time>2015-06-10T14:28:37Z</time>
      </trkpt>
      <trkpt lat="43.42138" lon="6.07882">
        <ele>242.80000305176</ele>
        <time>2015-06-10T14:28:38Z</time>
      </trkpt>
      <trkpt lat="43.4213" lon="6.07885">
        <ele>243.60000610352</ele>
        <time>2015-06-10T14:28:41Z</time>
      </trkpt>
      <trkpt lat="43.42126" lon="6.07886">
        <ele>243.80000305176</ele>
        <time>2015-06-10T14:28:42Z</time>
      </trkpt>
      <trkpt lat="43.42121" lon="6.07886">
        <ele>244.60000610352</ele>
        <time>2015-06-10T14:28:44Z</time>
      </trkpt>
      <trkpt lat="43.42118" lon="6.07886">
        <ele>245.19999694824</ele>
        <time>2015-06-10T14:28:45Z</time>
      </trkpt>
      <trkpt lat="43.42109" lon="6.07883">
        <ele>246</ele>
        <time>2015-06-10T14:28:49Z</time>
      </trkpt>
      <trkpt lat="43.42107" lon="6.07881">
        <ele>246.39999389648</ele>
        <time>2015-06-10T14:28:50Z</time>
      </trkpt>
      <trkpt lat="43.42103" lon="6.07873">
        <ele>247.60000610352</ele>
        <time>2015-06-10T14:28:54Z</time>
      </trkpt>
      <trkpt lat="43.42099" lon="6.07862">
        <ele>248.19999694824</ele>
        <time>2015-06-10T14:29:01Z</time>
      </trkpt>
      <trkpt lat="43.42098" lon="6.07857">
        <ele>248.39999389648</ele>
        <time>2015-06-10T14:29:04Z</time>
      </trkpt>
      <trkpt lat="43.42099" lon="6.0785">
        <ele>248.60000610352</ele>
        <time>2015-06-10T14:29:07Z</time>
      </trkpt>
      <trkpt lat="43.42101" lon="6.07831">
        <ele>248.19999694824</ele>
        <time>2015-06-10T14:29:12Z</time>
      </trkpt>
      <trkpt lat="43.42104" lon="6.07819">
        <ele>247.39999389648</ele>
        <time>2015-06-10T14:29:14Z</time>
      </trkpt>
      <trkpt lat="43.4211" lon="6.07797">
        <ele>246.19999694824</ele>
        <time>2015-06-10T14:29:17Z</time>
      </trkpt>
      <trkpt lat="43.42125" lon="6.07745">
        <ele>243.60000610352</ele>
        <time>2015-06-10T14:29:23Z</time>
      </trkpt>
      <trkpt lat="43.42134" lon="6.07715">
        <ele>242.60000610352</ele>
        <time>2015-06-10T14:29:26Z</time>
      </trkpt>
      <trkpt lat="43.4214" lon="6.07694">
        <ele>241.60000610352</ele>
        <time>2015-06-10T14:29:28Z</time>
      </trkpt>
      <trkpt lat="43.42143" lon="6.07683">
        <ele>240</ele>
        <time>2015-06-10T14:29:29Z</time>
      </trkpt>
      <trkpt lat="43.42152" lon="6.0765">
        <ele>239</ele>
        <time>2015-06-10T14:29:32Z</time>
      </trkpt>
      <trkpt lat="43.42158" lon="6.07629">
        <ele>238</ele>
        <time>2015-06-10T14:29:34Z</time>
      </trkpt>
      <trkpt lat="43.42168" lon="6.07588">
        <ele>237.39999389648</ele>
        <time>2015-06-10T14:29:38Z</time>
      </trkpt>
      <trkpt lat="43.42171" lon="6.07568">
        <ele>236.80000305176</ele>
        <time>2015-06-10T14:29:40Z</time>
      </trkpt>
      <trkpt lat="43.42178" lon="6.07531">
        <ele>235.60000610352</ele>
        <time>2015-06-10T14:29:44Z</time>
      </trkpt>
      <trkpt lat="43.42183" lon="6.07506">
        <ele>235.39999389648</ele>
        <time>2015-06-10T14:29:47Z</time>
      </trkpt>
      <trkpt lat="43.42189" lon="6.07481">
        <ele>234.80000305176</ele>
        <time>2015-06-10T14:29:50Z</time>
      </trkpt>
      <trkpt lat="43.4219" lon="6.07473">
        <ele>234.39999389648</ele>
        <time>2015-06-10T14:29:51Z</time>
      </trkpt>
      <trkpt lat="43.42197" lon="6.07435">
        <ele>234.80000305176</ele>
        <time>2015-06-10T14:29:56Z</time>
      </trkpt>
      <trkpt lat="43.42197" lon="6.07428">
        <ele>234.80000305176</ele>
        <time>2015-06-10T14:29:58Z</time>
      </trkpt>
      <trkpt lat="43.42197" lon="6.07427">
        <ele>234.80000305176</ele>
        <time>2015-06-10T14:29:59Z</time>
      </trkpt>
      <trkpt lat="43.42196" lon="6.07427">
        <ele>235</ele>
        <time>2015-06-10T14:30:05Z</time>
      </trkpt>
      <trkpt lat="43.42194" lon="6.07424">
        <ele>234</ele>
        <time>2015-06-10T14:30:11Z</time>
      </trkpt>
      <trkpt lat="43.42193" lon="6.07421">
        <ele>233.60000610352</ele>
        <time>2015-06-10T14:30:15Z</time>
      </trkpt>
      <trkpt lat="43.42193" lon="6.0742">
        <ele>233.39999389648</ele>
        <time>2015-06-10T14:30:16Z</time>
      </trkpt>
      <trkpt lat="43.42192" lon="6.07419">
        <ele>233.19999694824</ele>
        <time>2015-06-10T14:30:17Z</time>
      </trkpt>
      <trkpt lat="43.42192" lon="6.07419">
        <ele>233.19999694824</ele>
        <time>2015-06-10T14:30:19Z</time>
      </trkpt>
      <trkpt lat="43.42192" lon="6.07419">
        <ele>233</ele>
        <time>2015-06-10T14:30:28Z</time>
      </trkpt>
      <trkpt lat="43.42188" lon="6.07419">
        <ele>232.19999694824</ele>
        <time>2015-06-10T14:30:36Z</time>
      </trkpt>
      <trkpt lat="43.42188" lon="6.07418">
        <ele>232.39999389648</ele>
        <time>2015-06-10T14:30:38Z</time>
      </trkpt>
      <trkpt lat="43.42189" lon="6.07408">
        <ele>232</ele>
        <time>2015-06-10T14:30:48Z</time>
      </trkpt>
      <trkpt lat="43.42182" lon="6.07407">
        <ele>231.60000610352</ele>
        <time>2015-06-10T14:30:54Z</time>
      </trkpt>
      <trkpt lat="43.42172" lon="6.07419">
        <ele>231.60000610352</ele>
        <time>2015-06-10T14:30:55Z</time>
      </trkpt>
      <trkpt lat="43.4216" lon="6.07421">
        <ele>231.19999694824</ele>
        <time>2015-06-10T14:30:58Z</time>
      </trkpt>
      <trkpt lat="43.42153" lon="6.0742">
        <ele>231</ele>
        <time>2015-06-10T14:31:01Z</time>
      </trkpt>
      <trkpt lat="43.4215" lon="6.07419">
        <ele>230.60000610352</ele>
        <time>2015-06-10T14:31:03Z</time>
      </trkpt>
      <trkpt lat="43.42147" lon="6.07418">
        <ele>230.39999389648</ele>
        <time>2015-06-10T14:31:06Z</time>
      </trkpt>
      <trkpt lat="43.42147" lon="6.07418">
        <ele>230.60000610352</ele>
        <time>2015-06-10T14:31:12Z</time>
      </trkpt>
      <trkpt lat="43.42146" lon="6.07417">
        <ele>230.80000305176</ele>
        <time>2015-06-10T14:31:23Z</time>
      </trkpt>
      <trkpt lat="43.42144" lon="6.07417">
        <ele>231</ele>
        <time>2015-06-10T14:31:31Z</time>
      </trkpt>
      <trkpt lat="43.42139" lon="6.07413">
        <ele>231</ele>
        <time>2015-06-10T14:31:39Z</time>
      </trkpt>
      <trkpt lat="43.42129" lon="6.07402">
        <ele>231.19999694824</ele>
        <time>2015-06-10T14:31:44Z</time>
      </trkpt>
      <trkpt lat="43.42126" lon="6.074">
        <ele>231.19999694824</ele>
        <time>2015-06-10T14:31:45Z</time>
      </trkpt>
      <trkpt lat="43.42118" lon="6.07397">
        <ele>232.19999694824</ele>
        <time>2015-06-10T14:31:49Z</time>
      </trkpt>
      <trkpt lat="43.42117" lon="6.07397">
        <ele>232.60000610352</ele>
        <time>2015-06-10T14:31:50Z</time>
      </trkpt>
      <trkpt lat="43.42117" lon="6.074">
        <ele>232.60000610352</ele>
        <time>2015-06-10T14:31:53Z</time>
      </trkpt>
      <trkpt lat="43.42116" lon="6.07398">
        <ele>233</ele>
        <time>2015-06-10T14:32:00Z</time>
      </trkpt>
      <trkpt lat="43.42118" lon="6.07403">
        <ele>233.19999694824</ele>
        <time>2015-06-10T14:32:08Z</time>
      </trkpt>
      <trkpt lat="43.42124" lon="6.0742">
        <ele>233.19999694824</ele>
        <time>2015-06-10T14:32:14Z</time>
      </trkpt>
      <trkpt lat="43.42125" lon="6.07429">
        <ele>233.80000305176</ele>
        <time>2015-06-10T14:32:17Z</time>
      </trkpt>
      <trkpt lat="43.42124" lon="6.07439">
        <ele>234.19999694824</ele>
        <time>2015-06-10T14:32:20Z</time>
      </trkpt>
      <trkpt lat="43.42122" lon="6.07453">
        <ele>235</ele>
        <time>2015-06-10T14:32:25Z</time>
      </trkpt>
      <trkpt lat="43.42123" lon="6.0746">
        <ele>235.80000305176</ele>
        <time>2015-06-10T14:32:28Z</time>
      </trkpt>
      <trkpt lat="43.42125" lon="6.07461">
        <ele>235.80000305176</ele>
        <time>2015-06-10T14:32:29Z</time>
      </trkpt>
      <trkpt lat="43.42132" lon="6.07467">
        <ele>235.60000610352</ele>
        <time>2015-06-10T14:32:33Z</time>
      </trkpt>
      <trkpt lat="43.42132" lon="6.0747">
        <ele>235.39999389648</ele>
        <time>2015-06-10T14:32:34Z</time>
      </trkpt>
      <trkpt lat="43.42126" lon="6.07485">
        <ele>236.19999694824</ele>
        <time>2015-06-10T14:32:40Z</time>
      </trkpt>
      <trkpt lat="43.42119" lon="6.07492">
        <ele>237</ele>
        <time>2015-06-10T14:32:44Z</time>
      </trkpt>
      <trkpt lat="43.42116" lon="6.07493">
        <ele>237.19999694824</ele>
        <time>2015-06-10T14:32:46Z</time>
      </trkpt>
      <trkpt lat="43.42114" lon="6.07493">
        <ele>237.39999389648</ele>
        <time>2015-06-10T14:32:47Z</time>
      </trkpt>
      <trkpt lat="43.42113" lon="6.07493">
        <ele>237.60000610352</ele>
        <time>2015-06-10T14:32:48Z</time>
      </trkpt>
      <trkpt lat="43.42106" lon="6.07492">
        <ele>238.19999694824</ele>
        <time>2015-06-10T14:32:52Z</time>
      </trkpt>
      <trkpt lat="43.42104" lon="6.07492">
        <ele>238.39999389648</ele>
        <time>2015-06-10T14:32:53Z</time>
      </trkpt>
      <trkpt lat="43.42092" lon="6.07494">
        <ele>239.19999694824</ele>
        <time>2015-06-10T14:32:59Z</time>
      </trkpt>
      <trkpt lat="43.42073" lon="6.07495">
        <ele>239.19999694824</ele>
        <time>2015-06-10T14:33:07Z</time>
      </trkpt>
      <trkpt lat="43.42051" lon="6.07496">
        <ele>239.19999694824</ele>
        <time>2015-06-10T14:33:14Z</time>
      </trkpt>
      <trkpt lat="43.42028" lon="6.07498">
        <ele>238.80000305176</ele>
        <time>2015-06-10T14:33:21Z</time>
      </trkpt>
      <trkpt lat="43.42016" lon="6.07488">
        <ele>239</ele>
        <time>2015-06-10T14:33:25Z</time>
      </trkpt>
      <trkpt lat="43.42012" lon="6.07475">
        <ele>238.80000305176</ele>
        <time>2015-06-10T14:33:28Z</time>
      </trkpt>
      <trkpt lat="43.42008" lon="6.07459">
        <ele>238.80000305176</ele>
        <time>2015-06-10T14:33:32Z</time>
      </trkpt>
      <trkpt lat="43.42006" lon="6.07447">
        <ele>239.19999694824</ele>
        <time>2015-06-10T14:33:35Z</time>
      </trkpt>
      <trkpt lat="43.42003" lon="6.07434">
        <ele>238.80000305176</ele>
        <time>2015-06-10T14:33:38Z</time>
      </trkpt>
      <trkpt lat="43.42002" lon="6.07428">
        <ele>238.80000305176</ele>
        <time>2015-06-10T14:33:40Z</time>
      </trkpt>
      <trkpt lat="43.42001" lon="6.07421">
        <ele>238.60000610352</ele>
        <time>2015-06-10T14:33:43Z</time>
      </trkpt>
      <trkpt lat="43.42001" lon="6.07419">
        <ele>238.60000610352</ele>
        <time>2015-06-10T14:33:44Z</time>
      </trkpt>
      <trkpt lat="43.42001" lon="6.07403">
        <ele>238.19999694824</ele>
        <time>2015-06-10T14:33:50Z</time>
      </trkpt>
      <trkpt lat="43.41998" lon="6.07383">
        <ele>237.80000305176</ele>
        <time>2015-06-10T14:33:55Z</time>
      </trkpt>
      <trkpt lat="43.41997" lon="6.07378">
        <ele>237.39999389648</ele>
        <time>2015-06-10T14:33:56Z</time>
      </trkpt>
      <trkpt lat="43.41993" lon="6.07357">
        <ele>237</ele>
        <time>2015-06-10T14:34:00Z</time>
      </trkpt>
      <trkpt lat="43.41991" lon="6.07352">
        <ele>237</ele>
        <time>2015-06-10T14:34:01Z</time>
      </trkpt>
      <trkpt lat="43.41983" lon="6.07333">
        <ele>236.19999694824</ele>
        <time>2015-06-10T14:34:04Z</time>
      </trkpt>
      <trkpt lat="43.41977" lon="6.07318">
        <ele>235.19999694824</ele>
        <time>2015-06-10T14:34:06Z</time>
      </trkpt>
      <trkpt lat="43.41973" lon="6.0731">
        <ele>235</ele>
        <time>2015-06-10T14:34:07Z</time>
      </trkpt>
      <trkpt lat="43.41965" lon="6.07289">
        <ele>233.60000610352</ele>
        <time>2015-06-10T14:34:10Z</time>
      </trkpt>
      <trkpt lat="43.41951" lon="6.07258">
        <ele>231.19999694824</ele>
        <time>2015-06-10T14:34:14Z</time>
      </trkpt>
      <trkpt lat="43.41941" lon="6.07234">
        <ele>229.80000305176</ele>
        <time>2015-06-10T14:34:17Z</time>
      </trkpt>
      <trkpt lat="43.41936" lon="6.07222">
        <ele>228.60000610352</ele>
        <time>2015-06-10T14:34:19Z</time>
      </trkpt>
      <trkpt lat="43.4193" lon="6.07208">
        <ele>227.60000610352</ele>
        <time>2015-06-10T14:34:21Z</time>
      </trkpt>
      <trkpt lat="43.41927" lon="6.07202">
        <ele>226.80000305176</ele>
        <time>2015-06-10T14:34:22Z</time>
      </trkpt>
      <trkpt lat="43.41924" lon="6.07198">
        <ele>226.19999694824</ele>
        <time>2015-06-10T14:34:23Z</time>
      </trkpt>
      <trkpt lat="43.41919" lon="6.07195">
        <ele>225.39999389648</ele>
        <time>2015-06-10T14:34:24Z</time>
      </trkpt>
      <trkpt lat="43.41913" lon="6.07194">
        <ele>224.60000610352</ele>
        <time>2015-06-10T14:34:25Z</time>
      </trkpt>
      <trkpt lat="43.41902" lon="6.072">
        <ele>223.80000305176</ele>
        <time>2015-06-10T14:34:27Z</time>
      </trkpt>
      <trkpt lat="43.41896" lon="6.07203">
        <ele>223.60000610352</ele>
        <time>2015-06-10T14:34:28Z</time>
      </trkpt>
      <trkpt lat="43.41891" lon="6.07206">
        <ele>223.19999694824</ele>
        <time>2015-06-10T14:34:29Z</time>
      </trkpt>
      <trkpt lat="43.41874" lon="6.0721">
        <ele>222.80000305176</ele>
        <time>2015-06-10T14:34:32Z</time>
      </trkpt>
      <trkpt lat="43.41868" lon="6.0722">
        <ele>222.80000305176</ele>
        <time>2015-06-10T14:34:34Z</time>
      </trkpt>
      <trkpt lat="43.41866" lon="6.07251">
        <ele>222.80000305176</ele>
        <time>2015-06-10T14:34:39Z</time>
      </trkpt>
      <trkpt lat="43.41864" lon="6.07268">
        <ele>223.19999694824</ele>
        <time>2015-06-10T14:34:44Z</time>
      </trkpt>
      <trkpt lat="43.41864" lon="6.07269">
        <ele>223.19999694824</ele>
        <time>2015-06-10T14:34:50Z</time>
      </trkpt>
    </trkseg>
  </trk>
</gpx>